
<gpx xmlns="http://www.topografix.com/GPX/1/1" xmlns:gpxx="http://www.garmin.com/xmlschemas/GpxExtensions/v3" xmlns:xsi="http://www.w3.org/2001/XMLSchema-instance" version="1.1" creator="Adze - https://getadze.com/" xsi:schemaLocation="http://www.topografix.com/GPX/1/1 http://www.topografix.com/GPX/1/1/gpx.xsd http://www.garmin.com/xmlschemas/GpxExtensions/v3 http://www.garmin.com/xmlschemas/GpxExtensionsv3.xsd">
    <metadata>
        <name>Untitled Document</name>
        <link href="http://www.garmin.com"></link>
        <time>2018-03-08T04:05:18.874Z</time>
    </metadata>
    <wpt lon="101.054750" lat="14.446011">
        <ele>55.000000</ele>
        <name>Rai Wansnit Resort</name>
        <cmt>21-FEB-09 10:08:13</cmt>
        <desc>21-FEB-09 10:08:13</desc>
        <sym>Residence</sym>
        <extensions>
            <gpxx:WaypointExtension xmlns:gpxx="http://www.garmin.com/xmlschemas/GpxExtensions/v3">
                <gpxx:DisplayMode>SymbolOnly</gpxx:DisplayMode>
            </gpxx:WaypointExtension>
        </extensions>
    </wpt>
    <trk>
        <name>May 2009 - Saturday</name>
        <extensions>
            <gpxx:TrackExtension xmlns:gpxx="http://www.garmin.com/xmlschemas/GpxExtensions/v3">
                <gpxx:DisplayColor>Red</gpxx:DisplayColor>
            </gpxx:TrackExtension>
        </extensions>
        <trkseg>
            <trkpt lon="101.054772" lat="14.445952">
                <ele>56.374512</ele>
                <time>2009-05-30T06:00:06Z</time>
            </trkpt>
            <trkpt lon="101.054685" lat="14.445910">
                <ele>64.065063</ele>
                <time>2009-05-30T06:01:12Z</time>
            </trkpt>
            <trkpt lon="101.054687" lat="14.445972">
                <ele>57.335815</ele>
                <time>2009-05-30T06:02:33Z</time>
            </trkpt>
            <trkpt lon="101.054664" lat="14.445929">
                <ele>61.661743</ele>
                <time>2009-05-30T06:04:18Z</time>
            </trkpt>
            <trkpt lon="101.054629" lat="14.445725">
                <ele>56.374512</ele>
                <time>2009-05-30T06:04:30Z</time>
            </trkpt>
            <trkpt lon="101.054814" lat="14.445486">
                <ele>56.374512</ele>
                <time>2009-05-30T06:04:41Z</time>
            </trkpt>
            <trkpt lon="101.055134" lat="14.445247">
                <ele>54.451782</ele>
                <time>2009-05-30T06:04:55Z</time>
            </trkpt>
            <trkpt lon="101.055315" lat="14.444947">
                <ele>53.009766</ele>
                <time>2009-05-30T06:05:06Z</time>
            </trkpt>
            <trkpt lon="101.055174" lat="14.444681">
                <ele>53.971191</ele>
                <time>2009-05-30T06:05:15Z</time>
            </trkpt>
            <trkpt lon="101.054873" lat="14.444318">
                <ele>54.932373</ele>
                <time>2009-05-30T06:05:27Z</time>
            </trkpt>
            <trkpt lon="101.054850" lat="14.444280">
                <ele>57.816528</ele>
                <time>2009-05-30T06:05:31Z</time>
            </trkpt>
            <trkpt lon="101.054727" lat="14.443962">
                <ele>56.855103</ele>
                <time>2009-05-30T06:05:41Z</time>
            </trkpt>
            <trkpt lon="101.054622" lat="14.443624">
                <ele>55.413086</ele>
                <time>2009-05-30T06:05:53Z</time>
            </trkpt>
            <trkpt lon="101.054627" lat="14.443415">
                <ele>53.971191</ele>
                <time>2009-05-30T06:06:01Z</time>
            </trkpt>
            <trkpt lon="101.054681" lat="14.443064">
                <ele>53.490479</ele>
                <time>2009-05-30T06:06:13Z</time>
            </trkpt>
            <trkpt lon="101.054664" lat="14.442837">
                <ele>54.451782</ele>
                <time>2009-05-30T06:06:24Z</time>
            </trkpt>
            <trkpt lon="101.054648" lat="14.442757">
                <ele>54.451782</ele>
                <time>2009-05-30T06:06:28Z</time>
            </trkpt>
            <trkpt lon="101.054616" lat="14.442615">
                <ele>60.700317</ele>
                <time>2009-05-30T06:06:45Z</time>
            </trkpt>
            <trkpt lon="101.054613" lat="14.442559">
                <ele>63.584351</ele>
                <time>2009-05-30T06:07:02Z</time>
            </trkpt>
            <trkpt lon="101.054685" lat="14.442415">
                <ele>59.258423</ele>
                <time>2009-05-30T06:07:17Z</time>
            </trkpt>
            <trkpt lon="101.054751" lat="14.442360">
                <ele>59.258423</ele>
                <time>2009-05-30T06:07:27Z</time>
            </trkpt>
            <trkpt lon="101.054901" lat="14.442354">
                <ele>57.335815</ele>
                <time>2009-05-30T06:07:39Z</time>
            </trkpt>
            <trkpt lon="101.055220" lat="14.442383">
                <ele>57.335815</ele>
                <time>2009-05-30T06:07:49Z</time>
            </trkpt>
            <trkpt lon="101.055276" lat="14.442375">
                <ele>57.335815</ele>
                <time>2009-05-30T06:07:51Z</time>
            </trkpt>
            <trkpt lon="101.055266" lat="14.442286">
                <ele>55.413086</ele>
                <time>2009-05-30T06:07:58Z</time>
            </trkpt>
            <trkpt lon="101.054969" lat="14.442032">
                <ele>51.567871</ele>
                <time>2009-05-30T06:08:10Z</time>
            </trkpt>
            <trkpt lon="101.054567" lat="14.441906">
                <ele>53.009766</ele>
                <time>2009-05-30T06:08:24Z</time>
            </trkpt>
            <trkpt lon="101.054231" lat="14.441922">
                <ele>54.932373</ele>
                <time>2009-05-30T06:08:37Z</time>
            </trkpt>
            <trkpt lon="101.054138" lat="14.441938">
                <ele>55.893799</ele>
                <time>2009-05-30T06:08:41Z</time>
            </trkpt>
            <trkpt lon="101.053860" lat="14.441973">
                <ele>58.777710</ele>
                <time>2009-05-30T06:08:52Z</time>
            </trkpt>
            <trkpt lon="101.053581" lat="14.442003">
                <ele>59.258423</ele>
                <time>2009-05-30T06:09:04Z</time>
            </trkpt>
            <trkpt lon="101.053561" lat="14.441998">
                <ele>59.258423</ele>
                <time>2009-05-30T06:09:05Z</time>
            </trkpt>
            <trkpt lon="101.053528" lat="14.441947">
                <ele>57.816528</ele>
                <time>2009-05-30T06:09:09Z</time>
            </trkpt>
            <trkpt lon="101.053500" lat="14.441670">
                <ele>57.816528</ele>
                <time>2009-05-30T06:09:22Z</time>
            </trkpt>
            <trkpt lon="101.053480" lat="14.441510">
                <ele>57.816528</ele>
                <time>2009-05-30T06:09:36Z</time>
            </trkpt>
            <trkpt lon="101.053482" lat="14.441425">
                <ele>62.142334</ele>
                <time>2009-05-30T06:09:57Z</time>
            </trkpt>
            <trkpt lon="101.053489" lat="14.441367">
                <ele>62.622925</ele>
                <time>2009-05-30T06:10:16Z</time>
            </trkpt>
            <trkpt lon="101.053479" lat="14.441290">
                <ele>62.142334</ele>
                <time>2009-05-30T06:10:22Z</time>
            </trkpt>
            <trkpt lon="101.053495" lat="14.441141">
                <ele>60.700317</ele>
                <time>2009-05-30T06:10:35Z</time>
            </trkpt>
            <trkpt lon="101.053492" lat="14.441048">
                <ele>57.335815</ele>
                <time>2009-05-30T06:10:49Z</time>
            </trkpt>
            <trkpt lon="101.053520" lat="14.441022">
                <ele>56.855103</ele>
                <time>2009-05-30T06:10:53Z</time>
            </trkpt>
            <trkpt lon="101.053588" lat="14.441024">
                <ele>59.258423</ele>
                <time>2009-05-30T06:11:07Z</time>
            </trkpt>
            <trkpt lon="101.053661" lat="14.441031">
                <ele>60.700317</ele>
                <time>2009-05-30T06:11:19Z</time>
            </trkpt>
            <trkpt lon="101.053772" lat="14.441061">
                <ele>61.181030</ele>
                <time>2009-05-30T06:11:35Z</time>
            </trkpt>
            <trkpt lon="101.053759" lat="14.441079">
                <ele>59.739136</ele>
                <time>2009-05-30T06:11:55Z</time>
            </trkpt>
            <trkpt lon="101.053821" lat="14.441045">
                <ele>63.103638</ele>
                <time>2009-05-30T06:12:40Z</time>
            </trkpt>
            <trkpt lon="101.053820" lat="14.441101">
                <ele>58.297119</ele>
                <time>2009-05-30T06:14:19Z</time>
            </trkpt>
            <trkpt lon="101.053714" lat="14.441071">
                <ele>64.065063</ele>
                <time>2009-05-30T06:15:08Z</time>
            </trkpt>
            <trkpt lon="101.053645" lat="14.441050">
                <ele>64.545654</ele>
                <time>2009-05-30T06:15:24Z</time>
            </trkpt>
            <trkpt lon="101.053573" lat="14.441031">
                <ele>67.910278</ele>
                <time>2009-05-30T06:15:42Z</time>
            </trkpt>
            <trkpt lon="101.053515" lat="14.441012">
                <ele>72.716919</ele>
                <time>2009-05-30T06:15:58Z</time>
            </trkpt>
            <trkpt lon="101.053482" lat="14.441014">
                <ele>69.352295</ele>
                <time>2009-05-30T06:16:27Z</time>
            </trkpt>
            <trkpt lon="101.053410" lat="14.441001">
                <ele>66.468262</ele>
                <time>2009-05-30T06:16:45Z</time>
            </trkpt>
            <trkpt lon="101.053323" lat="14.440989">
                <ele>64.545654</ele>
                <time>2009-05-30T06:16:57Z</time>
            </trkpt>
            <trkpt lon="101.053087" lat="14.440946">
                <ele>65.026367</ele>
                <time>2009-05-30T06:17:19Z</time>
            </trkpt>
            <trkpt lon="101.052983" lat="14.440921">
                <ele>68.871582</ele>
                <time>2009-05-30T06:17:35Z</time>
            </trkpt>
            <trkpt lon="101.052840" lat="14.440880">
                <ele>70.794190</ele>
                <time>2009-05-30T06:17:52Z</time>
            </trkpt>
            <trkpt lon="101.052777" lat="14.440826">
                <ele>73.678223</ele>
                <time>2009-05-30T06:18:05Z</time>
            </trkpt>
            <trkpt lon="101.052812" lat="14.440653">
                <ele>72.236206</ele>
                <time>2009-05-30T06:18:20Z</time>
            </trkpt>
            <trkpt lon="101.052841" lat="14.440472">
                <ele>71.274902</ele>
                <time>2009-05-30T06:18:33Z</time>
            </trkpt>
            <trkpt lon="101.052979" lat="14.440256">
                <ele>67.910278</ele>
                <time>2009-05-30T06:18:49Z</time>
            </trkpt>
            <trkpt lon="101.053004" lat="14.440214">
                <ele>67.429688</ele>
                <time>2009-05-30T06:18:52Z</time>
            </trkpt>
            <trkpt lon="101.053029" lat="14.440168">
                <ele>66.948975</ele>
                <time>2009-05-30T06:19:00Z</time>
            </trkpt>
            <trkpt lon="101.053005" lat="14.440003">
                <ele>67.429688</ele>
                <time>2009-05-30T06:19:17Z</time>
            </trkpt>
            <trkpt lon="101.052962" lat="14.439882">
                <ele>67.910278</ele>
                <time>2009-05-30T06:19:31Z</time>
            </trkpt>
            <trkpt lon="101.052929" lat="14.439656">
                <ele>67.429688</ele>
                <time>2009-05-30T06:19:51Z</time>
            </trkpt>
            <trkpt lon="101.052920" lat="14.439592">
                <ele>67.429688</ele>
                <time>2009-05-30T06:20:04Z</time>
            </trkpt>
            <trkpt lon="101.052931" lat="14.439573">
                <ele>67.429688</ele>
                <time>2009-05-30T06:20:07Z</time>
            </trkpt>
            <trkpt lon="101.052950" lat="14.439563">
                <ele>66.948975</ele>
                <time>2009-05-30T06:20:09Z</time>
            </trkpt>
            <trkpt lon="101.053025" lat="14.439559">
                <ele>66.468262</ele>
                <time>2009-05-30T06:20:27Z</time>
            </trkpt>
            <trkpt lon="101.053055" lat="14.439557">
                <ele>65.987671</ele>
                <time>2009-05-30T06:20:44Z</time>
            </trkpt>
            <trkpt lon="101.053054" lat="14.439571">
                <ele>67.910278</ele>
                <time>2009-05-30T06:21:08Z</time>
            </trkpt>
            <trkpt lon="101.053054" lat="14.439577">
                <ele>66.468262</ele>
                <time>2009-05-30T06:21:15Z</time>
            </trkpt>
            <trkpt lon="101.053090" lat="14.439597">
                <ele>63.584351</ele>
                <time>2009-05-30T06:21:29Z</time>
            </trkpt>
            <trkpt lon="101.053117" lat="14.439604">
                <ele>63.103638</ele>
                <time>2009-05-30T06:21:53Z</time>
            </trkpt>
            <trkpt lon="101.053125" lat="14.439605">
                <ele>63.103638</ele>
                <time>2009-05-30T06:21:56Z</time>
            </trkpt>
            <trkpt lon="101.053283" lat="14.439612">
                <ele>62.142334</ele>
                <time>2009-05-30T06:22:13Z</time>
            </trkpt>
            <trkpt lon="101.053414" lat="14.439636">
                <ele>62.622925</ele>
                <time>2009-05-30T06:22:43Z</time>
            </trkpt>
            <trkpt lon="101.053422" lat="14.439636">
                <ele>62.622925</ele>
                <time>2009-05-30T06:22:44Z</time>
            </trkpt>
            <trkpt lon="101.053481" lat="14.439614">
                <ele>64.545654</ele>
                <time>2009-05-30T06:22:59Z</time>
            </trkpt>
            <trkpt lon="101.053486" lat="14.439615">
                <ele>65.507080</ele>
                <time>2009-05-30T06:23:14Z</time>
            </trkpt>
            <trkpt lon="101.053605" lat="14.439580">
                <ele>67.910278</ele>
                <time>2009-05-30T06:23:27Z</time>
            </trkpt>
            <trkpt lon="101.053815" lat="14.439601">
                <ele>67.910278</ele>
                <time>2009-05-30T06:23:46Z</time>
            </trkpt>
            <trkpt lon="101.053827" lat="14.439602">
                <ele>67.910278</ele>
                <time>2009-05-30T06:23:47Z</time>
            </trkpt>
            <trkpt lon="101.053878" lat="14.439622">
                <ele>67.910278</ele>
                <time>2009-05-30T06:23:51Z</time>
            </trkpt>
            <trkpt lon="101.054009" lat="14.439603">
                <ele>67.429688</ele>
                <time>2009-05-30T06:24:07Z</time>
            </trkpt>
            <trkpt lon="101.054025" lat="14.439601">
                <ele>65.987671</ele>
                <time>2009-05-30T06:24:17Z</time>
            </trkpt>
            <trkpt lon="101.053996" lat="14.439615">
                <ele>65.507080</ele>
                <time>2009-05-30T06:24:39Z</time>
            </trkpt>
            <trkpt lon="101.054014" lat="14.439608">
                <ele>64.545654</ele>
                <time>2009-05-30T06:24:49Z</time>
            </trkpt>
            <trkpt lon="101.054031" lat="14.439620">
                <ele>65.026367</ele>
                <time>2009-05-30T06:24:59Z</time>
            </trkpt>
            <trkpt lon="101.054221" lat="14.439721">
                <ele>65.507080</ele>
                <time>2009-05-30T06:25:10Z</time>
            </trkpt>
            <trkpt lon="101.054602" lat="14.439787">
                <ele>64.545654</ele>
                <time>2009-05-30T06:25:23Z</time>
            </trkpt>
            <trkpt lon="101.054772" lat="14.439823">
                <ele>63.584351</ele>
                <time>2009-05-30T06:25:27Z</time>
            </trkpt>
            <trkpt lon="101.055622" lat="14.440029">
                <ele>63.103638</ele>
                <time>2009-05-30T06:25:46Z</time>
            </trkpt>
            <trkpt lon="101.055678" lat="14.440018">
                <ele>63.103638</ele>
                <time>2009-05-30T06:25:57Z</time>
            </trkpt>
            <trkpt lon="101.055670" lat="14.439873">
                <ele>60.219727</ele>
                <time>2009-05-30T06:26:19Z</time>
            </trkpt>
            <trkpt lon="101.055554" lat="14.439459">
                <ele>59.739136</ele>
                <time>2009-05-30T06:26:33Z</time>
            </trkpt>
            <trkpt lon="101.055330" lat="14.439194">
                <ele>59.258423</ele>
                <time>2009-05-30T06:26:44Z</time>
            </trkpt>
            <trkpt lon="101.055095" lat="14.438799">
                <ele>61.181030</ele>
                <time>2009-05-30T06:26:59Z</time>
            </trkpt>
            <trkpt lon="101.054976" lat="14.438514">
                <ele>62.622925</ele>
                <time>2009-05-30T06:27:10Z</time>
            </trkpt>
            <trkpt lon="101.054765" lat="14.438055">
                <ele>63.584351</ele>
                <time>2009-05-30T06:27:25Z</time>
            </trkpt>
            <trkpt lon="101.054663" lat="14.437709">
                <ele>65.507080</ele>
                <time>2009-05-30T06:27:40Z</time>
            </trkpt>
            <trkpt lon="101.054678" lat="14.437750">
                <ele>65.507080</ele>
                <time>2009-05-30T06:28:10Z</time>
            </trkpt>
            <trkpt lon="101.054710" lat="14.437806">
                <ele>65.507080</ele>
                <time>2009-05-30T06:28:26Z</time>
            </trkpt>
            <trkpt lon="101.054713" lat="14.437809">
                <ele>66.468262</ele>
                <time>2009-05-30T06:28:39Z</time>
            </trkpt>
            <trkpt lon="101.054671" lat="14.437704">
                <ele>67.429688</ele>
                <time>2009-05-30T06:28:52Z</time>
            </trkpt>
            <trkpt lon="101.054589" lat="14.437428">
                <ele>67.910278</ele>
                <time>2009-05-30T06:29:04Z</time>
            </trkpt>
            <trkpt lon="101.054459" lat="14.436973">
                <ele>69.832886</ele>
                <time>2009-05-30T06:29:21Z</time>
            </trkpt>
            <trkpt lon="101.054428" lat="14.436499">
                <ele>71.755493</ele>
                <time>2009-05-30T06:29:36Z</time>
            </trkpt>
            <trkpt lon="101.054137" lat="14.436095">
                <ele>73.197632</ele>
                <time>2009-05-30T06:29:50Z</time>
            </trkpt>
            <trkpt lon="101.054087" lat="14.435570">
                <ele>72.716919</ele>
                <time>2009-05-30T06:30:05Z</time>
            </trkpt>
            <trkpt lon="101.054303" lat="14.435168">
                <ele>72.236206</ele>
                <time>2009-05-30T06:30:19Z</time>
            </trkpt>
            <trkpt lon="101.054691" lat="14.434781">
                <ele>72.236206</ele>
                <time>2009-05-30T06:30:34Z</time>
            </trkpt>
            <trkpt lon="101.055027" lat="14.434632">
                <ele>74.158813</ele>
                <time>2009-05-30T06:30:47Z</time>
            </trkpt>
            <trkpt lon="101.055378" lat="14.434465">
                <ele>73.678223</ele>
                <time>2009-05-30T06:31:00Z</time>
            </trkpt>
            <trkpt lon="101.055697" lat="14.434247">
                <ele>73.678223</ele>
                <time>2009-05-30T06:31:14Z</time>
            </trkpt>
            <trkpt lon="101.056058" lat="14.434050">
                <ele>75.120239</ele>
                <time>2009-05-30T06:31:29Z</time>
            </trkpt>
            <trkpt lon="101.056433" lat="14.433817">
                <ele>75.120239</ele>
                <time>2009-05-30T06:31:46Z</time>
            </trkpt>
            <trkpt lon="101.056601" lat="14.433589">
                <ele>77.523438</ele>
                <time>2009-05-30T06:31:57Z</time>
            </trkpt>
            <trkpt lon="101.056776" lat="14.433444">
                <ele>81.368774</ele>
                <time>2009-05-30T06:32:11Z</time>
            </trkpt>
            <trkpt lon="101.056852" lat="14.433220">
                <ele>79.926636</ele>
                <time>2009-05-30T06:32:24Z</time>
            </trkpt>
            <trkpt lon="101.056826" lat="14.433134">
                <ele>83.291382</ele>
                <time>2009-05-30T06:32:29Z</time>
            </trkpt>
            <trkpt lon="101.056841" lat="14.432994">
                <ele>85.213989</ele>
                <time>2009-05-30T06:32:40Z</time>
            </trkpt>
            <trkpt lon="101.056854" lat="14.432935">
                <ele>86.656006</ele>
                <time>2009-05-30T06:32:45Z</time>
            </trkpt>
            <trkpt lon="101.056741" lat="14.432762">
                <ele>88.098022</ele>
                <time>2009-05-30T06:33:01Z</time>
            </trkpt>
            <trkpt lon="101.056442" lat="14.432634">
                <ele>90.981934</ele>
                <time>2009-05-30T06:33:16Z</time>
            </trkpt>
            <trkpt lon="101.056395" lat="14.432630">
                <ele>90.501343</ele>
                <time>2009-05-30T06:33:17Z</time>
            </trkpt>
            <trkpt lon="101.056109" lat="14.432512">
                <ele>88.098022</ele>
                <time>2009-05-30T06:33:23Z</time>
            </trkpt>
            <trkpt lon="101.055778" lat="14.432227">
                <ele>86.175293</ele>
                <time>2009-05-30T06:33:38Z</time>
            </trkpt>
            <trkpt lon="101.055513" lat="14.432079">
                <ele>82.810791</ele>
                <time>2009-05-30T06:33:46Z</time>
            </trkpt>
            <trkpt lon="101.055314" lat="14.432180">
                <ele>79.926636</ele>
                <time>2009-05-30T06:33:51Z</time>
            </trkpt>
            <trkpt lon="101.055099" lat="14.432559">
                <ele>77.042847</ele>
                <time>2009-05-30T06:34:02Z</time>
            </trkpt>
            <trkpt lon="101.055003" lat="14.432684">
                <ele>76.081421</ele>
                <time>2009-05-30T06:34:05Z</time>
            </trkpt>
            <trkpt lon="101.054867" lat="14.432774">
                <ele>77.523438</ele>
                <time>2009-05-30T06:34:09Z</time>
            </trkpt>
            <trkpt lon="101.054558" lat="14.432827">
                <ele>83.291382</ele>
                <time>2009-05-30T06:34:26Z</time>
            </trkpt>
            <trkpt lon="101.054121" lat="14.432902">
                <ele>83.291382</ele>
                <time>2009-05-30T06:34:40Z</time>
            </trkpt>
            <trkpt lon="101.053688" lat="14.432993">
                <ele>81.368774</ele>
                <time>2009-05-30T06:34:53Z</time>
            </trkpt>
            <trkpt lon="101.053299" lat="14.433067">
                <ele>78.004028</ele>
                <time>2009-05-30T06:35:03Z</time>
            </trkpt>
            <trkpt lon="101.052980" lat="14.433074">
                <ele>78.004028</ele>
                <time>2009-05-30T06:35:13Z</time>
            </trkpt>
            <trkpt lon="101.052610" lat="14.433057">
                <ele>78.965454</ele>
                <time>2009-05-30T06:35:26Z</time>
            </trkpt>
            <trkpt lon="101.052286" lat="14.433091">
                <ele>79.926636</ele>
                <time>2009-05-30T06:35:39Z</time>
            </trkpt>
            <trkpt lon="101.051959" lat="14.433065">
                <ele>79.926636</ele>
                <time>2009-05-30T06:35:50Z</time>
            </trkpt>
            <trkpt lon="101.051631" lat="14.433114">
                <ele>78.965454</ele>
                <time>2009-05-30T06:36:03Z</time>
            </trkpt>
            <trkpt lon="101.051617" lat="14.433120">
                <ele>78.484741</ele>
                <time>2009-05-30T06:36:05Z</time>
            </trkpt>
            <trkpt lon="101.051533" lat="14.433132">
                <ele>77.042847</ele>
                <time>2009-05-30T06:36:09Z</time>
            </trkpt>
            <trkpt lon="101.051435" lat="14.433157">
                <ele>74.639526</ele>
                <time>2009-05-30T06:36:19Z</time>
            </trkpt>
            <trkpt lon="101.051424" lat="14.433155">
                <ele>77.042847</ele>
                <time>2009-05-30T06:36:33Z</time>
            </trkpt>
            <trkpt lon="101.051459" lat="14.433165">
                <ele>77.523438</ele>
                <time>2009-05-30T06:36:48Z</time>
            </trkpt>
            <trkpt lon="101.051464" lat="14.433156">
                <ele>78.484741</ele>
                <time>2009-05-30T06:37:06Z</time>
            </trkpt>
            <trkpt lon="101.051471" lat="14.433146">
                <ele>78.004028</ele>
                <time>2009-05-30T06:37:35Z</time>
            </trkpt>
            <trkpt lon="101.051464" lat="14.433148">
                <ele>78.484741</ele>
                <time>2009-05-30T06:38:05Z</time>
            </trkpt>
            <trkpt lon="101.051499" lat="14.433158">
                <ele>76.081421</ele>
                <time>2009-05-30T06:38:31Z</time>
            </trkpt>
            <trkpt lon="101.051490" lat="14.433145">
                <ele>75.600830</ele>
                <time>2009-05-30T06:39:08Z</time>
            </trkpt>
            <trkpt lon="101.051473" lat="14.433141">
                <ele>79.446045</ele>
                <time>2009-05-30T06:39:36Z</time>
            </trkpt>
            <trkpt lon="101.051475" lat="14.433145">
                <ele>80.407471</ele>
                <time>2009-05-30T06:40:29Z</time>
            </trkpt>
            <trkpt lon="101.051468" lat="14.433149">
                <ele>84.252685</ele>
                <time>2009-05-30T06:41:41Z</time>
            </trkpt>
            <trkpt lon="101.051503" lat="14.433161">
                <ele>83.291382</ele>
                <time>2009-05-30T06:42:38Z</time>
            </trkpt>
            <trkpt lon="101.051484" lat="14.433156">
                <ele>82.330078</ele>
                <time>2009-05-30T06:42:49Z</time>
            </trkpt>
            <trkpt lon="101.051388" lat="14.433150">
                <ele>78.965454</ele>
                <time>2009-05-30T06:42:54Z</time>
            </trkpt>
            <trkpt lon="101.051322" lat="14.433147">
                <ele>77.042847</ele>
                <time>2009-05-30T06:42:57Z</time>
            </trkpt>
            <trkpt lon="101.051176" lat="14.432980">
                <ele>76.081421</ele>
                <time>2009-05-30T06:43:11Z</time>
            </trkpt>
            <trkpt lon="101.051166" lat="14.432969">
                <ele>76.081421</ele>
                <time>2009-05-30T06:43:12Z</time>
            </trkpt>
            <trkpt lon="101.051083" lat="14.432736">
                <ele>77.042847</ele>
                <time>2009-05-30T06:43:28Z</time>
            </trkpt>
            <trkpt lon="101.051081" lat="14.432720">
                <ele>77.042847</ele>
                <time>2009-05-30T06:43:29Z</time>
            </trkpt>
            <trkpt lon="101.051031" lat="14.432609">
                <ele>75.120239</ele>
                <time>2009-05-30T06:43:36Z</time>
            </trkpt>
            <trkpt lon="101.050930" lat="14.432427">
                <ele>78.484741</ele>
                <time>2009-05-30T06:43:48Z</time>
            </trkpt>
            <trkpt lon="101.051015" lat="14.432314">
                <ele>78.004028</ele>
                <time>2009-05-30T06:44:02Z</time>
            </trkpt>
            <trkpt lon="101.051035" lat="14.432278">
                <ele>77.523438</ele>
                <time>2009-05-30T06:44:09Z</time>
            </trkpt>
            <trkpt lon="101.051052" lat="14.432120">
                <ele>73.197632</ele>
                <time>2009-05-30T06:44:22Z</time>
            </trkpt>
            <trkpt lon="101.051155" lat="14.432013">
                <ele>73.197632</ele>
                <time>2009-05-30T06:44:38Z</time>
            </trkpt>
            <trkpt lon="101.051230" lat="14.431956">
                <ele>75.120239</ele>
                <time>2009-05-30T06:44:48Z</time>
            </trkpt>
            <trkpt lon="101.051346" lat="14.431902">
                <ele>78.484741</ele>
                <time>2009-05-30T06:45:05Z</time>
            </trkpt>
            <trkpt lon="101.051494" lat="14.431827">
                <ele>81.368774</ele>
                <time>2009-05-30T06:45:23Z</time>
            </trkpt>
            <trkpt lon="101.051630" lat="14.431801">
                <ele>88.578735</ele>
                <time>2009-05-30T06:45:40Z</time>
            </trkpt>
            <trkpt lon="101.051715" lat="14.431774">
                <ele>96.269287</ele>
                <time>2009-05-30T06:45:54Z</time>
            </trkpt>
            <trkpt lon="101.051729" lat="14.431766">
                <ele>95.788452</ele>
                <time>2009-05-30T06:45:59Z</time>
            </trkpt>
            <trkpt lon="101.051784" lat="14.431577">
                <ele>92.423950</ele>
                <time>2009-05-30T06:46:13Z</time>
            </trkpt>
            <trkpt lon="101.051902" lat="14.431332">
                <ele>87.136597</ele>
                <time>2009-05-30T06:46:30Z</time>
            </trkpt>
            <trkpt lon="101.052025" lat="14.431137">
                <ele>83.771973</ele>
                <time>2009-05-30T06:46:43Z</time>
            </trkpt>
            <trkpt lon="101.052205" lat="14.430945">
                <ele>86.656006</ele>
                <time>2009-05-30T06:46:57Z</time>
            </trkpt>
            <trkpt lon="101.052424" lat="14.430835">
                <ele>90.501343</ele>
                <time>2009-05-30T06:47:13Z</time>
            </trkpt>
            <trkpt lon="101.052455" lat="14.430802">
                <ele>91.943237</ele>
                <time>2009-05-30T06:47:16Z</time>
            </trkpt>
            <trkpt lon="101.052473" lat="14.430742">
                <ele>93.385132</ele>
                <time>2009-05-30T06:47:21Z</time>
            </trkpt>
            <trkpt lon="101.052450" lat="14.430631">
                <ele>93.865845</ele>
                <time>2009-05-30T06:47:28Z</time>
            </trkpt>
            <trkpt lon="101.052300" lat="14.430360">
                <ele>93.865845</ele>
                <time>2009-05-30T06:47:40Z</time>
            </trkpt>
            <trkpt lon="101.052135" lat="14.430103">
                <ele>94.346558</ele>
                <time>2009-05-30T06:47:53Z</time>
            </trkpt>
            <trkpt lon="101.051924" lat="14.429797">
                <ele>86.656006</ele>
                <time>2009-05-30T06:48:04Z</time>
            </trkpt>
            <trkpt lon="101.051896" lat="14.429779">
                <ele>85.694580</ele>
                <time>2009-05-30T06:48:11Z</time>
            </trkpt>
            <trkpt lon="101.051788" lat="14.429675">
                <ele>82.810791</ele>
                <time>2009-05-30T06:48:21Z</time>
            </trkpt>
            <trkpt lon="101.051791" lat="14.429656">
                <ele>81.849365</ele>
                <time>2009-05-30T06:48:30Z</time>
            </trkpt>
            <trkpt lon="101.051767" lat="14.429603">
                <ele>80.888184</ele>
                <time>2009-05-30T06:48:34Z</time>
            </trkpt>
            <trkpt lon="101.051609" lat="14.429444">
                <ele>78.484741</ele>
                <time>2009-05-30T06:48:50Z</time>
            </trkpt>
            <trkpt lon="101.051519" lat="14.429406">
                <ele>79.446045</ele>
                <time>2009-05-30T06:49:02Z</time>
            </trkpt>
            <trkpt lon="101.051493" lat="14.429401">
                <ele>79.446045</ele>
                <time>2009-05-30T06:49:05Z</time>
            </trkpt>
            <trkpt lon="101.051448" lat="14.429396">
                <ele>79.926636</ele>
                <time>2009-05-30T06:49:09Z</time>
            </trkpt>
            <trkpt lon="101.051306" lat="14.429327">
                <ele>79.926636</ele>
                <time>2009-05-30T06:49:23Z</time>
            </trkpt>
            <trkpt lon="101.051234" lat="14.429338">
                <ele>79.926636</ele>
                <time>2009-05-30T06:49:39Z</time>
            </trkpt>
            <trkpt lon="101.051225" lat="14.429279">
                <ele>79.446045</ele>
                <time>2009-05-30T06:49:56Z</time>
            </trkpt>
            <trkpt lon="101.051242" lat="14.429223">
                <ele>79.446045</ele>
                <time>2009-05-30T06:50:07Z</time>
            </trkpt>
            <trkpt lon="101.051156" lat="14.429086">
                <ele>79.446045</ele>
                <time>2009-05-30T06:50:27Z</time>
            </trkpt>
            <trkpt lon="101.051165" lat="14.429042">
                <ele>79.926636</ele>
                <time>2009-05-30T06:50:33Z</time>
            </trkpt>
            <trkpt lon="101.051171" lat="14.428995">
                <ele>80.407471</ele>
                <time>2009-05-30T06:50:44Z</time>
            </trkpt>
            <trkpt lon="101.051063" lat="14.428878">
                <ele>80.888184</ele>
                <time>2009-05-30T06:50:59Z</time>
            </trkpt>
            <trkpt lon="101.050970" lat="14.428862">
                <ele>81.368774</ele>
                <time>2009-05-30T06:51:10Z</time>
            </trkpt>
            <trkpt lon="101.050923" lat="14.428838">
                <ele>81.849365</ele>
                <time>2009-05-30T06:51:17Z</time>
            </trkpt>
            <trkpt lon="101.050835" lat="14.428764">
                <ele>82.330078</ele>
                <time>2009-05-30T06:51:32Z</time>
            </trkpt>
            <trkpt lon="101.050611" lat="14.428588">
                <ele>81.368774</ele>
                <time>2009-05-30T06:51:46Z</time>
            </trkpt>
            <trkpt lon="101.050418" lat="14.428516">
                <ele>80.888184</ele>
                <time>2009-05-30T06:51:56Z</time>
            </trkpt>
            <trkpt lon="101.050489" lat="14.428404">
                <ele>81.368774</ele>
                <time>2009-05-30T06:52:05Z</time>
            </trkpt>
            <trkpt lon="101.050775" lat="14.428187">
                <ele>81.368774</ele>
                <time>2009-05-30T06:52:23Z</time>
            </trkpt>
            <trkpt lon="101.051018" lat="14.428051">
                <ele>81.368774</ele>
                <time>2009-05-30T06:52:38Z</time>
            </trkpt>
            <trkpt lon="101.051225" lat="14.427884">
                <ele>82.330078</ele>
                <time>2009-05-30T06:52:54Z</time>
            </trkpt>
            <trkpt lon="101.051482" lat="14.427794">
                <ele>83.291382</ele>
                <time>2009-05-30T06:53:09Z</time>
            </trkpt>
            <trkpt lon="101.051716" lat="14.427737">
                <ele>84.252685</ele>
                <time>2009-05-30T06:53:24Z</time>
            </trkpt>
            <trkpt lon="101.051754" lat="14.427722">
                <ele>84.252685</ele>
                <time>2009-05-30T06:53:27Z</time>
            </trkpt>
            <trkpt lon="101.051963" lat="14.427491">
                <ele>85.694580</ele>
                <time>2009-05-30T06:53:42Z</time>
            </trkpt>
            <trkpt lon="101.052332" lat="14.427269">
                <ele>86.175293</ele>
                <time>2009-05-30T06:53:58Z</time>
            </trkpt>
            <trkpt lon="101.052792" lat="14.427093">
                <ele>88.578735</ele>
                <time>2009-05-30T06:54:16Z</time>
            </trkpt>
            <trkpt lon="101.053032" lat="14.426901">
                <ele>89.539917</ele>
                <time>2009-05-30T06:54:29Z</time>
            </trkpt>
            <trkpt lon="101.053239" lat="14.426729">
                <ele>90.981934</ele>
                <time>2009-05-30T06:54:45Z</time>
            </trkpt>
            <trkpt lon="101.053337" lat="14.426660">
                <ele>91.462524</ele>
                <time>2009-05-30T06:54:56Z</time>
            </trkpt>
            <trkpt lon="101.053521" lat="14.426545">
                <ele>92.423950</ele>
                <time>2009-05-30T06:55:11Z</time>
            </trkpt>
            <trkpt lon="101.053692" lat="14.426371">
                <ele>92.904541</ele>
                <time>2009-05-30T06:55:27Z</time>
            </trkpt>
            <trkpt lon="101.053808" lat="14.426221">
                <ele>93.385132</ele>
                <time>2009-05-30T06:55:40Z</time>
            </trkpt>
            <trkpt lon="101.053921" lat="14.426060">
                <ele>93.385132</ele>
                <time>2009-05-30T06:55:54Z</time>
            </trkpt>
            <trkpt lon="101.054063" lat="14.425915">
                <ele>93.385132</ele>
                <time>2009-05-30T06:56:09Z</time>
            </trkpt>
            <trkpt lon="101.054168" lat="14.425840">
                <ele>94.827148</ele>
                <time>2009-05-30T06:56:22Z</time>
            </trkpt>
            <trkpt lon="101.054198" lat="14.425704">
                <ele>95.788452</ele>
                <time>2009-05-30T06:56:34Z</time>
            </trkpt>
            <trkpt lon="101.054217" lat="14.425567">
                <ele>96.269287</ele>
                <time>2009-05-30T06:56:51Z</time>
            </trkpt>
            <trkpt lon="101.054255" lat="14.425507">
                <ele>98.191895</ele>
                <time>2009-05-30T06:57:02Z</time>
            </trkpt>
            <trkpt lon="101.054259" lat="14.425487">
                <ele>97.711182</ele>
                <time>2009-05-30T06:57:04Z</time>
            </trkpt>
            <trkpt lon="101.054325" lat="14.425324">
                <ele>101.556397</ele>
                <time>2009-05-30T06:57:23Z</time>
            </trkpt>
            <trkpt lon="101.054349" lat="14.425210">
                <ele>102.998291</ele>
                <time>2009-05-30T06:57:38Z</time>
            </trkpt>
            <trkpt lon="101.054352" lat="14.425154">
                <ele>102.998291</ele>
                <time>2009-05-30T06:57:46Z</time>
            </trkpt>
            <trkpt lon="101.054226" lat="14.424961">
                <ele>101.075684</ele>
                <time>2009-05-30T06:57:59Z</time>
            </trkpt>
            <trkpt lon="101.054212" lat="14.424885">
                <ele>100.114502</ele>
                <time>2009-05-30T06:58:03Z</time>
            </trkpt>
            <trkpt lon="101.054174" lat="14.424852">
                <ele>99.633789</ele>
                <time>2009-05-30T06:58:06Z</time>
            </trkpt>
            <trkpt lon="101.054132" lat="14.424809">
                <ele>99.153076</ele>
                <time>2009-05-30T06:58:10Z</time>
            </trkpt>
            <trkpt lon="101.053985" lat="14.424677">
                <ele>100.114502</ele>
                <time>2009-05-30T06:58:22Z</time>
            </trkpt>
            <trkpt lon="101.053803" lat="14.424850">
                <ele>97.230469</ele>
                <time>2009-05-30T06:58:35Z</time>
            </trkpt>
            <trkpt lon="101.053699" lat="14.425089">
                <ele>96.749878</ele>
                <time>2009-05-30T06:58:51Z</time>
            </trkpt>
            <trkpt lon="101.053578" lat="14.425291">
                <ele>99.633789</ele>
                <time>2009-05-30T06:59:04Z</time>
            </trkpt>
            <trkpt lon="101.053422" lat="14.425525">
                <ele>98.191895</ele>
                <time>2009-05-30T06:59:18Z</time>
            </trkpt>
            <trkpt lon="101.053291" lat="14.425805">
                <ele>98.672485</ele>
                <time>2009-05-30T06:59:35Z</time>
            </trkpt>
            <trkpt lon="101.053102" lat="14.426058">
                <ele>98.672485</ele>
                <time>2009-05-30T06:59:47Z</time>
            </trkpt>
            <trkpt lon="101.052880" lat="14.426261">
                <ele>96.269287</ele>
                <time>2009-05-30T07:00:01Z</time>
            </trkpt>
            <trkpt lon="101.052668" lat="14.426463">
                <ele>96.269287</ele>
                <time>2009-05-30T07:00:12Z</time>
            </trkpt>
            <trkpt lon="101.052451" lat="14.426638">
                <ele>94.346558</ele>
                <time>2009-05-30T07:00:22Z</time>
            </trkpt>
            <trkpt lon="101.052150" lat="14.426831">
                <ele>93.385132</ele>
                <time>2009-05-30T07:00:36Z</time>
            </trkpt>
            <trkpt lon="101.051814" lat="14.426947">
                <ele>94.346558</ele>
                <time>2009-05-30T07:00:48Z</time>
            </trkpt>
            <trkpt lon="101.051487" lat="14.427183">
                <ele>90.981934</ele>
                <time>2009-05-30T07:01:00Z</time>
            </trkpt>
            <trkpt lon="101.051279" lat="14.427325">
                <ele>89.059326</ele>
                <time>2009-05-30T07:01:11Z</time>
            </trkpt>
            <trkpt lon="101.050974" lat="14.427405">
                <ele>89.539917</ele>
                <time>2009-05-30T07:01:23Z</time>
            </trkpt>
            <trkpt lon="101.050674" lat="14.427612">
                <ele>88.578735</ele>
                <time>2009-05-30T07:01:34Z</time>
            </trkpt>
            <trkpt lon="101.050389" lat="14.427702">
                <ele>87.136597</ele>
                <time>2009-05-30T07:01:47Z</time>
            </trkpt>
            <trkpt lon="101.050151" lat="14.427741">
                <ele>89.059326</ele>
                <time>2009-05-30T07:02:00Z</time>
            </trkpt>
            <trkpt lon="101.049955" lat="14.427695">
                <ele>90.981934</ele>
                <time>2009-05-30T07:02:14Z</time>
            </trkpt>
            <trkpt lon="101.049739" lat="14.427624">
                <ele>92.423950</ele>
                <time>2009-05-30T07:02:31Z</time>
            </trkpt>
            <trkpt lon="101.049582" lat="14.427713">
                <ele>90.501343</ele>
                <time>2009-05-30T07:02:38Z</time>
            </trkpt>
            <trkpt lon="101.049160" lat="14.428372">
                <ele>85.213989</ele>
                <time>2009-05-30T07:02:50Z</time>
            </trkpt>
            <trkpt lon="101.048753" lat="14.428955">
                <ele>80.407471</ele>
                <time>2009-05-30T07:03:02Z</time>
            </trkpt>
            <trkpt lon="101.048393" lat="14.429464">
                <ele>78.004028</ele>
                <time>2009-05-30T07:03:14Z</time>
            </trkpt>
            <trkpt lon="101.048297" lat="14.429564">
                <ele>78.004028</ele>
                <time>2009-05-30T07:03:17Z</time>
            </trkpt>
            <trkpt lon="101.048087" lat="14.429835">
                <ele>78.965454</ele>
                <time>2009-05-30T07:03:26Z</time>
            </trkpt>
            <trkpt lon="101.047988" lat="14.429820">
                <ele>77.523438</ele>
                <time>2009-05-30T07:03:31Z</time>
            </trkpt>
            <trkpt lon="101.047903" lat="14.429792">
                <ele>77.042847</ele>
                <time>2009-05-30T07:03:36Z</time>
            </trkpt>
            <trkpt lon="101.047806" lat="14.429758">
                <ele>74.639526</ele>
                <time>2009-05-30T07:03:43Z</time>
            </trkpt>
            <trkpt lon="101.047740" lat="14.429777">
                <ele>72.716919</ele>
                <time>2009-05-30T07:03:47Z</time>
            </trkpt>
            <trkpt lon="101.047712" lat="14.429798">
                <ele>73.197632</ele>
                <time>2009-05-30T07:03:59Z</time>
            </trkpt>
            <trkpt lon="101.047707" lat="14.429806">
                <ele>72.236206</ele>
                <time>2009-05-30T07:04:15Z</time>
            </trkpt>
            <trkpt lon="101.047694" lat="14.429904">
                <ele>70.794190</ele>
                <time>2009-05-30T07:04:22Z</time>
            </trkpt>
            <trkpt lon="101.047638" lat="14.429952">
                <ele>68.871582</ele>
                <time>2009-05-30T07:04:35Z</time>
            </trkpt>
            <trkpt lon="101.047608" lat="14.429968">
                <ele>73.678223</ele>
                <time>2009-05-30T07:04:57Z</time>
            </trkpt>
            <trkpt lon="101.047574" lat="14.429980">
                <ele>73.678223</ele>
                <time>2009-05-30T07:05:45Z</time>
            </trkpt>
            <trkpt lon="101.047575" lat="14.429997">
                <ele>83.771973</ele>
                <time>2009-05-30T07:06:07Z</time>
            </trkpt>
            <trkpt lon="101.047494" lat="14.430035">
                <ele>80.888184</ele>
                <time>2009-05-30T07:06:40Z</time>
            </trkpt>
            <trkpt lon="101.047357" lat="14.430129">
                <ele>78.965454</ele>
                <time>2009-05-30T07:06:54Z</time>
            </trkpt>
            <trkpt lon="101.047289" lat="14.430162">
                <ele>77.523438</ele>
                <time>2009-05-30T07:06:58Z</time>
            </trkpt>
            <trkpt lon="101.047113" lat="14.430275">
                <ele>72.716919</ele>
                <time>2009-05-30T07:07:07Z</time>
            </trkpt>
            <trkpt lon="101.046723" lat="14.430480">
                <ele>69.832886</ele>
                <time>2009-05-30T07:07:22Z</time>
            </trkpt>
            <trkpt lon="101.046448" lat="14.430680">
                <ele>62.142334</ele>
                <time>2009-05-30T07:07:32Z</time>
            </trkpt>
            <trkpt lon="101.046258" lat="14.430813">
                <ele>58.297119</ele>
                <time>2009-05-30T07:07:42Z</time>
            </trkpt>
            <trkpt lon="101.046060" lat="14.431027">
                <ele>60.219727</ele>
                <time>2009-05-30T07:07:52Z</time>
            </trkpt>
            <trkpt lon="101.045840" lat="14.431248">
                <ele>62.622925</ele>
                <time>2009-05-30T07:08:04Z</time>
            </trkpt>
            <trkpt lon="101.045521" lat="14.431338">
                <ele>64.545654</ele>
                <time>2009-05-30T07:08:18Z</time>
            </trkpt>
            <trkpt lon="101.045330" lat="14.431355">
                <ele>67.429688</ele>
                <time>2009-05-30T07:08:30Z</time>
            </trkpt>
            <trkpt lon="101.044996" lat="14.431408">
                <ele>64.065063</ele>
                <time>2009-05-30T07:08:46Z</time>
            </trkpt>
            <trkpt lon="101.044750" lat="14.431470">
                <ele>65.026367</ele>
                <time>2009-05-30T07:08:57Z</time>
            </trkpt>
            <trkpt lon="101.044740" lat="14.431493">
                <ele>65.507080</ele>
                <time>2009-05-30T07:08:59Z</time>
            </trkpt>
            <trkpt lon="101.044715" lat="14.431842">
                <ele>65.026367</ele>
                <time>2009-05-30T07:09:13Z</time>
            </trkpt>
            <trkpt lon="101.044674" lat="14.432249">
                <ele>63.584351</ele>
                <time>2009-05-30T07:09:25Z</time>
            </trkpt>
            <trkpt lon="101.044685" lat="14.432583">
                <ele>65.507080</ele>
                <time>2009-05-30T07:09:40Z</time>
            </trkpt>
            <trkpt lon="101.044714" lat="14.432781">
                <ele>65.987671</ele>
                <time>2009-05-30T07:09:57Z</time>
            </trkpt>
            <trkpt lon="101.044753" lat="14.432901">
                <ele>65.507080</ele>
                <time>2009-05-30T07:10:11Z</time>
            </trkpt>
            <trkpt lon="101.044763" lat="14.432935">
                <ele>66.948975</ele>
                <time>2009-05-30T07:10:22Z</time>
            </trkpt>
            <trkpt lon="101.044770" lat="14.432965">
                <ele>71.274902</ele>
                <time>2009-05-30T07:10:47Z</time>
            </trkpt>
            <trkpt lon="101.044770" lat="14.432994">
                <ele>73.678223</ele>
                <time>2009-05-30T07:11:17Z</time>
            </trkpt>
            <trkpt lon="101.044767" lat="14.433016">
                <ele>74.158813</ele>
                <time>2009-05-30T07:11:41Z</time>
            </trkpt>
            <trkpt lon="101.044737" lat="14.433025">
                <ele>72.716919</ele>
                <time>2009-05-30T07:11:58Z</time>
            </trkpt>
            <trkpt lon="101.044667" lat="14.433044">
                <ele>64.545654</ele>
                <time>2009-05-30T07:12:15Z</time>
            </trkpt>
            <trkpt lon="101.044638" lat="14.433163">
                <ele>65.987671</ele>
                <time>2009-05-30T07:12:28Z</time>
            </trkpt>
            <trkpt lon="101.044610" lat="14.433219">
                <ele>65.026367</ele>
                <time>2009-05-30T07:12:35Z</time>
            </trkpt>
            <trkpt lon="101.044570" lat="14.433246">
                <ele>64.065063</ele>
                <time>2009-05-30T07:12:39Z</time>
            </trkpt>
            <trkpt lon="101.044515" lat="14.433361">
                <ele>65.026367</ele>
                <time>2009-05-30T07:12:50Z</time>
            </trkpt>
            <trkpt lon="101.044488" lat="14.433381">
                <ele>65.987671</ele>
                <time>2009-05-30T07:12:53Z</time>
            </trkpt>
            <trkpt lon="101.044458" lat="14.433382">
                <ele>65.987671</ele>
                <time>2009-05-30T07:12:56Z</time>
            </trkpt>
            <trkpt lon="101.044377" lat="14.433291">
                <ele>67.910278</ele>
                <time>2009-05-30T07:13:08Z</time>
            </trkpt>
            <trkpt lon="101.044280" lat="14.433223">
                <ele>64.545654</ele>
                <time>2009-05-30T07:13:24Z</time>
            </trkpt>
            <trkpt lon="101.044264" lat="14.433242">
                <ele>67.429688</ele>
                <time>2009-05-30T07:13:32Z</time>
            </trkpt>
            <trkpt lon="101.044183" lat="14.433390">
                <ele>67.429688</ele>
                <time>2009-05-30T07:13:50Z</time>
            </trkpt>
            <trkpt lon="101.044131" lat="14.433470">
                <ele>68.390869</ele>
                <time>2009-05-30T07:13:58Z</time>
            </trkpt>
            <trkpt lon="101.043982" lat="14.433681">
                <ele>68.871582</ele>
                <time>2009-05-30T07:14:20Z</time>
            </trkpt>
            <trkpt lon="101.043809" lat="14.433859">
                <ele>66.468262</ele>
                <time>2009-05-30T07:14:41Z</time>
            </trkpt>
            <trkpt lon="101.043635" lat="14.434023">
                <ele>65.507080</ele>
                <time>2009-05-30T07:14:54Z</time>
            </trkpt>
            <trkpt lon="101.043347" lat="14.434251">
                <ele>63.584351</ele>
                <time>2009-05-30T07:15:13Z</time>
            </trkpt>
            <trkpt lon="101.043286" lat="14.434285">
                <ele>64.065063</ele>
                <time>2009-05-30T07:15:23Z</time>
            </trkpt>
            <trkpt lon="101.043188" lat="14.434315">
                <ele>63.103638</ele>
                <time>2009-05-30T07:15:34Z</time>
            </trkpt>
            <trkpt lon="101.043056" lat="14.434317">
                <ele>64.065063</ele>
                <time>2009-05-30T07:15:47Z</time>
            </trkpt>
            <trkpt lon="101.043018" lat="14.434321">
                <ele>64.065063</ele>
                <time>2009-05-30T07:15:50Z</time>
            </trkpt>
            <trkpt lon="101.042964" lat="14.434313">
                <ele>65.026367</ele>
                <time>2009-05-30T07:15:54Z</time>
            </trkpt>
            <trkpt lon="101.042789" lat="14.434339">
                <ele>66.468262</ele>
                <time>2009-05-30T07:16:06Z</time>
            </trkpt>
            <trkpt lon="101.042546" lat="14.434296">
                <ele>65.507080</ele>
                <time>2009-05-30T07:16:18Z</time>
            </trkpt>
            <trkpt lon="101.042349" lat="14.434269">
                <ele>66.948975</ele>
                <time>2009-05-30T07:16:31Z</time>
            </trkpt>
            <trkpt lon="101.042168" lat="14.434230">
                <ele>65.507080</ele>
                <time>2009-05-30T07:16:43Z</time>
            </trkpt>
            <trkpt lon="101.041759" lat="14.434161">
                <ele>65.507080</ele>
                <time>2009-05-30T07:16:59Z</time>
            </trkpt>
            <trkpt lon="101.041490" lat="14.434114">
                <ele>64.065063</ele>
                <time>2009-05-30T07:17:15Z</time>
            </trkpt>
            <trkpt lon="101.041401" lat="14.434098">
                <ele>63.584351</ele>
                <time>2009-05-30T07:17:24Z</time>
            </trkpt>
            <trkpt lon="101.041357" lat="14.434091">
                <ele>63.584351</ele>
                <time>2009-05-30T07:17:30Z</time>
            </trkpt>
            <trkpt lon="101.041249" lat="14.434076">
                <ele>63.584351</ele>
                <time>2009-05-30T07:17:43Z</time>
            </trkpt>
            <trkpt lon="101.041134" lat="14.434069">
                <ele>64.065063</ele>
                <time>2009-05-30T07:17:56Z</time>
            </trkpt>
            <trkpt lon="101.041014" lat="14.434058">
                <ele>64.545654</ele>
                <time>2009-05-30T07:18:08Z</time>
            </trkpt>
            <trkpt lon="101.040829" lat="14.434094">
                <ele>64.545654</ele>
                <time>2009-05-30T07:18:20Z</time>
            </trkpt>
            <trkpt lon="101.040751" lat="14.434110">
                <ele>64.545654</ele>
                <time>2009-05-30T07:18:31Z</time>
            </trkpt>
            <trkpt lon="101.040643" lat="14.434167">
                <ele>65.507080</ele>
                <time>2009-05-30T07:18:47Z</time>
            </trkpt>
            <trkpt lon="101.040466" lat="14.434243">
                <ele>66.468262</ele>
                <time>2009-05-30T07:19:05Z</time>
            </trkpt>
            <trkpt lon="101.040351" lat="14.434287">
                <ele>66.468262</ele>
                <time>2009-05-30T07:19:19Z</time>
            </trkpt>
            <trkpt lon="101.040317" lat="14.434303">
                <ele>68.390869</ele>
                <time>2009-05-30T07:19:32Z</time>
            </trkpt>
            <trkpt lon="101.040223" lat="14.434322">
                <ele>67.910278</ele>
                <time>2009-05-30T07:19:48Z</time>
            </trkpt>
            <trkpt lon="101.040173" lat="14.434332">
                <ele>67.910278</ele>
                <time>2009-05-30T07:20:02Z</time>
            </trkpt>
            <trkpt lon="101.040113" lat="14.434359">
                <ele>66.948975</ele>
                <time>2009-05-30T07:20:17Z</time>
            </trkpt>
            <trkpt lon="101.040082" lat="14.434381">
                <ele>68.390869</ele>
                <time>2009-05-30T07:20:33Z</time>
            </trkpt>
            <trkpt lon="101.040017" lat="14.434397">
                <ele>68.390869</ele>
                <time>2009-05-30T07:20:50Z</time>
            </trkpt>
            <trkpt lon="101.039941" lat="14.434401">
                <ele>66.948975</ele>
                <time>2009-05-30T07:21:03Z</time>
            </trkpt>
            <trkpt lon="101.039865" lat="14.434452">
                <ele>64.545654</ele>
                <time>2009-05-30T07:21:10Z</time>
            </trkpt>
            <trkpt lon="101.039658" lat="14.434537">
                <ele>62.622925</ele>
                <time>2009-05-30T07:21:22Z</time>
            </trkpt>
            <trkpt lon="101.039424" lat="14.434626">
                <ele>64.545654</ele>
                <time>2009-05-30T07:21:36Z</time>
            </trkpt>
            <trkpt lon="101.039337" lat="14.434662">
                <ele>65.026367</ele>
                <time>2009-05-30T07:21:42Z</time>
            </trkpt>
            <trkpt lon="101.039183" lat="14.434717">
                <ele>65.026367</ele>
                <time>2009-05-30T07:21:56Z</time>
            </trkpt>
            <trkpt lon="101.039131" lat="14.434735">
                <ele>65.507080</ele>
                <time>2009-05-30T07:22:10Z</time>
            </trkpt>
            <trkpt lon="101.039068" lat="14.434757">
                <ele>66.468262</ele>
                <time>2009-05-30T07:22:26Z</time>
            </trkpt>
            <trkpt lon="101.038989" lat="14.434791">
                <ele>66.948975</ele>
                <time>2009-05-30T07:22:58Z</time>
            </trkpt>
            <trkpt lon="101.038961" lat="14.434807">
                <ele>67.429688</ele>
                <time>2009-05-30T07:23:02Z</time>
            </trkpt>
            <trkpt lon="101.038737" lat="14.434867">
                <ele>61.661743</ele>
                <time>2009-05-30T07:23:16Z</time>
            </trkpt>
            <trkpt lon="101.038485" lat="14.434941">
                <ele>61.181030</ele>
                <time>2009-05-30T07:23:26Z</time>
            </trkpt>
            <trkpt lon="101.038159" lat="14.435059">
                <ele>63.103638</ele>
                <time>2009-05-30T07:23:38Z</time>
            </trkpt>
            <trkpt lon="101.037844" lat="14.435165">
                <ele>65.507080</ele>
                <time>2009-05-30T07:23:54Z</time>
            </trkpt>
            <trkpt lon="101.037581" lat="14.435235">
                <ele>64.065063</ele>
                <time>2009-05-30T07:24:07Z</time>
            </trkpt>
            <trkpt lon="101.037342" lat="14.435292">
                <ele>64.545654</ele>
                <time>2009-05-30T07:24:21Z</time>
            </trkpt>
            <trkpt lon="101.037082" lat="14.435363">
                <ele>62.142334</ele>
                <time>2009-05-30T07:24:38Z</time>
            </trkpt>
            <trkpt lon="101.037065" lat="14.435370">
                <ele>61.661743</ele>
                <time>2009-05-30T07:24:39Z</time>
            </trkpt>
            <trkpt lon="101.036794" lat="14.435424">
                <ele>55.893799</ele>
                <time>2009-05-30T07:24:51Z</time>
            </trkpt>
            <trkpt lon="101.036437" lat="14.435478">
                <ele>57.816528</ele>
                <time>2009-05-30T07:25:04Z</time>
            </trkpt>
            <trkpt lon="101.036099" lat="14.435521">
                <ele>60.700317</ele>
                <time>2009-05-30T07:25:17Z</time>
            </trkpt>
            <trkpt lon="101.035571" lat="14.435613">
                <ele>57.816528</ele>
                <time>2009-05-30T07:25:48Z</time>
            </trkpt>
            <trkpt lon="101.035735" lat="14.435581">
                <ele>58.777710</ele>
                <time>2009-05-30T07:25:51Z</time>
            </trkpt>
            <trkpt lon="101.035350" lat="14.435699">
                <ele>55.893799</ele>
                <time>2009-05-30T07:26:01Z</time>
            </trkpt>
            <trkpt lon="101.035024" lat="14.435831">
                <ele>61.181030</ele>
                <time>2009-05-30T07:26:13Z</time>
            </trkpt>
            <trkpt lon="101.034631" lat="14.435959">
                <ele>63.103638</ele>
                <time>2009-05-30T07:26:25Z</time>
            </trkpt>
            <trkpt lon="101.034337" lat="14.436101">
                <ele>62.142334</ele>
                <time>2009-05-30T07:26:35Z</time>
            </trkpt>
            <trkpt lon="101.034196" lat="14.436197">
                <ele>61.661743</ele>
                <time>2009-05-30T07:26:46Z</time>
            </trkpt>
            <trkpt lon="101.034155" lat="14.436216">
                <ele>62.142334</ele>
                <time>2009-05-30T07:27:05Z</time>
            </trkpt>
            <trkpt lon="101.034017" lat="14.436287">
                <ele>61.181030</ele>
                <time>2009-05-30T07:27:16Z</time>
            </trkpt>
            <trkpt lon="101.033681" lat="14.436493">
                <ele>59.258423</ele>
                <time>2009-05-30T07:27:28Z</time>
            </trkpt>
            <trkpt lon="101.033421" lat="14.436660">
                <ele>54.451782</ele>
                <time>2009-05-30T07:27:40Z</time>
            </trkpt>
            <trkpt lon="101.033143" lat="14.436851">
                <ele>52.529175</ele>
                <time>2009-05-30T07:27:52Z</time>
            </trkpt>
            <trkpt lon="101.032993" lat="14.437114">
                <ele>51.567871</ele>
                <time>2009-05-30T07:28:02Z</time>
            </trkpt>
            <trkpt lon="101.033035" lat="14.437478">
                <ele>56.855103</ele>
                <time>2009-05-30T07:28:15Z</time>
            </trkpt>
            <trkpt lon="101.033165" lat="14.437873">
                <ele>56.374512</ele>
                <time>2009-05-30T07:28:27Z</time>
            </trkpt>
            <trkpt lon="101.033256" lat="14.438289">
                <ele>56.374512</ele>
                <time>2009-05-30T07:28:39Z</time>
            </trkpt>
            <trkpt lon="101.033248" lat="14.438619">
                <ele>55.413086</ele>
                <time>2009-05-30T07:28:50Z</time>
            </trkpt>
            <trkpt lon="101.033296" lat="14.438929">
                <ele>54.932373</ele>
                <time>2009-05-30T07:29:00Z</time>
            </trkpt>
            <trkpt lon="101.033350" lat="14.439077">
                <ele>55.413086</ele>
                <time>2009-05-30T07:29:11Z</time>
            </trkpt>
            <trkpt lon="101.033358" lat="14.439075">
                <ele>55.413086</ele>
                <time>2009-05-30T07:29:32Z</time>
            </trkpt>
            <trkpt lon="101.033357" lat="14.439075">
                <ele>56.374512</ele>
                <time>2009-05-30T07:30:02Z</time>
            </trkpt>
            <trkpt lon="101.033372" lat="14.439108">
                <ele>57.335815</ele>
                <time>2009-05-30T07:30:32Z</time>
            </trkpt>
            <trkpt lon="101.033376" lat="14.439118">
                <ele>58.297119</ele>
                <time>2009-05-30T07:30:50Z</time>
            </trkpt>
            <trkpt lon="101.033381" lat="14.439114">
                <ele>58.777710</ele>
                <time>2009-05-30T07:32:13Z</time>
            </trkpt>
            <trkpt lon="101.033384" lat="14.439120">
                <ele>59.258423</ele>
                <time>2009-05-30T07:32:39Z</time>
            </trkpt>
            <trkpt lon="101.033357" lat="14.439210">
                <ele>56.855103</ele>
                <time>2009-05-30T07:32:55Z</time>
            </trkpt>
            <trkpt lon="101.033290" lat="14.439240">
                <ele>56.374512</ele>
                <time>2009-05-30T07:33:07Z</time>
            </trkpt>
            <trkpt lon="101.032921" lat="14.439278">
                <ele>55.413086</ele>
                <time>2009-05-30T07:33:22Z</time>
            </trkpt>
            <trkpt lon="101.032694" lat="14.439313">
                <ele>54.932373</ele>
                <time>2009-05-30T07:33:34Z</time>
            </trkpt>
            <trkpt lon="101.032690" lat="14.439323">
                <ele>57.816528</ele>
                <time>2009-05-30T07:33:41Z</time>
            </trkpt>
            <trkpt lon="101.032659" lat="14.439665">
                <ele>59.258423</ele>
                <time>2009-05-30T07:33:53Z</time>
            </trkpt>
            <trkpt lon="101.032664" lat="14.439955">
                <ele>57.335815</ele>
                <time>2009-05-30T07:34:01Z</time>
            </trkpt>
            <trkpt lon="101.032430" lat="14.440045">
                <ele>55.413086</ele>
                <time>2009-05-30T07:34:10Z</time>
            </trkpt>
            <trkpt lon="101.032131" lat="14.439963">
                <ele>54.451782</ele>
                <time>2009-05-30T07:34:22Z</time>
            </trkpt>
            <trkpt lon="101.031725" lat="14.439992">
                <ele>53.971191</ele>
                <time>2009-05-30T07:34:38Z</time>
            </trkpt>
            <trkpt lon="101.031357" lat="14.440028">
                <ele>53.490479</ele>
                <time>2009-05-30T07:34:53Z</time>
            </trkpt>
            <trkpt lon="101.031070" lat="14.440051">
                <ele>53.009766</ele>
                <time>2009-05-30T07:35:07Z</time>
            </trkpt>
            <trkpt lon="101.031021" lat="14.440037">
                <ele>53.009766</ele>
                <time>2009-05-30T07:35:10Z</time>
            </trkpt>
            <trkpt lon="101.030997" lat="14.439920">
                <ele>53.971191</ele>
                <time>2009-05-30T07:35:18Z</time>
            </trkpt>
            <trkpt lon="101.031029" lat="14.439799">
                <ele>54.932373</ele>
                <time>2009-05-30T07:35:31Z</time>
            </trkpt>
            <trkpt lon="101.031027" lat="14.439666">
                <ele>55.893799</ele>
                <time>2009-05-30T07:35:49Z</time>
            </trkpt>
            <trkpt lon="101.031024" lat="14.439633">
                <ele>55.893799</ele>
                <time>2009-05-30T07:35:57Z</time>
            </trkpt>
            <trkpt lon="101.031020" lat="14.439500">
                <ele>55.413086</ele>
                <time>2009-05-30T07:36:13Z</time>
            </trkpt>
            <trkpt lon="101.031002" lat="14.439447">
                <ele>54.932373</ele>
                <time>2009-05-30T07:36:20Z</time>
            </trkpt>
            <trkpt lon="101.030979" lat="14.439337">
                <ele>54.451782</ele>
                <time>2009-05-30T07:36:33Z</time>
            </trkpt>
            <trkpt lon="101.030960" lat="14.439239">
                <ele>53.971191</ele>
                <time>2009-05-30T07:36:42Z</time>
            </trkpt>
            <trkpt lon="101.030944" lat="14.439066">
                <ele>53.009766</ele>
                <time>2009-05-30T07:36:58Z</time>
            </trkpt>
            <trkpt lon="101.030967" lat="14.438918">
                <ele>53.009766</ele>
                <time>2009-05-30T07:37:15Z</time>
            </trkpt>
            <trkpt lon="101.030974" lat="14.438882">
                <ele>53.009766</ele>
                <time>2009-05-30T07:37:19Z</time>
            </trkpt>
            <trkpt lon="101.030951" lat="14.438640">
                <ele>52.529175</ele>
                <time>2009-05-30T07:37:43Z</time>
            </trkpt>
            <trkpt lon="101.030917" lat="14.438552">
                <ele>51.567871</ele>
                <time>2009-05-30T07:37:58Z</time>
            </trkpt>
            <trkpt lon="101.030868" lat="14.438543">
                <ele>50.606567</ele>
                <time>2009-05-30T07:38:05Z</time>
            </trkpt>
            <trkpt lon="101.030628" lat="14.438621">
                <ele>49.164551</ele>
                <time>2009-05-30T07:38:17Z</time>
            </trkpt>
            <trkpt lon="101.030205" lat="14.438708">
                <ele>45.799927</ele>
                <time>2009-05-30T07:38:30Z</time>
            </trkpt>
            <trkpt lon="101.029825" lat="14.438824">
                <ele>47.241821</ele>
                <time>2009-05-30T07:38:42Z</time>
            </trkpt>
            <trkpt lon="101.029432" lat="14.438903">
                <ele>49.164551</ele>
                <time>2009-05-30T07:38:57Z</time>
            </trkpt>
            <trkpt lon="101.028983" lat="14.438973">
                <ele>51.087158</ele>
                <time>2009-05-30T07:39:17Z</time>
            </trkpt>
            <trkpt lon="101.028643" lat="14.438999">
                <ele>53.009766</ele>
                <time>2009-05-30T07:39:29Z</time>
            </trkpt>
            <trkpt lon="101.028460" lat="14.438978">
                <ele>54.932373</ele>
                <time>2009-05-30T07:39:40Z</time>
            </trkpt>
            <trkpt lon="101.028221" lat="14.438796">
                <ele>56.374512</ele>
                <time>2009-05-30T07:39:53Z</time>
            </trkpt>
            <trkpt lon="101.028105" lat="14.438507">
                <ele>57.335815</ele>
                <time>2009-05-30T07:40:05Z</time>
            </trkpt>
            <trkpt lon="101.028083" lat="14.438163">
                <ele>58.297119</ele>
                <time>2009-05-30T07:40:17Z</time>
            </trkpt>
            <trkpt lon="101.028064" lat="14.437886">
                <ele>60.219727</ele>
                <time>2009-05-30T07:40:30Z</time>
            </trkpt>
            <trkpt lon="101.027999" lat="14.437547">
                <ele>63.584351</ele>
                <time>2009-05-30T07:40:46Z</time>
            </trkpt>
            <trkpt lon="101.027983" lat="14.437486">
                <ele>64.065063</ele>
                <time>2009-05-30T07:40:49Z</time>
            </trkpt>
            <trkpt lon="101.027689" lat="14.437371">
                <ele>61.181030</ele>
                <time>2009-05-30T07:41:01Z</time>
            </trkpt>
            <trkpt lon="101.027320" lat="14.437271">
                <ele>60.219727</ele>
                <time>2009-05-30T07:41:15Z</time>
            </trkpt>
            <trkpt lon="101.026903" lat="14.437176">
                <ele>58.777710</ele>
                <time>2009-05-30T07:41:29Z</time>
            </trkpt>
            <trkpt lon="101.026777" lat="14.437134">
                <ele>57.335815</ele>
                <time>2009-05-30T07:41:33Z</time>
            </trkpt>
            <trkpt lon="101.026602" lat="14.437112">
                <ele>56.855103</ele>
                <time>2009-05-30T07:41:37Z</time>
            </trkpt>
            <trkpt lon="101.026273" lat="14.437098">
                <ele>54.451782</ele>
                <time>2009-05-30T07:41:49Z</time>
            </trkpt>
            <trkpt lon="101.025966" lat="14.437155">
                <ele>55.413086</ele>
                <time>2009-05-30T07:41:59Z</time>
            </trkpt>
            <trkpt lon="101.025729" lat="14.437154">
                <ele>53.971191</ele>
                <time>2009-05-30T07:42:05Z</time>
            </trkpt>
            <trkpt lon="101.025116" lat="14.437131">
                <ele>52.529175</ele>
                <time>2009-05-30T07:42:20Z</time>
            </trkpt>
            <trkpt lon="101.024747" lat="14.437115">
                <ele>53.490479</ele>
                <time>2009-05-30T07:42:33Z</time>
            </trkpt>
            <trkpt lon="101.024332" lat="14.437088">
                <ele>53.490479</ele>
                <time>2009-05-30T07:42:45Z</time>
            </trkpt>
            <trkpt lon="101.024037" lat="14.437104">
                <ele>54.932373</ele>
                <time>2009-05-30T07:42:59Z</time>
            </trkpt>
            <trkpt lon="101.023605" lat="14.437055">
                <ele>54.451782</ele>
                <time>2009-05-30T07:43:17Z</time>
            </trkpt>
            <trkpt lon="101.023320" lat="14.436981">
                <ele>55.893799</ele>
                <time>2009-05-30T07:43:28Z</time>
            </trkpt>
            <trkpt lon="101.023001" lat="14.436927">
                <ele>57.335815</ele>
                <time>2009-05-30T07:43:40Z</time>
            </trkpt>
            <trkpt lon="101.022682" lat="14.436870">
                <ele>59.258423</ele>
                <time>2009-05-30T07:43:50Z</time>
            </trkpt>
            <trkpt lon="101.022192" lat="14.436800">
                <ele>56.855103</ele>
                <time>2009-05-30T07:44:03Z</time>
            </trkpt>
            <trkpt lon="101.021883" lat="14.436757">
                <ele>57.335815</ele>
                <time>2009-05-30T07:44:09Z</time>
            </trkpt>
            <trkpt lon="101.021313" lat="14.436668">
                <ele>55.413086</ele>
                <time>2009-05-30T07:44:21Z</time>
            </trkpt>
            <trkpt lon="101.020921" lat="14.436619">
                <ele>53.971191</ele>
                <time>2009-05-30T07:44:28Z</time>
            </trkpt>
            <trkpt lon="101.020353" lat="14.436608">
                <ele>53.971191</ele>
                <time>2009-05-30T07:44:41Z</time>
            </trkpt>
            <trkpt lon="101.019834" lat="14.436703">
                <ele>53.490479</ele>
                <time>2009-05-30T07:44:55Z</time>
            </trkpt>
            <trkpt lon="101.019350" lat="14.436836">
                <ele>52.529175</ele>
                <time>2009-05-30T07:45:07Z</time>
            </trkpt>
            <trkpt lon="101.018928" lat="14.436903">
                <ele>51.567871</ele>
                <time>2009-05-30T07:45:19Z</time>
            </trkpt>
            <trkpt lon="101.018603" lat="14.436879">
                <ele>53.009766</ele>
                <time>2009-05-30T07:45:33Z</time>
            </trkpt>
            <trkpt lon="101.018470" lat="14.436880">
                <ele>53.009766</ele>
                <time>2009-05-30T07:45:40Z</time>
            </trkpt>
            <trkpt lon="101.018402" lat="14.436868">
                <ele>53.490479</ele>
                <time>2009-05-30T07:45:44Z</time>
            </trkpt>
            <trkpt lon="101.018123" lat="14.436859">
                <ele>53.490479</ele>
                <time>2009-05-30T07:45:58Z</time>
            </trkpt>
            <trkpt lon="101.017768" lat="14.436820">
                <ele>52.529175</ele>
                <time>2009-05-30T07:46:12Z</time>
            </trkpt>
            <trkpt lon="101.017394" lat="14.436773">
                <ele>53.971191</ele>
                <time>2009-05-30T07:46:25Z</time>
            </trkpt>
            <trkpt lon="101.017049" lat="14.436636">
                <ele>55.893799</ele>
                <time>2009-05-30T07:46:40Z</time>
            </trkpt>
            <trkpt lon="101.016756" lat="14.436431">
                <ele>56.374512</ele>
                <time>2009-05-30T07:46:55Z</time>
            </trkpt>
            <trkpt lon="101.016448" lat="14.436214">
                <ele>57.335815</ele>
                <time>2009-05-30T07:47:10Z</time>
            </trkpt>
            <trkpt lon="101.016124" lat="14.436064">
                <ele>57.335815</ele>
                <time>2009-05-30T07:47:22Z</time>
            </trkpt>
            <trkpt lon="101.015637" lat="14.435909">
                <ele>56.374512</ele>
                <time>2009-05-30T07:47:35Z</time>
            </trkpt>
            <trkpt lon="101.014968" lat="14.435653">
                <ele>54.932373</ele>
                <time>2009-05-30T07:47:50Z</time>
            </trkpt>
            <trkpt lon="101.014544" lat="14.435491">
                <ele>56.374512</ele>
                <time>2009-05-30T07:48:03Z</time>
            </trkpt>
            <trkpt lon="101.014283" lat="14.435432">
                <ele>55.893799</ele>
                <time>2009-05-30T07:48:12Z</time>
            </trkpt>
            <trkpt lon="101.013759" lat="14.435455">
                <ele>56.374512</ele>
                <time>2009-05-30T07:48:26Z</time>
            </trkpt>
            <trkpt lon="101.013363" lat="14.435378">
                <ele>58.777710</ele>
                <time>2009-05-30T07:48:41Z</time>
            </trkpt>
            <trkpt lon="101.013072" lat="14.435484">
                <ele>61.661743</ele>
                <time>2009-05-30T07:48:55Z</time>
            </trkpt>
            <trkpt lon="101.012783" lat="14.435862">
                <ele>58.777710</ele>
                <time>2009-05-30T07:49:08Z</time>
            </trkpt>
            <trkpt lon="101.012555" lat="14.436182">
                <ele>56.855103</ele>
                <time>2009-05-30T07:49:16Z</time>
            </trkpt>
            <trkpt lon="101.012048" lat="14.436790">
                <ele>53.490479</ele>
                <time>2009-05-30T07:49:31Z</time>
            </trkpt>
            <trkpt lon="101.011626" lat="14.437301">
                <ele>52.048584</ele>
                <time>2009-05-30T07:49:45Z</time>
            </trkpt>
            <trkpt lon="101.011487" lat="14.437452">
                <ele>51.567871</ele>
                <time>2009-05-30T07:49:50Z</time>
            </trkpt>
            <trkpt lon="101.011238" lat="14.437618">
                <ele>50.606567</ele>
                <time>2009-05-30T07:49:57Z</time>
            </trkpt>
            <trkpt lon="101.011098" lat="14.437667">
                <ele>50.606567</ele>
                <time>2009-05-30T07:50:00Z</time>
            </trkpt>
            <trkpt lon="101.010218" lat="14.437936">
                <ele>51.087158</ele>
                <time>2009-05-30T07:50:18Z</time>
            </trkpt>
            <trkpt lon="101.009816" lat="14.438056">
                <ele>50.125977</ele>
                <time>2009-05-30T07:50:30Z</time>
            </trkpt>
            <trkpt lon="101.009674" lat="14.438100">
                <ele>50.125977</ele>
                <time>2009-05-30T07:50:33Z</time>
            </trkpt>
            <trkpt lon="101.008877" lat="14.438197">
                <ele>47.722534</ele>
                <time>2009-05-30T07:50:49Z</time>
            </trkpt>
            <trkpt lon="101.008165" lat="14.438170">
                <ele>45.319214</ele>
                <time>2009-05-30T07:51:02Z</time>
            </trkpt>
            <trkpt lon="101.008027" lat="14.438170">
                <ele>45.319214</ele>
                <time>2009-05-30T07:51:04Z</time>
            </trkpt>
            <trkpt lon="101.007671" lat="14.438127">
                <ele>44.358032</ele>
                <time>2009-05-30T07:51:09Z</time>
            </trkpt>
            <trkpt lon="101.007445" lat="14.437964">
                <ele>44.358032</ele>
                <time>2009-05-30T07:51:14Z</time>
            </trkpt>
            <trkpt lon="101.007405" lat="14.437791">
                <ele>44.358032</ele>
                <time>2009-05-30T07:51:17Z</time>
            </trkpt>
            <trkpt lon="101.007363" lat="14.437681">
                <ele>44.838623</ele>
                <time>2009-05-30T07:51:19Z</time>
            </trkpt>
            <trkpt lon="101.007075" lat="14.436913">
                <ele>46.280640</ele>
                <time>2009-05-30T07:51:33Z</time>
            </trkpt>
            <trkpt lon="101.006782" lat="14.436697">
                <ele>45.319214</ele>
                <time>2009-05-30T07:51:41Z</time>
            </trkpt>
            <trkpt lon="101.006600" lat="14.436755">
                <ele>44.838623</ele>
                <time>2009-05-30T07:51:44Z</time>
            </trkpt>
            <trkpt lon="101.006345" lat="14.436739">
                <ele>44.838623</ele>
                <time>2009-05-30T07:51:48Z</time>
            </trkpt>
            <trkpt lon="101.006046" lat="14.436700">
                <ele>45.319214</ele>
                <time>2009-05-30T07:51:53Z</time>
            </trkpt>
            <trkpt lon="101.004967" lat="14.436695">
                <ele>45.319214</ele>
                <time>2009-05-30T07:52:08Z</time>
            </trkpt>
            <trkpt lon="101.004945" lat="14.436784">
                <ele>46.761231</ele>
                <time>2009-05-30T07:52:20Z</time>
            </trkpt>
            <trkpt lon="101.004983" lat="14.436640">
                <ele>46.280640</ele>
                <time>2009-05-30T07:52:26Z</time>
            </trkpt>
            <trkpt lon="101.005147" lat="14.436292">
                <ele>47.241821</ele>
                <time>2009-05-30T07:52:42Z</time>
            </trkpt>
            <trkpt lon="101.005269" lat="14.436114">
                <ele>47.722534</ele>
                <time>2009-05-30T07:52:51Z</time>
            </trkpt>
            <trkpt lon="101.005384" lat="14.435773">
                <ele>48.203369</ele>
                <time>2009-05-30T07:53:03Z</time>
            </trkpt>
            <trkpt lon="101.005505" lat="14.435505">
                <ele>48.203369</ele>
                <time>2009-05-30T07:53:13Z</time>
            </trkpt>
            <trkpt lon="101.005661" lat="14.434966">
                <ele>49.164551</ele>
                <time>2009-05-30T07:53:28Z</time>
            </trkpt>
            <trkpt lon="101.005764" lat="14.434594">
                <ele>50.606567</ele>
                <time>2009-05-30T07:53:40Z</time>
            </trkpt>
            <trkpt lon="101.005820" lat="14.434002">
                <ele>51.567871</ele>
                <time>2009-05-30T07:53:55Z</time>
            </trkpt>
            <trkpt lon="101.005847" lat="14.433555">
                <ele>52.529175</ele>
                <time>2009-05-30T07:54:07Z</time>
            </trkpt>
            <trkpt lon="101.005872" lat="14.433134">
                <ele>52.529175</ele>
                <time>2009-05-30T07:54:17Z</time>
            </trkpt>
            <trkpt lon="101.005896" lat="14.432727">
                <ele>53.009766</ele>
                <time>2009-05-30T07:54:28Z</time>
            </trkpt>
            <trkpt lon="101.005906" lat="14.432558">
                <ele>53.009766</ele>
                <time>2009-05-30T07:54:32Z</time>
            </trkpt>
            <trkpt lon="101.005926" lat="14.432226">
                <ele>53.490479</ele>
                <time>2009-05-30T07:54:41Z</time>
            </trkpt>
            <trkpt lon="101.005953" lat="14.431776">
                <ele>53.971191</ele>
                <time>2009-05-30T07:54:53Z</time>
            </trkpt>
            <trkpt lon="101.005965" lat="14.431572">
                <ele>53.971191</ele>
                <time>2009-05-30T07:54:58Z</time>
            </trkpt>
            <trkpt lon="101.005997" lat="14.431038">
                <ele>53.971191</ele>
                <time>2009-05-30T07:55:12Z</time>
            </trkpt>
            <trkpt lon="101.006031" lat="14.430527">
                <ele>53.971191</ele>
                <time>2009-05-30T07:55:26Z</time>
            </trkpt>
            <trkpt lon="101.006162" lat="14.430100">
                <ele>55.413086</ele>
                <time>2009-05-30T07:55:41Z</time>
            </trkpt>
            <trkpt lon="101.006270" lat="14.429654">
                <ele>55.893799</ele>
                <time>2009-05-30T07:55:55Z</time>
            </trkpt>
            <trkpt lon="101.006384" lat="14.429131">
                <ele>55.893799</ele>
                <time>2009-05-30T07:56:09Z</time>
            </trkpt>
            <trkpt lon="101.006486" lat="14.428739">
                <ele>55.893799</ele>
                <time>2009-05-30T07:56:19Z</time>
            </trkpt>
            <trkpt lon="101.006534" lat="14.428572">
                <ele>55.893799</ele>
                <time>2009-05-30T07:56:23Z</time>
            </trkpt>
            <trkpt lon="101.006581" lat="14.428408">
                <ele>54.932373</ele>
                <time>2009-05-30T07:56:27Z</time>
            </trkpt>
            <trkpt lon="101.006620" lat="14.428272">
                <ele>54.932373</ele>
                <time>2009-05-30T07:56:30Z</time>
            </trkpt>
            <trkpt lon="101.006674" lat="14.428083">
                <ele>54.932373</ele>
                <time>2009-05-30T07:56:35Z</time>
            </trkpt>
            <trkpt lon="101.006715" lat="14.427939">
                <ele>54.932373</ele>
                <time>2009-05-30T07:56:39Z</time>
            </trkpt>
            <trkpt lon="101.006779" lat="14.427691">
                <ele>54.932373</ele>
                <time>2009-05-30T07:56:46Z</time>
            </trkpt>
            <trkpt lon="101.007709" lat="14.427416">
                <ele>53.490479</ele>
                <time>2009-05-30T07:57:01Z</time>
            </trkpt>
            <trkpt lon="101.007957" lat="14.427158">
                <ele>53.490479</ele>
                <time>2009-05-30T07:57:13Z</time>
            </trkpt>
            <trkpt lon="101.008148" lat="14.426923">
                <ele>51.567871</ele>
                <time>2009-05-30T07:57:25Z</time>
            </trkpt>
            <trkpt lon="101.008267" lat="14.426464">
                <ele>53.009766</ele>
                <time>2009-05-30T07:57:39Z</time>
            </trkpt>
            <trkpt lon="101.008337" lat="14.426148">
                <ele>55.413086</ele>
                <time>2009-05-30T07:57:51Z</time>
            </trkpt>
            <trkpt lon="101.008392" lat="14.425778">
                <ele>54.932373</ele>
                <time>2009-05-30T07:58:04Z</time>
            </trkpt>
            <trkpt lon="101.008478" lat="14.425405">
                <ele>57.335815</ele>
                <time>2009-05-30T07:58:18Z</time>
            </trkpt>
            <trkpt lon="101.008543" lat="14.424883">
                <ele>58.777710</ele>
                <time>2009-05-30T07:58:35Z</time>
            </trkpt>
            <trkpt lon="101.008444" lat="14.424461">
                <ele>58.777710</ele>
                <time>2009-05-30T07:58:45Z</time>
            </trkpt>
            <trkpt lon="101.008418" lat="14.424011">
                <ele>59.258423</ele>
                <time>2009-05-30T07:58:57Z</time>
            </trkpt>
            <trkpt lon="101.008319" lat="14.423306">
                <ele>62.142334</ele>
                <time>2009-05-30T07:59:17Z</time>
            </trkpt>
            <trkpt lon="101.008234" lat="14.422977">
                <ele>64.545654</ele>
                <time>2009-05-30T07:59:29Z</time>
            </trkpt>
            <trkpt lon="101.008220" lat="14.422928">
                <ele>65.507080</ele>
                <time>2009-05-30T07:59:31Z</time>
            </trkpt>
            <trkpt lon="101.008056" lat="14.422570">
                <ele>65.026367</ele>
                <time>2009-05-30T07:59:45Z</time>
            </trkpt>
            <trkpt lon="101.008089" lat="14.422209">
                <ele>65.026367</ele>
                <time>2009-05-30T07:59:58Z</time>
            </trkpt>
            <trkpt lon="101.008199" lat="14.421758">
                <ele>64.545654</ele>
                <time>2009-05-30T08:00:15Z</time>
            </trkpt>
            <trkpt lon="101.008268" lat="14.421326">
                <ele>65.987671</ele>
                <time>2009-05-30T08:00:32Z</time>
            </trkpt>
            <trkpt lon="101.008313" lat="14.420932">
                <ele>65.507080</ele>
                <time>2009-05-30T08:00:46Z</time>
            </trkpt>
            <trkpt lon="101.008267" lat="14.420465">
                <ele>67.429688</ele>
                <time>2009-05-30T08:01:01Z</time>
            </trkpt>
            <trkpt lon="101.008077" lat="14.420335">
                <ele>70.794190</ele>
                <time>2009-05-30T08:01:08Z</time>
            </trkpt>
            <trkpt lon="101.007845" lat="14.420111">
                <ele>71.755493</ele>
                <time>2009-05-30T08:01:15Z</time>
            </trkpt>
            <trkpt lon="101.007505" lat="14.419876">
                <ele>69.832886</ele>
                <time>2009-05-30T08:01:27Z</time>
            </trkpt>
            <trkpt lon="101.007290" lat="14.419615">
                <ele>70.794190</ele>
                <time>2009-05-30T08:01:41Z</time>
            </trkpt>
            <trkpt lon="101.007080" lat="14.419342">
                <ele>72.716919</ele>
                <time>2009-05-30T08:01:56Z</time>
            </trkpt>
            <trkpt lon="101.006817" lat="14.419004">
                <ele>77.523438</ele>
                <time>2009-05-30T08:02:18Z</time>
            </trkpt>
            <trkpt lon="101.006635" lat="14.418772">
                <ele>81.849365</ele>
                <time>2009-05-30T08:02:37Z</time>
            </trkpt>
            <trkpt lon="101.006506" lat="14.418611">
                <ele>85.694580</ele>
                <time>2009-05-30T08:02:50Z</time>
            </trkpt>
            <trkpt lon="101.006478" lat="14.418576">
                <ele>88.098022</ele>
                <time>2009-05-30T08:02:58Z</time>
            </trkpt>
            <trkpt lon="101.006416" lat="14.418498">
                <ele>88.578735</ele>
                <time>2009-05-30T08:03:04Z</time>
            </trkpt>
            <trkpt lon="101.006386" lat="14.418460">
                <ele>89.059326</ele>
                <time>2009-05-30T08:03:08Z</time>
            </trkpt>
            <trkpt lon="101.006288" lat="14.418257">
                <ele>95.788452</ele>
                <time>2009-05-30T08:03:24Z</time>
            </trkpt>
            <trkpt lon="101.006288" lat="14.418257">
                <ele>100.114502</ele>
                <time>2009-05-30T08:03:37Z</time>
            </trkpt>
            <trkpt lon="101.006178" lat="14.418010">
                <ele>97.711182</ele>
                <time>2009-05-30T08:03:44Z</time>
            </trkpt>
            <trkpt lon="101.006164" lat="14.417978">
                <ele>100.595093</ele>
                <time>2009-05-30T08:03:56Z</time>
            </trkpt>
            <trkpt lon="101.006164" lat="14.417978">
                <ele>101.556397</ele>
                <time>2009-05-30T08:03:59Z</time>
            </trkpt>
            <trkpt lon="101.006164" lat="14.417978">
                <ele>102.037109</ele>
                <time>2009-05-30T08:04:01Z</time>
            </trkpt>
            <trkpt lon="101.006164" lat="14.417978">
                <ele>103.479004</ele>
                <time>2009-05-30T08:04:06Z</time>
            </trkpt>
            <trkpt lon="101.006056" lat="14.417734">
                <ele>106.363037</ele>
                <time>2009-05-30T08:04:13Z</time>
            </trkpt>
            <trkpt lon="101.006056" lat="14.417734">
                <ele>107.324341</ele>
                <time>2009-05-30T08:04:26Z</time>
            </trkpt>
            <trkpt lon="101.006056" lat="14.417734">
                <ele>108.285645</ele>
                <time>2009-05-30T08:04:29Z</time>
            </trkpt>
            <trkpt lon="101.006056" lat="14.417734">
                <ele>117.418213</ele>
                <time>2009-05-30T08:04:45Z</time>
            </trkpt>
            <trkpt lon="101.006056" lat="14.417734">
                <ele>118.860107</ele>
                <time>2009-05-30T08:04:58Z</time>
            </trkpt>
            <trkpt lon="101.006056" lat="14.417734">
                <ele>119.340820</ele>
                <time>2009-05-30T08:05:03Z</time>
            </trkpt>
            <trkpt lon="101.005932" lat="14.417072">
                <ele>117.418213</ele>
                <time>2009-05-30T08:05:15Z</time>
            </trkpt>
            <trkpt lon="101.005932" lat="14.417072">
                <ele>112.611572</ele>
                <time>2009-05-30T08:05:28Z</time>
            </trkpt>
            <trkpt lon="101.005932" lat="14.417072">
                <ele>112.611572</ele>
                <time>2009-05-30T08:05:29Z</time>
            </trkpt>
            <trkpt lon="101.005932" lat="14.417072">
                <ele>115.495605</ele>
                <time>2009-05-30T08:05:44Z</time>
            </trkpt>
            <trkpt lon="101.005932" lat="14.417072">
                <ele>113.572998</ele>
                <time>2009-05-30T08:05:52Z</time>
            </trkpt>
            <trkpt lon="101.005908" lat="14.416543">
                <ele>119.821411</ele>
                <time>2009-05-30T08:06:05Z</time>
            </trkpt>
            <trkpt lon="101.005908" lat="14.416543">
                <ele>132.799316</ele>
                <time>2009-05-30T08:06:14Z</time>
            </trkpt>
            <trkpt lon="101.005908" lat="14.416543">
                <ele>133.279907</ele>
                <time>2009-05-30T08:06:25Z</time>
            </trkpt>
            <trkpt lon="101.005908" lat="14.416543">
                <ele>129.915283</ele>
                <time>2009-05-30T08:06:27Z</time>
            </trkpt>
            <trkpt lon="101.005908" lat="14.416543">
                <ele>127.031372</ele>
                <time>2009-05-30T08:06:30Z</time>
            </trkpt>
            <trkpt lon="101.005935" lat="14.416091">
                <ele>125.589355</ele>
                <time>2009-05-30T08:06:45Z</time>
            </trkpt>
            <trkpt lon="101.005974" lat="14.415655">
                <ele>122.705444</ele>
                <time>2009-05-30T08:06:57Z</time>
            </trkpt>
            <trkpt lon="101.005979" lat="14.415605">
                <ele>121.263550</ele>
                <time>2009-05-30T08:06:59Z</time>
            </trkpt>
            <trkpt lon="101.006007" lat="14.415482">
                <ele>118.379395</ele>
                <time>2009-05-30T08:07:05Z</time>
            </trkpt>
            <trkpt lon="101.006073" lat="14.415246">
                <ele>112.130981</ele>
                <time>2009-05-30T08:07:16Z</time>
            </trkpt>
            <trkpt lon="101.006180" lat="14.414959">
                <ele>109.246948</ele>
                <time>2009-05-30T08:07:27Z</time>
            </trkpt>
            <trkpt lon="101.006501" lat="14.414774">
                <ele>100.114502</ele>
                <time>2009-05-30T08:07:39Z</time>
            </trkpt>
            <trkpt lon="101.006820" lat="14.414694">
                <ele>90.501343</ele>
                <time>2009-05-30T08:07:50Z</time>
            </trkpt>
            <trkpt lon="101.007192" lat="14.414517">
                <ele>82.810791</ele>
                <time>2009-05-30T08:08:02Z</time>
            </trkpt>
            <trkpt lon="101.007536" lat="14.414325">
                <ele>77.042847</ele>
                <time>2009-05-30T08:08:12Z</time>
            </trkpt>
            <trkpt lon="101.007834" lat="14.414167">
                <ele>75.600830</ele>
                <time>2009-05-30T08:08:21Z</time>
            </trkpt>
            <trkpt lon="101.007951" lat="14.414022">
                <ele>74.639526</ele>
                <time>2009-05-30T08:08:24Z</time>
            </trkpt>
            <trkpt lon="101.008051" lat="14.413861">
                <ele>73.197632</ele>
                <time>2009-05-30T08:08:28Z</time>
            </trkpt>
            <trkpt lon="101.008113" lat="14.413737">
                <ele>71.755493</ele>
                <time>2009-05-30T08:08:31Z</time>
            </trkpt>
            <trkpt lon="101.008265" lat="14.413358">
                <ele>65.987671</ele>
                <time>2009-05-30T08:08:43Z</time>
            </trkpt>
            <trkpt lon="101.008384" lat="14.413097">
                <ele>66.468262</ele>
                <time>2009-05-30T08:08:54Z</time>
            </trkpt>
            <trkpt lon="101.008628" lat="14.412760">
                <ele>61.181030</ele>
                <time>2009-05-30T08:09:07Z</time>
            </trkpt>
            <trkpt lon="101.009080" lat="14.412405">
                <ele>62.142334</ele>
                <time>2009-05-30T08:09:19Z</time>
            </trkpt>
            <trkpt lon="101.009117" lat="14.412378">
                <ele>61.661743</ele>
                <time>2009-05-30T08:09:20Z</time>
            </trkpt>
            <trkpt lon="101.009340" lat="14.412190">
                <ele>60.700317</ele>
                <time>2009-05-30T08:09:26Z</time>
            </trkpt>
            <trkpt lon="101.009427" lat="14.411841">
                <ele>58.777710</ele>
                <time>2009-05-30T08:09:35Z</time>
            </trkpt>
            <trkpt lon="101.009456" lat="14.411530">
                <ele>56.855103</ele>
                <time>2009-05-30T08:09:46Z</time>
            </trkpt>
            <trkpt lon="101.009475" lat="14.411423">
                <ele>55.413086</ele>
                <time>2009-05-30T08:09:52Z</time>
            </trkpt>
            <trkpt lon="101.009549" lat="14.411106">
                <ele>50.606567</ele>
                <time>2009-05-30T08:10:02Z</time>
            </trkpt>
            <trkpt lon="101.009579" lat="14.410981">
                <ele>50.606567</ele>
                <time>2009-05-30T08:10:07Z</time>
            </trkpt>
            <trkpt lon="101.009475" lat="14.411005">
                <ele>50.125977</ele>
                <time>2009-05-30T08:10:16Z</time>
            </trkpt>
            <trkpt lon="101.009421" lat="14.411122">
                <ele>50.125977</ele>
                <time>2009-05-30T08:10:22Z</time>
            </trkpt>
            <trkpt lon="101.009460" lat="14.411488">
                <ele>52.048584</ele>
                <time>2009-05-30T08:10:33Z</time>
            </trkpt>
            <trkpt lon="101.008756" lat="14.411673">
                <ele>53.971191</ele>
                <time>2009-05-30T08:10:42Z</time>
            </trkpt>
            <trkpt lon="101.008587" lat="14.411540">
                <ele>53.009766</ele>
                <time>2009-05-30T08:10:48Z</time>
            </trkpt>
            <trkpt lon="101.008238" lat="14.410690">
                <ele>49.645264</ele>
                <time>2009-05-30T08:11:04Z</time>
            </trkpt>
            <trkpt lon="101.008122" lat="14.409632">
                <ele>46.761231</ele>
                <time>2009-05-30T08:11:18Z</time>
            </trkpt>
            <trkpt lon="101.008004" lat="14.409464">
                <ele>46.280640</ele>
                <time>2009-05-30T08:11:21Z</time>
            </trkpt>
            <trkpt lon="101.007141" lat="14.408376">
                <ele>43.396606</ele>
                <time>2009-05-30T08:11:40Z</time>
            </trkpt>
            <trkpt lon="101.007014" lat="14.408221">
                <ele>42.435425</ele>
                <time>2009-05-30T08:11:47Z</time>
            </trkpt>
            <trkpt lon="101.007009" lat="14.408215">
                <ele>41.954712</ele>
                <time>2009-05-30T08:11:54Z</time>
            </trkpt>
            <trkpt lon="101.007009" lat="14.408215">
                <ele>43.877319</ele>
                <time>2009-05-30T08:12:30Z</time>
            </trkpt>
            <trkpt lon="101.005810" lat="14.409173">
                <ele>47.241821</ele>
                <time>2009-05-30T08:12:47Z</time>
            </trkpt>
            <trkpt lon="101.005515" lat="14.409354">
                <ele>46.280640</ele>
                <time>2009-05-30T08:12:59Z</time>
            </trkpt>
            <trkpt lon="101.005183" lat="14.409534">
                <ele>44.358032</ele>
                <time>2009-05-30T08:13:11Z</time>
            </trkpt>
            <trkpt lon="101.004839" lat="14.409890">
                <ele>45.319214</ele>
                <time>2009-05-30T08:13:25Z</time>
            </trkpt>
            <trkpt lon="101.004593" lat="14.410234">
                <ele>48.203369</ele>
                <time>2009-05-30T08:13:39Z</time>
            </trkpt>
            <trkpt lon="101.004541" lat="14.410272">
                <ele>48.683960</ele>
                <time>2009-05-30T08:13:42Z</time>
            </trkpt>
            <trkpt lon="101.004472" lat="14.410412">
                <ele>46.761231</ele>
                <time>2009-05-30T08:13:51Z</time>
            </trkpt>
            <trkpt lon="101.004393" lat="14.410476">
                <ele>46.761231</ele>
                <time>2009-05-30T08:13:55Z</time>
            </trkpt>
            <trkpt lon="101.004368" lat="14.410541">
                <ele>45.799927</ele>
                <time>2009-05-30T08:13:59Z</time>
            </trkpt>
            <trkpt lon="101.004331" lat="14.410596">
                <ele>44.838623</ele>
                <time>2009-05-30T08:14:03Z</time>
            </trkpt>
            <trkpt lon="101.004290" lat="14.410770">
                <ele>44.838623</ele>
                <time>2009-05-30T08:14:11Z</time>
            </trkpt>
            <trkpt lon="101.004271" lat="14.410896">
                <ele>44.358032</ele>
                <time>2009-05-30T08:14:18Z</time>
            </trkpt>
            <trkpt lon="101.004229" lat="14.411189">
                <ele>52.048584</ele>
                <time>2009-05-30T08:14:33Z</time>
            </trkpt>
            <trkpt lon="101.003996" lat="14.411342">
                <ele>53.009766</ele>
                <time>2009-05-30T08:14:45Z</time>
            </trkpt>
            <trkpt lon="101.003912" lat="14.411349">
                <ele>52.048584</ele>
                <time>2009-05-30T08:14:49Z</time>
            </trkpt>
            <trkpt lon="101.003673" lat="14.411175">
                <ele>50.606567</ele>
                <time>2009-05-30T08:15:02Z</time>
            </trkpt>
            <trkpt lon="101.003485" lat="14.411007">
                <ele>47.722534</ele>
                <time>2009-05-30T08:15:14Z</time>
            </trkpt>
            <trkpt lon="101.003429" lat="14.410968">
                <ele>47.241821</ele>
                <time>2009-05-30T08:15:17Z</time>
            </trkpt>
            <trkpt lon="101.003363" lat="14.410922">
                <ele>47.241821</ele>
                <time>2009-05-30T08:15:29Z</time>
            </trkpt>
            <trkpt lon="101.003315" lat="14.410877">
                <ele>47.241821</ele>
                <time>2009-05-30T08:15:38Z</time>
            </trkpt>
            <trkpt lon="101.003246" lat="14.410845">
                <ele>46.280640</ele>
                <time>2009-05-30T08:15:44Z</time>
            </trkpt>
            <trkpt lon="101.003110" lat="14.410784">
                <ele>44.838623</ele>
                <time>2009-05-30T08:15:54Z</time>
            </trkpt>
            <trkpt lon="101.003078" lat="14.410776">
                <ele>44.838623</ele>
                <time>2009-05-30T08:16:00Z</time>
            </trkpt>
            <trkpt lon="101.003040" lat="14.410748">
                <ele>45.319214</ele>
                <time>2009-05-30T08:16:04Z</time>
            </trkpt>
            <trkpt lon="101.002826" lat="14.410559">
                <ele>45.799927</ele>
                <time>2009-05-30T08:16:17Z</time>
            </trkpt>
            <trkpt lon="101.002723" lat="14.410482">
                <ele>46.280640</ele>
                <time>2009-05-30T08:16:28Z</time>
            </trkpt>
            <trkpt lon="101.002716" lat="14.410477">
                <ele>45.799927</ele>
                <time>2009-05-30T08:16:29Z</time>
            </trkpt>
            <trkpt lon="101.002584" lat="14.410425">
                <ele>45.319214</ele>
                <time>2009-05-30T08:16:36Z</time>
            </trkpt>
            <trkpt lon="101.002417" lat="14.410325">
                <ele>44.838623</ele>
                <time>2009-05-30T08:16:44Z</time>
            </trkpt>
            <trkpt lon="101.002096" lat="14.410198">
                <ele>45.319214</ele>
                <time>2009-05-30T08:16:57Z</time>
            </trkpt>
            <trkpt lon="101.001986" lat="14.410163">
                <ele>45.799927</ele>
                <time>2009-05-30T08:17:01Z</time>
            </trkpt>
            <trkpt lon="101.001885" lat="14.410167">
                <ele>45.799927</ele>
                <time>2009-05-30T08:17:05Z</time>
            </trkpt>
            <trkpt lon="101.001630" lat="14.410212">
                <ele>44.358032</ele>
                <time>2009-05-30T08:17:16Z</time>
            </trkpt>
            <trkpt lon="101.001278" lat="14.410360">
                <ele>45.319214</ele>
                <time>2009-05-30T08:17:31Z</time>
            </trkpt>
            <trkpt lon="101.001117" lat="14.410600">
                <ele>47.722534</ele>
                <time>2009-05-30T08:17:44Z</time>
            </trkpt>
            <trkpt lon="101.001102" lat="14.410829">
                <ele>48.203369</ele>
                <time>2009-05-30T08:17:59Z</time>
            </trkpt>
            <trkpt lon="101.001122" lat="14.411059">
                <ele>48.203369</ele>
                <time>2009-05-30T08:18:15Z</time>
            </trkpt>
            <trkpt lon="101.001130" lat="14.411244">
                <ele>47.722534</ele>
                <time>2009-05-30T08:18:27Z</time>
            </trkpt>
            <trkpt lon="101.000988" lat="14.411379">
                <ele>50.606567</ele>
                <time>2009-05-30T08:18:39Z</time>
            </trkpt>
            <trkpt lon="101.000716" lat="14.411490">
                <ele>48.683960</ele>
                <time>2009-05-30T08:18:52Z</time>
            </trkpt>
            <trkpt lon="101.000591" lat="14.411542">
                <ele>49.164551</ele>
                <time>2009-05-30T08:18:58Z</time>
            </trkpt>
            <trkpt lon="101.000513" lat="14.411593">
                <ele>50.125977</ele>
                <time>2009-05-30T08:19:03Z</time>
            </trkpt>
            <trkpt lon="101.000313" lat="14.411747">
                <ele>52.048584</ele>
                <time>2009-05-30T08:19:18Z</time>
            </trkpt>
            <trkpt lon="101.000284" lat="14.411803">
                <ele>52.048584</ele>
                <time>2009-05-30T08:19:22Z</time>
            </trkpt>
            <trkpt lon="101.000143" lat="14.411986">
                <ele>53.009766</ele>
                <time>2009-05-30T08:19:34Z</time>
            </trkpt>
            <trkpt lon="100.999986" lat="14.412179">
                <ele>53.490479</ele>
                <time>2009-05-30T08:19:47Z</time>
            </trkpt>
            <trkpt lon="100.999930" lat="14.412255">
                <ele>53.009766</ele>
                <time>2009-05-30T08:19:52Z</time>
            </trkpt>
            <trkpt lon="100.999912" lat="14.412280">
                <ele>53.490479</ele>
                <time>2009-05-30T08:19:54Z</time>
            </trkpt>
            <trkpt lon="100.999819" lat="14.412411">
                <ele>53.009766</ele>
                <time>2009-05-30T08:20:03Z</time>
            </trkpt>
            <trkpt lon="100.999754" lat="14.412456">
                <ele>53.009766</ele>
                <time>2009-05-30T08:20:08Z</time>
            </trkpt>
            <trkpt lon="100.999641" lat="14.412516">
                <ele>54.932373</ele>
                <time>2009-05-30T08:20:17Z</time>
            </trkpt>
            <trkpt lon="100.999587" lat="14.412522">
                <ele>56.374512</ele>
                <time>2009-05-30T08:20:21Z</time>
            </trkpt>
            <trkpt lon="100.999559" lat="14.412515">
                <ele>57.335815</ele>
                <time>2009-05-30T08:20:23Z</time>
            </trkpt>
            <trkpt lon="100.999491" lat="14.412363">
                <ele>56.374512</ele>
                <time>2009-05-30T08:20:33Z</time>
            </trkpt>
            <trkpt lon="100.999336" lat="14.411967">
                <ele>52.048584</ele>
                <time>2009-05-30T08:20:47Z</time>
            </trkpt>
            <trkpt lon="100.999314" lat="14.411931">
                <ele>51.567871</ele>
                <time>2009-05-30T08:20:48Z</time>
            </trkpt>
            <trkpt lon="100.999205" lat="14.411739">
                <ele>51.087158</ele>
                <time>2009-05-30T08:20:53Z</time>
            </trkpt>
            <trkpt lon="100.999007" lat="14.411406">
                <ele>49.164551</ele>
                <time>2009-05-30T08:21:03Z</time>
            </trkpt>
            <trkpt lon="100.999226" lat="14.411097">
                <ele>48.683960</ele>
                <time>2009-05-30T08:21:14Z</time>
            </trkpt>
            <trkpt lon="100.999351" lat="14.410676">
                <ele>46.761231</ele>
                <time>2009-05-30T08:21:26Z</time>
            </trkpt>
            <trkpt lon="100.999341" lat="14.410182">
                <ele>45.319214</ele>
                <time>2009-05-30T08:21:40Z</time>
            </trkpt>
            <trkpt lon="100.999063" lat="14.409935">
                <ele>43.877319</ele>
                <time>2009-05-30T08:21:50Z</time>
            </trkpt>
            <trkpt lon="100.998710" lat="14.409898">
                <ele>42.916016</ele>
                <time>2009-05-30T08:22:00Z</time>
            </trkpt>
            <trkpt lon="100.998480" lat="14.409913">
                <ele>41.473999</ele>
                <time>2009-05-30T08:22:06Z</time>
            </trkpt>
            <trkpt lon="100.997967" lat="14.410050">
                <ele>39.551269</ele>
                <time>2009-05-30T08:22:20Z</time>
            </trkpt>
            <trkpt lon="100.997569" lat="14.410153">
                <ele>39.070679</ele>
                <time>2009-05-30T08:22:31Z</time>
            </trkpt>
            <trkpt lon="100.997101" lat="14.410257">
                <ele>37.628662</ele>
                <time>2009-05-30T08:22:46Z</time>
            </trkpt>
            <trkpt lon="100.996784" lat="14.410345">
                <ele>37.148071</ele>
                <time>2009-05-30T08:22:57Z</time>
            </trkpt>
            <trkpt lon="100.996474" lat="14.410431">
                <ele>36.186768</ele>
                <time>2009-05-30T08:23:09Z</time>
            </trkpt>
            <trkpt lon="100.996268" lat="14.410482">
                <ele>39.070679</ele>
                <time>2009-05-30T08:23:22Z</time>
            </trkpt>
            <trkpt lon="100.996244" lat="14.410492">
                <ele>40.512817</ele>
                <time>2009-05-30T08:23:27Z</time>
            </trkpt>
            <trkpt lon="100.996193" lat="14.410488">
                <ele>40.993408</ele>
                <time>2009-05-30T08:23:41Z</time>
            </trkpt>
            <trkpt lon="100.996199" lat="14.410493">
                <ele>44.358032</ele>
                <time>2009-05-30T08:23:51Z</time>
            </trkpt>
            <trkpt lon="100.996176" lat="14.410495">
                <ele>45.319214</ele>
                <time>2009-05-30T08:23:56Z</time>
            </trkpt>
            <trkpt lon="100.996004" lat="14.410474">
                <ele>45.319214</ele>
                <time>2009-05-30T08:24:03Z</time>
            </trkpt>
            <trkpt lon="100.995553" lat="14.410569">
                <ele>42.916016</ele>
                <time>2009-05-30T08:24:16Z</time>
            </trkpt>
            <trkpt lon="100.995418" lat="14.410606">
                <ele>42.435425</ele>
                <time>2009-05-30T08:24:20Z</time>
            </trkpt>
            <trkpt lon="100.995323" lat="14.410464">
                <ele>40.512817</ele>
                <time>2009-05-30T08:24:26Z</time>
            </trkpt>
            <trkpt lon="100.995171" lat="14.409990">
                <ele>37.148071</ele>
                <time>2009-05-30T08:24:39Z</time>
            </trkpt>
            <trkpt lon="100.995162" lat="14.409945">
                <ele>37.148071</ele>
                <time>2009-05-30T08:24:40Z</time>
            </trkpt>
            <trkpt lon="100.995096" lat="14.409661">
                <ele>39.070679</ele>
                <time>2009-05-30T08:24:46Z</time>
            </trkpt>
            <trkpt lon="100.995025" lat="14.409485">
                <ele>40.032105</ele>
                <time>2009-05-30T08:24:50Z</time>
            </trkpt>
            <trkpt lon="100.994962" lat="14.409219">
                <ele>39.070679</ele>
                <time>2009-05-30T08:24:56Z</time>
            </trkpt>
            <trkpt lon="100.994730" lat="14.408676">
                <ele>35.225464</ele>
                <time>2009-05-30T08:25:07Z</time>
            </trkpt>
            <trkpt lon="100.994444" lat="14.408192">
                <ele>33.783447</ele>
                <time>2009-05-30T08:25:16Z</time>
            </trkpt>
            <trkpt lon="100.994359" lat="14.407821">
                <ele>34.264160</ele>
                <time>2009-05-30T08:25:23Z</time>
            </trkpt>
            <trkpt lon="100.994816" lat="14.406932">
                <ele>34.744873</ele>
                <time>2009-05-30T08:25:40Z</time>
            </trkpt>
            <trkpt lon="100.994910" lat="14.406765">
                <ele>34.744873</ele>
                <time>2009-05-30T08:25:44Z</time>
            </trkpt>
            <trkpt lon="100.995229" lat="14.406058">
                <ele>34.264160</ele>
                <time>2009-05-30T08:26:01Z</time>
            </trkpt>
            <trkpt lon="100.995315" lat="14.405864">
                <ele>33.783447</ele>
                <time>2009-05-30T08:26:05Z</time>
            </trkpt>
            <trkpt lon="100.995403" lat="14.405660">
                <ele>33.783447</ele>
                <time>2009-05-30T08:26:09Z</time>
            </trkpt>
            <trkpt lon="100.995491" lat="14.405394">
                <ele>33.302856</ele>
                <time>2009-05-30T08:26:14Z</time>
            </trkpt>
            <trkpt lon="100.995659" lat="14.404801">
                <ele>32.822266</ele>
                <time>2009-05-30T08:26:25Z</time>
            </trkpt>
            <trkpt lon="100.995685" lat="14.404582">
                <ele>32.341553</ele>
                <time>2009-05-30T08:26:29Z</time>
            </trkpt>
            <trkpt lon="100.996002" lat="14.404383">
                <ele>29.938110</ele>
                <time>2009-05-30T08:26:37Z</time>
            </trkpt>
            <trkpt lon="100.996180" lat="14.404368">
                <ele>29.457520</ele>
                <time>2009-05-30T08:26:40Z</time>
            </trkpt>
            <trkpt lon="100.996644" lat="14.404291">
                <ele>27.534912</ele>
                <time>2009-05-30T08:26:48Z</time>
            </trkpt>
            <trkpt lon="100.996838" lat="14.404154">
                <ele>27.054321</ele>
                <time>2009-05-30T08:26:52Z</time>
            </trkpt>
            <trkpt lon="100.996938" lat="14.403996">
                <ele>27.534912</ele>
                <time>2009-05-30T08:26:55Z</time>
            </trkpt>
            <trkpt lon="100.997009" lat="14.403714">
                <ele>28.015503</ele>
                <time>2009-05-30T08:27:00Z</time>
            </trkpt>
            <trkpt lon="100.996960" lat="14.402728">
                <ele>28.015503</ele>
                <time>2009-05-30T08:27:18Z</time>
            </trkpt>
            <trkpt lon="100.996826" lat="14.402522">
                <ele>27.534912</ele>
                <time>2009-05-30T08:27:25Z</time>
            </trkpt>
            <trkpt lon="100.996390" lat="14.402377">
                <ele>28.976929</ele>
                <time>2009-05-30T08:27:41Z</time>
            </trkpt>
            <trkpt lon="100.996382" lat="14.402363">
                <ele>29.457520</ele>
                <time>2009-05-30T08:27:56Z</time>
            </trkpt>
            <trkpt lon="100.996396" lat="14.402361">
                <ele>30.418823</ele>
                <time>2009-05-30T08:29:05Z</time>
            </trkpt>
            <trkpt lon="100.996394" lat="14.402363">
                <ele>31.860718</ele>
                <time>2009-05-30T08:29:44Z</time>
            </trkpt>
            <trkpt lon="100.996399" lat="14.402358">
                <ele>31.860718</ele>
                <time>2009-05-30T08:29:55Z</time>
            </trkpt>
            <trkpt lon="100.996449" lat="14.402363">
                <ele>30.418823</ele>
                <time>2009-05-30T08:30:00Z</time>
            </trkpt>
            <trkpt lon="100.996838" lat="14.402536">
                <ele>27.054321</ele>
                <time>2009-05-30T08:30:13Z</time>
            </trkpt>
            <trkpt lon="100.996942" lat="14.402617">
                <ele>27.054321</ele>
                <time>2009-05-30T08:30:23Z</time>
            </trkpt>
            <trkpt lon="100.996953" lat="14.402630">
                <ele>27.054321</ele>
                <time>2009-05-30T08:30:37Z</time>
            </trkpt>
            <trkpt lon="100.996949" lat="14.402685">
                <ele>27.534912</ele>
                <time>2009-05-30T08:30:41Z</time>
            </trkpt>
            <trkpt lon="100.996973" lat="14.403143">
                <ele>28.015503</ele>
                <time>2009-05-30T08:30:57Z</time>
            </trkpt>
            <trkpt lon="100.996993" lat="14.403786">
                <ele>28.015503</ele>
                <time>2009-05-30T08:31:14Z</time>
            </trkpt>
            <trkpt lon="100.996796" lat="14.404212">
                <ele>28.976929</ele>
                <time>2009-05-30T08:31:28Z</time>
            </trkpt>
            <trkpt lon="100.996815" lat="14.404358">
                <ele>28.496216</ele>
                <time>2009-05-30T08:31:40Z</time>
            </trkpt>
            <trkpt lon="100.996887" lat="14.404433">
                <ele>28.496216</ele>
                <time>2009-05-30T08:31:51Z</time>
            </trkpt>
            <trkpt lon="100.997098" lat="14.404612">
                <ele>28.496216</ele>
                <time>2009-05-30T08:31:59Z</time>
            </trkpt>
            <trkpt lon="100.997212" lat="14.404681">
                <ele>28.496216</ele>
                <time>2009-05-30T08:32:02Z</time>
            </trkpt>
            <trkpt lon="100.997326" lat="14.405067">
                <ele>28.976929</ele>
                <time>2009-05-30T08:32:13Z</time>
            </trkpt>
            <trkpt lon="100.997360" lat="14.405361">
                <ele>28.976929</ele>
                <time>2009-05-30T08:32:25Z</time>
            </trkpt>
            <trkpt lon="100.997423" lat="14.405659">
                <ele>29.457520</ele>
                <time>2009-05-30T08:32:36Z</time>
            </trkpt>
            <trkpt lon="100.997512" lat="14.406280">
                <ele>30.418823</ele>
                <time>2009-05-30T08:32:53Z</time>
            </trkpt>
            <trkpt lon="100.997562" lat="14.406812">
                <ele>30.418823</ele>
                <time>2009-05-30T08:33:10Z</time>
            </trkpt>
            <trkpt lon="100.997565" lat="14.407120">
                <ele>30.418823</ele>
                <time>2009-05-30T08:33:21Z</time>
            </trkpt>
            <trkpt lon="100.997496" lat="14.407380">
                <ele>30.899536</ele>
                <time>2009-05-30T08:33:35Z</time>
            </trkpt>
            <trkpt lon="100.997483" lat="14.407436">
                <ele>30.899536</ele>
                <time>2009-05-30T08:33:38Z</time>
            </trkpt>
            <trkpt lon="100.997561" lat="14.407489">
                <ele>31.860718</ele>
                <time>2009-05-30T08:33:43Z</time>
            </trkpt>
            <trkpt lon="100.997998" lat="14.407460">
                <ele>32.341553</ele>
                <time>2009-05-30T08:33:58Z</time>
            </trkpt>
            <trkpt lon="100.998454" lat="14.407419">
                <ele>34.264160</ele>
                <time>2009-05-30T08:34:13Z</time>
            </trkpt>
            <trkpt lon="100.999027" lat="14.407328">
                <ele>34.264160</ele>
                <time>2009-05-30T08:34:30Z</time>
            </trkpt>
            <trkpt lon="100.999530" lat="14.407247">
                <ele>33.302856</ele>
                <time>2009-05-30T08:34:42Z</time>
            </trkpt>
            <trkpt lon="100.999731" lat="14.407240">
                <ele>33.302856</ele>
                <time>2009-05-30T08:34:46Z</time>
            </trkpt>
            <trkpt lon="101.000240" lat="14.407168">
                <ele>32.822266</ele>
                <time>2009-05-30T08:34:56Z</time>
            </trkpt>
            <trkpt lon="101.000713" lat="14.407159">
                <ele>32.822266</ele>
                <time>2009-05-30T08:35:06Z</time>
            </trkpt>
            <trkpt lon="101.000806" lat="14.407125">
                <ele>32.822266</ele>
                <time>2009-05-30T08:35:08Z</time>
            </trkpt>
            <trkpt lon="101.001492" lat="14.407065">
                <ele>31.860718</ele>
                <time>2009-05-30T08:35:21Z</time>
            </trkpt>
            <trkpt lon="101.002534" lat="14.406706">
                <ele>30.899536</ele>
                <time>2009-05-30T08:35:40Z</time>
            </trkpt>
            <trkpt lon="101.002863" lat="14.406576">
                <ele>30.899536</ele>
                <time>2009-05-30T08:35:46Z</time>
            </trkpt>
            <trkpt lon="101.003027" lat="14.406522">
                <ele>30.899536</ele>
                <time>2009-05-30T08:35:49Z</time>
            </trkpt>
            <trkpt lon="101.003458" lat="14.406607">
                <ele>29.938110</ele>
                <time>2009-05-30T08:35:57Z</time>
            </trkpt>
            <trkpt lon="101.003718" lat="14.406817">
                <ele>29.457520</ele>
                <time>2009-05-30T08:36:03Z</time>
            </trkpt>
            <trkpt lon="101.003936" lat="14.406967">
                <ele>29.457520</ele>
                <time>2009-05-30T08:36:08Z</time>
            </trkpt>
            <trkpt lon="101.004634" lat="14.407338">
                <ele>28.015503</ele>
                <time>2009-05-30T08:36:24Z</time>
            </trkpt>
            <trkpt lon="101.005120" lat="14.407482">
                <ele>31.380127</ele>
                <time>2009-05-30T08:36:38Z</time>
            </trkpt>
            <trkpt lon="101.005591" lat="14.407550">
                <ele>35.706055</ele>
                <time>2009-05-30T08:36:56Z</time>
            </trkpt>
            <trkpt lon="101.006034" lat="14.407594">
                <ele>39.551269</ele>
                <time>2009-05-30T08:37:16Z</time>
            </trkpt>
            <trkpt lon="101.006008" lat="14.407424">
                <ele>39.551269</ele>
                <time>2009-05-30T08:37:27Z</time>
            </trkpt>
            <trkpt lon="101.005982" lat="14.407368">
                <ele>39.551269</ele>
                <time>2009-05-30T08:37:31Z</time>
            </trkpt>
            <trkpt lon="101.006024" lat="14.407393">
                <ele>39.551269</ele>
                <time>2009-05-30T08:37:38Z</time>
            </trkpt>
            <trkpt lon="101.006135" lat="14.407700">
                <ele>38.590088</ele>
                <time>2009-05-30T08:37:53Z</time>
            </trkpt>
            <trkpt lon="101.006296" lat="14.407943">
                <ele>39.070679</ele>
                <time>2009-05-30T08:38:06Z</time>
            </trkpt>
            <trkpt lon="101.006572" lat="14.408342">
                <ele>41.473999</ele>
                <time>2009-05-30T08:38:24Z</time>
            </trkpt>
            <trkpt lon="101.006672" lat="14.408504">
                <ele>42.435425</ele>
                <time>2009-05-30T08:38:40Z</time>
            </trkpt>
            <trkpt lon="101.006691" lat="14.408496">
                <ele>44.358032</ele>
                <time>2009-05-30T08:39:31Z</time>
            </trkpt>
            <trkpt lon="101.006681" lat="14.408504">
                <ele>43.396606</ele>
                <time>2009-05-30T08:39:47Z</time>
            </trkpt>
            <trkpt lon="101.006672" lat="14.408507">
                <ele>41.473999</ele>
                <time>2009-05-30T08:40:39Z</time>
            </trkpt>
            <trkpt lon="101.006685" lat="14.408455">
                <ele>42.435425</ele>
                <time>2009-05-30T08:40:55Z</time>
            </trkpt>
            <trkpt lon="101.006727" lat="14.408399">
                <ele>43.877319</ele>
                <time>2009-05-30T08:41:11Z</time>
            </trkpt>
            <trkpt lon="101.006755" lat="14.408369">
                <ele>41.954712</ele>
                <time>2009-05-30T08:41:27Z</time>
            </trkpt>
            <trkpt lon="101.006767" lat="14.408362">
                <ele>40.993408</ele>
                <time>2009-05-30T08:41:44Z</time>
            </trkpt>
            <trkpt lon="101.006779" lat="14.408342">
                <ele>40.993408</ele>
                <time>2009-05-30T08:41:58Z</time>
            </trkpt>
            <trkpt lon="101.006821" lat="14.408322">
                <ele>42.435425</ele>
                <time>2009-05-30T08:42:12Z</time>
            </trkpt>
            <trkpt lon="101.006876" lat="14.408306">
                <ele>41.954712</ele>
                <time>2009-05-30T08:42:26Z</time>
            </trkpt>
            <trkpt lon="101.006907" lat="14.408289">
                <ele>41.954712</ele>
                <time>2009-05-30T08:42:38Z</time>
            </trkpt>
            <trkpt lon="101.006929" lat="14.408291">
                <ele>41.954712</ele>
                <time>2009-05-30T08:42:43Z</time>
            </trkpt>
            <trkpt lon="101.006989" lat="14.408253">
                <ele>41.473999</ele>
                <time>2009-05-30T08:42:52Z</time>
            </trkpt>
            <trkpt lon="101.006866" lat="14.408040">
                <ele>39.551269</ele>
                <time>2009-05-30T08:43:01Z</time>
            </trkpt>
            <trkpt lon="101.006594" lat="14.407661">
                <ele>37.628662</ele>
                <time>2009-05-30T08:43:11Z</time>
            </trkpt>
            <trkpt lon="101.006584" lat="14.407647">
                <ele>38.109375</ele>
                <time>2009-05-30T08:43:24Z</time>
            </trkpt>
            <trkpt lon="101.006584" lat="14.407647">
                <ele>40.993408</ele>
                <time>2009-05-30T08:44:04Z</time>
            </trkpt>
            <trkpt lon="101.006697" lat="14.407806">
                <ele>38.590088</ele>
                <time>2009-05-30T08:44:16Z</time>
            </trkpt>
            <trkpt lon="101.006928" lat="14.408116">
                <ele>39.551269</ele>
                <time>2009-05-30T08:44:34Z</time>
            </trkpt>
            <trkpt lon="101.007180" lat="14.408423">
                <ele>40.512817</ele>
                <time>2009-05-30T08:44:52Z</time>
            </trkpt>
            <trkpt lon="101.007560" lat="14.408886">
                <ele>42.435425</ele>
                <time>2009-05-30T08:45:12Z</time>
            </trkpt>
            <trkpt lon="101.007968" lat="14.409412">
                <ele>43.877319</ele>
                <time>2009-05-30T08:45:33Z</time>
            </trkpt>
            <trkpt lon="101.008336" lat="14.409803">
                <ele>46.280640</ele>
                <time>2009-05-30T08:45:51Z</time>
            </trkpt>
            <trkpt lon="101.008766" lat="14.410116">
                <ele>48.683960</ele>
                <time>2009-05-30T08:46:10Z</time>
            </trkpt>
            <trkpt lon="101.009130" lat="14.410375">
                <ele>51.087158</ele>
                <time>2009-05-30T08:46:26Z</time>
            </trkpt>
            <trkpt lon="101.009569" lat="14.410727">
                <ele>51.567871</ele>
                <time>2009-05-30T08:46:44Z</time>
            </trkpt>
            <trkpt lon="101.009835" lat="14.410640">
                <ele>51.567871</ele>
                <time>2009-05-30T08:46:56Z</time>
            </trkpt>
            <trkpt lon="101.010231" lat="14.410315">
                <ele>52.529175</ele>
                <time>2009-05-30T08:47:14Z</time>
            </trkpt>
            <trkpt lon="101.010778" lat="14.409997">
                <ele>51.567871</ele>
                <time>2009-05-30T08:47:31Z</time>
            </trkpt>
            <trkpt lon="101.011382" lat="14.409647">
                <ele>50.606567</ele>
                <time>2009-05-30T08:47:47Z</time>
            </trkpt>
            <trkpt lon="101.011439" lat="14.409594">
                <ele>50.125977</ele>
                <time>2009-05-30T08:47:49Z</time>
            </trkpt>
            <trkpt lon="101.011562" lat="14.409471">
                <ele>49.164551</ele>
                <time>2009-05-30T08:47:54Z</time>
            </trkpt>
            <trkpt lon="101.011680" lat="14.409561">
                <ele>47.722534</ele>
                <time>2009-05-30T08:48:07Z</time>
            </trkpt>
            <trkpt lon="101.011650" lat="14.409548">
                <ele>48.683960</ele>
                <time>2009-05-30T08:48:41Z</time>
            </trkpt>
            <trkpt lon="101.011619" lat="14.409515">
                <ele>48.203369</ele>
                <time>2009-05-30T08:49:17Z</time>
            </trkpt>
            <trkpt lon="101.011625" lat="14.409517">
                <ele>48.203369</ele>
                <time>2009-05-30T08:49:50Z</time>
            </trkpt>
            <trkpt lon="101.011665" lat="14.409060">
                <ele>47.241821</ele>
                <time>2009-05-30T08:50:05Z</time>
            </trkpt>
            <trkpt lon="101.011774" lat="14.408352">
                <ele>46.280640</ele>
                <time>2009-05-30T08:50:20Z</time>
            </trkpt>
            <trkpt lon="101.012021" lat="14.407277">
                <ele>42.916016</ele>
                <time>2009-05-30T08:50:41Z</time>
            </trkpt>
            <trkpt lon="101.012307" lat="14.406265">
                <ele>39.070679</ele>
                <time>2009-05-30T08:51:00Z</time>
            </trkpt>
            <trkpt lon="101.012635" lat="14.405428">
                <ele>36.667481</ele>
                <time>2009-05-30T08:51:15Z</time>
            </trkpt>
            <trkpt lon="101.012983" lat="14.404344">
                <ele>34.264160</ele>
                <time>2009-05-30T08:51:32Z</time>
            </trkpt>
            <trkpt lon="101.013349" lat="14.403724">
                <ele>34.264160</ele>
                <time>2009-05-30T08:51:44Z</time>
            </trkpt>
            <trkpt lon="101.014003" lat="14.403436">
                <ele>34.264160</ele>
                <time>2009-05-30T08:51:58Z</time>
            </trkpt>
            <trkpt lon="101.014212" lat="14.403366">
                <ele>34.264160</ele>
                <time>2009-05-30T08:52:03Z</time>
            </trkpt>
            <trkpt lon="101.014764" lat="14.403264">
                <ele>35.706055</ele>
                <time>2009-05-30T08:52:18Z</time>
            </trkpt>
            <trkpt lon="101.014921" lat="14.403180">
                <ele>35.706055</ele>
                <time>2009-05-30T08:52:22Z</time>
            </trkpt>
            <trkpt lon="101.015033" lat="14.402772">
                <ele>33.783447</ele>
                <time>2009-05-30T08:52:31Z</time>
            </trkpt>
            <trkpt lon="101.014996" lat="14.401860">
                <ele>33.783447</ele>
                <time>2009-05-30T08:52:46Z</time>
            </trkpt>
            <trkpt lon="101.015115" lat="14.401576">
                <ele>33.783447</ele>
                <time>2009-05-30T08:52:54Z</time>
            </trkpt>
            <trkpt lon="101.014955" lat="14.401138">
                <ele>33.783447</ele>
                <time>2009-05-30T08:53:04Z</time>
            </trkpt>
            <trkpt lon="101.014799" lat="14.400973">
                <ele>33.302856</ele>
                <time>2009-05-30T08:53:09Z</time>
            </trkpt>
            <trkpt lon="101.014277" lat="14.400666">
                <ele>32.341553</ele>
                <time>2009-05-30T08:53:23Z</time>
            </trkpt>
            <trkpt lon="101.014063" lat="14.400470">
                <ele>30.418823</ele>
                <time>2009-05-30T08:53:31Z</time>
            </trkpt>
            <trkpt lon="101.013910" lat="14.400182">
                <ele>29.938110</ele>
                <time>2009-05-30T08:53:38Z</time>
            </trkpt>
            <trkpt lon="101.013920" lat="14.399869">
                <ele>29.938110</ele>
                <time>2009-05-30T08:53:43Z</time>
            </trkpt>
            <trkpt lon="101.014049" lat="14.399525">
                <ele>28.976929</ele>
                <time>2009-05-30T08:53:49Z</time>
            </trkpt>
            <trkpt lon="101.014441" lat="14.398825">
                <ele>27.534912</ele>
                <time>2009-05-30T08:54:05Z</time>
            </trkpt>
            <trkpt lon="101.014553" lat="14.398600">
                <ele>27.054321</ele>
                <time>2009-05-30T08:54:10Z</time>
            </trkpt>
            <trkpt lon="101.014651" lat="14.398150">
                <ele>26.573608</ele>
                <time>2009-05-30T08:54:22Z</time>
            </trkpt>
            <trkpt lon="101.014886" lat="14.398074">
                <ele>26.092896</ele>
                <time>2009-05-30T08:54:30Z</time>
            </trkpt>
            <trkpt lon="101.014966" lat="14.398052">
                <ele>25.612305</ele>
                <time>2009-05-30T08:54:33Z</time>
            </trkpt>
            <trkpt lon="101.015008" lat="14.397893">
                <ele>24.651001</ele>
                <time>2009-05-30T08:54:40Z</time>
            </trkpt>
            <trkpt lon="101.015172" lat="14.397914">
                <ele>24.651001</ele>
                <time>2009-05-30T08:54:44Z</time>
            </trkpt>
            <trkpt lon="101.016000" lat="14.397732">
                <ele>25.612305</ele>
                <time>2009-05-30T08:55:03Z</time>
            </trkpt>
            <trkpt lon="101.016712" lat="14.397602">
                <ele>27.534912</ele>
                <time>2009-05-30T08:55:21Z</time>
            </trkpt>
            <trkpt lon="101.016732" lat="14.397599">
                <ele>28.015503</ele>
                <time>2009-05-30T08:55:22Z</time>
            </trkpt>
            <trkpt lon="101.016964" lat="14.397557">
                <ele>27.534912</ele>
                <time>2009-05-30T08:55:35Z</time>
            </trkpt>
            <trkpt lon="101.016980" lat="14.397554">
                <ele>27.054321</ele>
                <time>2009-05-30T08:55:46Z</time>
            </trkpt>
            <trkpt lon="101.016980" lat="14.397554">
                <ele>26.573608</ele>
                <time>2009-05-30T08:55:59Z</time>
            </trkpt>
            <trkpt lon="101.016980" lat="14.397554">
                <ele>31.860718</ele>
                <time>2009-05-30T08:57:03Z</time>
            </trkpt>
            <trkpt lon="101.016980" lat="14.397554">
                <ele>14.076416</ele>
                <time>2009-05-30T09:02:16Z</time>
            </trkpt>
            <trkpt lon="101.016980" lat="14.397554">
                <ele>11.673218</ele>
                <time>2009-05-30T09:03:15Z</time>
            </trkpt>
            <trkpt lon="101.016980" lat="14.397554">
                <ele>28.976929</ele>
                <time>2009-05-30T09:04:38Z</time>
            </trkpt>
            <trkpt lon="101.016980" lat="14.397554">
                <ele>30.899536</ele>
                <time>2009-05-30T09:04:41Z</time>
            </trkpt>
            <trkpt lon="101.016729" lat="14.397599">
                <ele>28.976929</ele>
                <time>2009-05-30T09:04:54Z</time>
            </trkpt>
            <trkpt lon="101.016729" lat="14.397599">
                <ele>27.054321</ele>
                <time>2009-05-30T09:05:01Z</time>
            </trkpt>
            <trkpt lon="101.016606" lat="14.397622">
                <ele>27.534912</ele>
                <time>2009-05-30T09:05:19Z</time>
            </trkpt>
            <trkpt lon="101.016606" lat="14.397622">
                <ele>27.534912</ele>
                <time>2009-05-30T09:05:25Z</time>
            </trkpt>
            <trkpt lon="101.016716" lat="14.397602">
                <ele>25.612305</ele>
                <time>2009-05-30T09:05:40Z</time>
            </trkpt>
            <trkpt lon="101.016770" lat="14.397592">
                <ele>26.092896</ele>
                <time>2009-05-30T09:05:56Z</time>
            </trkpt>
            <trkpt lon="101.016770" lat="14.397592">
                <ele>28.976929</ele>
                <time>2009-05-30T09:06:40Z</time>
            </trkpt>
            <trkpt lon="101.016853" lat="14.397660">
                <ele>29.457520</ele>
                <time>2009-05-30T09:06:50Z</time>
            </trkpt>
            <trkpt lon="101.016823" lat="14.397682">
                <ele>33.783447</ele>
                <time>2009-05-30T09:07:26Z</time>
            </trkpt>
            <trkpt lon="101.016848" lat="14.397692">
                <ele>38.590088</ele>
                <time>2009-05-30T09:08:13Z</time>
            </trkpt>
            <trkpt lon="101.016839" lat="14.397694">
                <ele>36.186768</ele>
                <time>2009-05-30T09:09:12Z</time>
            </trkpt>
            <trkpt lon="101.016834" lat="14.397644">
                <ele>34.264160</ele>
                <time>2009-05-30T09:09:22Z</time>
            </trkpt>
            <trkpt lon="101.016780" lat="14.397627">
                <ele>31.860718</ele>
                <time>2009-05-30T09:09:33Z</time>
            </trkpt>
            <trkpt lon="101.016725" lat="14.397611">
                <ele>31.860718</ele>
                <time>2009-05-30T09:09:39Z</time>
            </trkpt>
            <trkpt lon="101.016696" lat="14.397557">
                <ele>28.976929</ele>
                <time>2009-05-30T09:09:58Z</time>
            </trkpt>
            <trkpt lon="101.016710" lat="14.397558">
                <ele>27.534912</ele>
                <time>2009-05-30T09:10:31Z</time>
            </trkpt>
            <trkpt lon="101.016696" lat="14.397550">
                <ele>27.534912</ele>
                <time>2009-05-30T09:10:43Z</time>
            </trkpt>
            <trkpt lon="101.016691" lat="14.397545">
                <ele>30.899536</ele>
                <time>2009-05-30T09:11:29Z</time>
            </trkpt>
            <trkpt lon="101.016694" lat="14.397551">
                <ele>29.457520</ele>
                <time>2009-05-30T09:12:07Z</time>
            </trkpt>
            <trkpt lon="101.016700" lat="14.397537">
                <ele>31.380127</ele>
                <time>2009-05-30T09:13:43Z</time>
            </trkpt>
            <trkpt lon="101.016715" lat="14.397536">
                <ele>33.302856</ele>
                <time>2009-05-30T09:14:26Z</time>
            </trkpt>
            <trkpt lon="101.016717" lat="14.397543">
                <ele>32.341553</ele>
                <time>2009-05-30T09:15:23Z</time>
            </trkpt>
            <trkpt lon="101.016722" lat="14.397545">
                <ele>31.380127</ele>
                <time>2009-05-30T09:15:38Z</time>
            </trkpt>
            <trkpt lon="101.016719" lat="14.397545">
                <ele>28.496216</ele>
                <time>2009-05-30T09:17:33Z</time>
            </trkpt>
            <trkpt lon="101.016721" lat="14.397558">
                <ele>27.534912</ele>
                <time>2009-05-30T09:20:28Z</time>
            </trkpt>
            <trkpt lon="101.016732" lat="14.397545">
                <ele>28.496216</ele>
                <time>2009-05-30T09:20:52Z</time>
            </trkpt>
            <trkpt lon="101.016795" lat="14.397510">
                <ele>28.015503</ele>
                <time>2009-05-30T09:20:56Z</time>
            </trkpt>
            <trkpt lon="101.016912" lat="14.397566">
                <ele>28.015503</ele>
                <time>2009-05-30T09:20:59Z</time>
            </trkpt>
            <trkpt lon="101.017082" lat="14.397259">
                <ele>27.054321</ele>
                <time>2009-05-30T09:21:06Z</time>
            </trkpt>
            <trkpt lon="101.017059" lat="14.396982">
                <ele>26.092896</ele>
                <time>2009-05-30T09:21:10Z</time>
            </trkpt>
            <trkpt lon="101.017308" lat="14.396768">
                <ele>25.131714</ele>
                <time>2009-05-30T09:21:16Z</time>
            </trkpt>
            <trkpt lon="101.018252" lat="14.396545">
                <ele>24.170288</ele>
                <time>2009-05-30T09:21:30Z</time>
            </trkpt>
            <trkpt lon="101.018975" lat="14.396304">
                <ele>22.728272</ele>
                <time>2009-05-30T09:21:43Z</time>
            </trkpt>
            <trkpt lon="101.019805" lat="14.395905">
                <ele>23.208984</ele>
                <time>2009-05-30T09:21:56Z</time>
            </trkpt>
            <trkpt lon="101.019984" lat="14.395818">
                <ele>23.208984</ele>
                <time>2009-05-30T09:21:59Z</time>
            </trkpt>
            <trkpt lon="101.020251" lat="14.395948">
                <ele>23.689575</ele>
                <time>2009-05-30T09:22:05Z</time>
            </trkpt>
            <trkpt lon="101.020306" lat="14.396058">
                <ele>23.689575</ele>
                <time>2009-05-30T09:22:07Z</time>
            </trkpt>
            <trkpt lon="101.020651" lat="14.396830">
                <ele>25.131714</ele>
                <time>2009-05-30T09:22:21Z</time>
            </trkpt>
            <trkpt lon="101.020761" lat="14.397089">
                <ele>26.092896</ele>
                <time>2009-05-30T09:22:26Z</time>
            </trkpt>
            <trkpt lon="101.021002" lat="14.397248">
                <ele>24.651001</ele>
                <time>2009-05-30T09:22:33Z</time>
            </trkpt>
            <trkpt lon="101.021084" lat="14.397592">
                <ele>24.170288</ele>
                <time>2009-05-30T09:22:44Z</time>
            </trkpt>
            <trkpt lon="101.021213" lat="14.398064">
                <ele>27.054321</ele>
                <time>2009-05-30T09:23:00Z</time>
            </trkpt>
            <trkpt lon="101.021222" lat="14.398108">
                <ele>27.054321</ele>
                <time>2009-05-30T09:23:01Z</time>
            </trkpt>
            <trkpt lon="101.021270" lat="14.398296">
                <ele>26.573608</ele>
                <time>2009-05-30T09:23:05Z</time>
            </trkpt>
            <trkpt lon="101.021456" lat="14.398884">
                <ele>28.015503</ele>
                <time>2009-05-30T09:23:18Z</time>
            </trkpt>
            <trkpt lon="101.021619" lat="14.399313">
                <ele>29.938110</ele>
                <time>2009-05-30T09:23:34Z</time>
            </trkpt>
            <trkpt lon="101.021631" lat="14.399327">
                <ele>29.938110</ele>
                <time>2009-05-30T09:23:35Z</time>
            </trkpt>
            <trkpt lon="101.021734" lat="14.399334">
                <ele>29.457520</ele>
                <time>2009-05-30T09:23:39Z</time>
            </trkpt>
            <trkpt lon="101.022251" lat="14.399250">
                <ele>29.457520</ele>
                <time>2009-05-30T09:23:55Z</time>
            </trkpt>
            <trkpt lon="101.022732" lat="14.399179">
                <ele>28.976929</ele>
                <time>2009-05-30T09:24:09Z</time>
            </trkpt>
            <trkpt lon="101.022838" lat="14.399141">
                <ele>28.496216</ele>
                <time>2009-05-30T09:24:20Z</time>
            </trkpt>
            <trkpt lon="101.022901" lat="14.399125">
                <ele>28.976929</ele>
                <time>2009-05-30T09:24:29Z</time>
            </trkpt>
            <trkpt lon="101.023092" lat="14.399209">
                <ele>29.457520</ele>
                <time>2009-05-30T09:24:39Z</time>
            </trkpt>
            <trkpt lon="101.023390" lat="14.399353">
                <ele>29.457520</ele>
                <time>2009-05-30T09:24:52Z</time>
            </trkpt>
            <trkpt lon="101.023601" lat="14.399531">
                <ele>29.457520</ele>
                <time>2009-05-30T09:25:05Z</time>
            </trkpt>
            <trkpt lon="101.023706" lat="14.399828">
                <ele>30.899536</ele>
                <time>2009-05-30T09:25:18Z</time>
            </trkpt>
            <trkpt lon="101.023808" lat="14.400182">
                <ele>32.341553</ele>
                <time>2009-05-30T09:25:30Z</time>
            </trkpt>
            <trkpt lon="101.024116" lat="14.400820">
                <ele>35.706055</ele>
                <time>2009-05-30T09:25:52Z</time>
            </trkpt>
            <trkpt lon="101.024372" lat="14.401224">
                <ele>37.628662</ele>
                <time>2009-05-30T09:26:06Z</time>
            </trkpt>
            <trkpt lon="101.024672" lat="14.401561">
                <ele>39.551269</ele>
                <time>2009-05-30T09:26:19Z</time>
            </trkpt>
            <trkpt lon="101.024916" lat="14.401597">
                <ele>39.551269</ele>
                <time>2009-05-30T09:26:27Z</time>
            </trkpt>
            <trkpt lon="101.024985" lat="14.401584">
                <ele>39.551269</ele>
                <time>2009-05-30T09:26:30Z</time>
            </trkpt>
            <trkpt lon="101.025229" lat="14.401831">
                <ele>43.877319</ele>
                <time>2009-05-30T09:26:45Z</time>
            </trkpt>
            <trkpt lon="101.025350" lat="14.402096">
                <ele>47.722534</ele>
                <time>2009-05-30T09:26:58Z</time>
            </trkpt>
            <trkpt lon="101.025573" lat="14.402119">
                <ele>47.722534</ele>
                <time>2009-05-30T09:27:08Z</time>
            </trkpt>
            <trkpt lon="101.026117" lat="14.402038">
                <ele>45.799927</ele>
                <time>2009-05-30T09:27:22Z</time>
            </trkpt>
            <trkpt lon="101.026690" lat="14.401960">
                <ele>45.799927</ele>
                <time>2009-05-30T09:27:37Z</time>
            </trkpt>
            <trkpt lon="101.027427" lat="14.401960">
                <ele>46.280640</ele>
                <time>2009-05-30T09:27:55Z</time>
            </trkpt>
            <trkpt lon="101.027934" lat="14.401960">
                <ele>46.761231</ele>
                <time>2009-05-30T09:28:08Z</time>
            </trkpt>
            <trkpt lon="101.028554" lat="14.401860">
                <ele>45.799927</ele>
                <time>2009-05-30T09:28:23Z</time>
            </trkpt>
            <trkpt lon="101.028733" lat="14.401884">
                <ele>45.799927</ele>
                <time>2009-05-30T09:28:27Z</time>
            </trkpt>
            <trkpt lon="101.029108" lat="14.401893">
                <ele>45.799927</ele>
                <time>2009-05-30T09:28:34Z</time>
            </trkpt>
            <trkpt lon="101.029458" lat="14.401703">
                <ele>42.435425</ele>
                <time>2009-05-30T09:28:43Z</time>
            </trkpt>
            <trkpt lon="101.029899" lat="14.401771">
                <ele>41.954712</ele>
                <time>2009-05-30T09:28:47Z</time>
            </trkpt>
            <trkpt lon="101.030179" lat="14.401744">
                <ele>40.993408</ele>
                <time>2009-05-30T09:28:54Z</time>
            </trkpt>
            <trkpt lon="101.030207" lat="14.401750">
                <ele>42.916016</ele>
                <time>2009-05-30T09:29:02Z</time>
            </trkpt>
            <trkpt lon="101.030215" lat="14.401951">
                <ele>44.358032</ele>
                <time>2009-05-30T09:29:13Z</time>
            </trkpt>
            <trkpt lon="101.030526" lat="14.402041">
                <ele>45.799927</ele>
                <time>2009-05-30T09:29:23Z</time>
            </trkpt>
            <trkpt lon="101.030988" lat="14.402157">
                <ele>45.799927</ele>
                <time>2009-05-30T09:29:36Z</time>
            </trkpt>
            <trkpt lon="101.031291" lat="14.402243">
                <ele>44.838623</ele>
                <time>2009-05-30T09:29:43Z</time>
            </trkpt>
            <trkpt lon="101.031908" lat="14.402607">
                <ele>42.916016</ele>
                <time>2009-05-30T09:30:01Z</time>
            </trkpt>
            <trkpt lon="101.031951" lat="14.402636">
                <ele>42.916016</ele>
                <time>2009-05-30T09:30:03Z</time>
            </trkpt>
            <trkpt lon="101.032023" lat="14.402641">
                <ele>43.396606</ele>
                <time>2009-05-30T09:30:14Z</time>
            </trkpt>
            <trkpt lon="101.032026" lat="14.402644">
                <ele>43.396606</ele>
                <time>2009-05-30T09:30:15Z</time>
            </trkpt>
            <trkpt lon="101.032031" lat="14.402682">
                <ele>43.396606</ele>
                <time>2009-05-30T09:30:20Z</time>
            </trkpt>
            <trkpt lon="101.032204" lat="14.402859">
                <ele>43.396606</ele>
                <time>2009-05-30T09:30:31Z</time>
            </trkpt>
            <trkpt lon="101.032514" lat="14.403218">
                <ele>44.838623</ele>
                <time>2009-05-30T09:30:44Z</time>
            </trkpt>
            <trkpt lon="101.032508" lat="14.403350">
                <ele>44.358032</ele>
                <time>2009-05-30T09:30:47Z</time>
            </trkpt>
            <trkpt lon="101.032527" lat="14.403592">
                <ele>44.358032</ele>
                <time>2009-05-30T09:30:51Z</time>
            </trkpt>
            <trkpt lon="101.032483" lat="14.403821">
                <ele>44.838623</ele>
                <time>2009-05-30T09:30:55Z</time>
            </trkpt>
            <trkpt lon="101.032415" lat="14.403940">
                <ele>44.838623</ele>
                <time>2009-05-30T09:30:58Z</time>
            </trkpt>
            <trkpt lon="101.032561" lat="14.404237">
                <ele>44.838623</ele>
                <time>2009-05-30T09:31:06Z</time>
            </trkpt>
            <trkpt lon="101.032529" lat="14.404504">
                <ele>44.358032</ele>
                <time>2009-05-30T09:31:15Z</time>
            </trkpt>
            <trkpt lon="101.032496" lat="14.404698">
                <ele>45.319214</ele>
                <time>2009-05-30T09:31:20Z</time>
            </trkpt>
            <trkpt lon="101.032558" lat="14.404906">
                <ele>45.799927</ele>
                <time>2009-05-30T09:31:25Z</time>
            </trkpt>
            <trkpt lon="101.032838" lat="14.405078">
                <ele>46.280640</ele>
                <time>2009-05-30T09:31:33Z</time>
            </trkpt>
            <trkpt lon="101.032930" lat="14.405074">
                <ele>46.280640</ele>
                <time>2009-05-30T09:31:35Z</time>
            </trkpt>
            <trkpt lon="101.033236" lat="14.405208">
                <ele>46.761231</ele>
                <time>2009-05-30T09:31:45Z</time>
            </trkpt>
            <trkpt lon="101.033370" lat="14.405560">
                <ele>47.722534</ele>
                <time>2009-05-30T09:32:01Z</time>
            </trkpt>
            <trkpt lon="101.033405" lat="14.405608">
                <ele>48.683960</ele>
                <time>2009-05-30T09:32:04Z</time>
            </trkpt>
            <trkpt lon="101.033498" lat="14.405908">
                <ele>50.606567</ele>
                <time>2009-05-30T09:32:19Z</time>
            </trkpt>
            <trkpt lon="101.033618" lat="14.406240">
                <ele>54.451782</ele>
                <time>2009-05-30T09:32:36Z</time>
            </trkpt>
            <trkpt lon="101.033737" lat="14.406506">
                <ele>57.335815</ele>
                <time>2009-05-30T09:32:53Z</time>
            </trkpt>
            <trkpt lon="101.033882" lat="14.406816">
                <ele>60.219727</ele>
                <time>2009-05-30T09:33:13Z</time>
            </trkpt>
            <trkpt lon="101.034018" lat="14.407051">
                <ele>64.545654</ele>
                <time>2009-05-30T09:33:30Z</time>
            </trkpt>
            <trkpt lon="101.034125" lat="14.407212">
                <ele>66.468262</ele>
                <time>2009-05-30T09:33:43Z</time>
            </trkpt>
            <trkpt lon="101.034175" lat="14.407203">
                <ele>65.987671</ele>
                <time>2009-05-30T09:33:47Z</time>
            </trkpt>
            <trkpt lon="101.034465" lat="14.407067">
                <ele>62.622925</ele>
                <time>2009-05-30T09:34:00Z</time>
            </trkpt>
            <trkpt lon="101.034748" lat="14.406922">
                <ele>59.258423</ele>
                <time>2009-05-30T09:34:11Z</time>
            </trkpt>
            <trkpt lon="101.034965" lat="14.406802">
                <ele>56.855103</ele>
                <time>2009-05-30T09:34:20Z</time>
            </trkpt>
            <trkpt lon="101.035075" lat="14.406792">
                <ele>55.893799</ele>
                <time>2009-05-30T09:34:24Z</time>
            </trkpt>
            <trkpt lon="101.035181" lat="14.406703">
                <ele>54.932373</ele>
                <time>2009-05-30T09:34:28Z</time>
            </trkpt>
            <trkpt lon="101.035257" lat="14.406715">
                <ele>54.451782</ele>
                <time>2009-05-30T09:34:38Z</time>
            </trkpt>
            <trkpt lon="101.035285" lat="14.406705">
                <ele>53.009766</ele>
                <time>2009-05-30T09:34:43Z</time>
            </trkpt>
            <trkpt lon="101.035348" lat="14.406715">
                <ele>53.009766</ele>
                <time>2009-05-30T09:34:57Z</time>
            </trkpt>
            <trkpt lon="101.035450" lat="14.406686">
                <ele>54.932373</ele>
                <time>2009-05-30T09:35:11Z</time>
            </trkpt>
            <trkpt lon="101.035505" lat="14.406725">
                <ele>55.413086</ele>
                <time>2009-05-30T09:35:20Z</time>
            </trkpt>
            <trkpt lon="101.035535" lat="14.406764">
                <ele>56.374512</ele>
                <time>2009-05-30T09:35:24Z</time>
            </trkpt>
            <trkpt lon="101.035772" lat="14.407092">
                <ele>58.777710</ele>
                <time>2009-05-30T09:35:39Z</time>
            </trkpt>
            <trkpt lon="101.036171" lat="14.407340">
                <ele>61.181030</ele>
                <time>2009-05-30T09:35:57Z</time>
            </trkpt>
            <trkpt lon="101.036748" lat="14.407219">
                <ele>61.661743</ele>
                <time>2009-05-30T09:36:15Z</time>
            </trkpt>
            <trkpt lon="101.037390" lat="14.407026">
                <ele>62.142334</ele>
                <time>2009-05-30T09:36:30Z</time>
            </trkpt>
            <trkpt lon="101.037918" lat="14.406829">
                <ele>61.181030</ele>
                <time>2009-05-30T09:36:40Z</time>
            </trkpt>
            <trkpt lon="101.038963" lat="14.406533">
                <ele>56.855103</ele>
                <time>2009-05-30T09:36:57Z</time>
            </trkpt>
            <trkpt lon="101.039735" lat="14.406528">
                <ele>56.374512</ele>
                <time>2009-05-30T09:37:10Z</time>
            </trkpt>
            <trkpt lon="101.040887" lat="14.406347">
                <ele>55.413086</ele>
                <time>2009-05-30T09:37:27Z</time>
            </trkpt>
            <trkpt lon="101.041483" lat="14.406168">
                <ele>56.855103</ele>
                <time>2009-05-30T09:37:39Z</time>
            </trkpt>
            <trkpt lon="101.041962" lat="14.406037">
                <ele>59.258423</ele>
                <time>2009-05-30T09:37:54Z</time>
            </trkpt>
            <trkpt lon="101.042527" lat="14.406037">
                <ele>60.700317</ele>
                <time>2009-05-30T09:38:12Z</time>
            </trkpt>
            <trkpt lon="101.042848" lat="14.405799">
                <ele>63.103638</ele>
                <time>2009-05-30T09:38:24Z</time>
            </trkpt>
            <trkpt lon="101.042857" lat="14.405150">
                <ele>58.297119</ele>
                <time>2009-05-30T09:38:35Z</time>
            </trkpt>
            <trkpt lon="101.042861" lat="14.405070">
                <ele>58.297119</ele>
                <time>2009-05-30T09:38:36Z</time>
            </trkpt>
            <trkpt lon="101.042893" lat="14.404514">
                <ele>57.335815</ele>
                <time>2009-05-30T09:38:45Z</time>
            </trkpt>
            <trkpt lon="101.043031" lat="14.404474">
                <ele>57.335815</ele>
                <time>2009-05-30T09:38:52Z</time>
            </trkpt>
            <trkpt lon="101.043422" lat="14.404411">
                <ele>57.335815</ele>
                <time>2009-05-30T09:39:05Z</time>
            </trkpt>
            <trkpt lon="101.043732" lat="14.404407">
                <ele>55.413086</ele>
                <time>2009-05-30T09:39:16Z</time>
            </trkpt>
            <trkpt lon="101.043846" lat="14.404405">
                <ele>56.374512</ele>
                <time>2009-05-30T09:39:20Z</time>
            </trkpt>
            <trkpt lon="101.044230" lat="14.404445">
                <ele>57.816528</ele>
                <time>2009-05-30T09:39:31Z</time>
            </trkpt>
            <trkpt lon="101.044614" lat="14.404319">
                <ele>58.777710</ele>
                <time>2009-05-30T09:39:42Z</time>
            </trkpt>
            <trkpt lon="101.045076" lat="14.404301">
                <ele>59.739136</ele>
                <time>2009-05-30T09:39:55Z</time>
            </trkpt>
            <trkpt lon="101.045435" lat="14.404249">
                <ele>61.181030</ele>
                <time>2009-05-30T09:40:09Z</time>
            </trkpt>
            <trkpt lon="101.045695" lat="14.404185">
                <ele>62.622925</ele>
                <time>2009-05-30T09:40:22Z</time>
            </trkpt>
            <trkpt lon="101.045855" lat="14.404149">
                <ele>63.584351</ele>
                <time>2009-05-30T09:40:30Z</time>
            </trkpt>
            <trkpt lon="101.045952" lat="14.404150">
                <ele>65.026367</ele>
                <time>2009-05-30T09:40:35Z</time>
            </trkpt>
            <trkpt lon="101.046215" lat="14.404108">
                <ele>65.507080</ele>
                <time>2009-05-30T09:40:47Z</time>
            </trkpt>
            <trkpt lon="101.046446" lat="14.403972">
                <ele>65.507080</ele>
                <time>2009-05-30T09:41:00Z</time>
            </trkpt>
            <trkpt lon="101.046653" lat="14.403749">
                <ele>64.545654</ele>
                <time>2009-05-30T09:41:12Z</time>
            </trkpt>
            <trkpt lon="101.046854" lat="14.403658">
                <ele>65.507080</ele>
                <time>2009-05-30T09:41:24Z</time>
            </trkpt>
            <trkpt lon="101.046893" lat="14.403645">
                <ele>67.910278</ele>
                <time>2009-05-30T09:41:37Z</time>
            </trkpt>
            <trkpt lon="101.046961" lat="14.403620">
                <ele>68.871582</ele>
                <time>2009-05-30T09:41:55Z</time>
            </trkpt>
            <trkpt lon="101.047034" lat="14.403625">
                <ele>68.871582</ele>
                <time>2009-05-30T09:42:13Z</time>
            </trkpt>
            <trkpt lon="101.047112" lat="14.403615">
                <ele>70.313477</ele>
                <time>2009-05-30T09:42:27Z</time>
            </trkpt>
            <trkpt lon="101.047136" lat="14.403612">
                <ele>70.794190</ele>
                <time>2009-05-30T09:42:29Z</time>
            </trkpt>
            <trkpt lon="101.047231" lat="14.403589">
                <ele>70.794190</ele>
                <time>2009-05-30T09:42:35Z</time>
            </trkpt>
            <trkpt lon="101.047290" lat="14.403581">
                <ele>71.274902</ele>
                <time>2009-05-30T09:42:39Z</time>
            </trkpt>
            <trkpt lon="101.047538" lat="14.403459">
                <ele>73.197632</ele>
                <time>2009-05-30T09:42:53Z</time>
            </trkpt>
            <trkpt lon="101.047649" lat="14.403388">
                <ele>77.042847</ele>
                <time>2009-05-30T09:43:02Z</time>
            </trkpt>
            <trkpt lon="101.047703" lat="14.403380">
                <ele>77.523438</ele>
                <time>2009-05-30T09:43:06Z</time>
            </trkpt>
            <trkpt lon="101.047957" lat="14.403332">
                <ele>74.639526</ele>
                <time>2009-05-30T09:43:19Z</time>
            </trkpt>
            <trkpt lon="101.047970" lat="14.403328">
                <ele>74.639526</ele>
                <time>2009-05-30T09:43:20Z</time>
            </trkpt>
            <trkpt lon="101.048099" lat="14.403221">
                <ele>72.716919</ele>
                <time>2009-05-30T09:43:30Z</time>
            </trkpt>
            <trkpt lon="101.048224" lat="14.403228">
                <ele>71.274902</ele>
                <time>2009-05-30T09:43:37Z</time>
            </trkpt>
            <trkpt lon="101.048412" lat="14.403131">
                <ele>74.158813</ele>
                <time>2009-05-30T09:43:52Z</time>
            </trkpt>
            <trkpt lon="101.048495" lat="14.403070">
                <ele>77.042847</ele>
                <time>2009-05-30T09:44:04Z</time>
            </trkpt>
            <trkpt lon="101.048579" lat="14.403007">
                <ele>78.965454</ele>
                <time>2009-05-30T09:44:17Z</time>
            </trkpt>
            <trkpt lon="101.048681" lat="14.402940">
                <ele>80.888184</ele>
                <time>2009-05-30T09:44:32Z</time>
            </trkpt>
            <trkpt lon="101.048702" lat="14.402936">
                <ele>80.888184</ele>
                <time>2009-05-30T09:44:34Z</time>
            </trkpt>
            <trkpt lon="101.048828" lat="14.402913">
                <ele>80.407471</ele>
                <time>2009-05-30T09:44:45Z</time>
            </trkpt>
            <trkpt lon="101.048912" lat="14.402930">
                <ele>81.368774</ele>
                <time>2009-05-30T09:44:54Z</time>
            </trkpt>
            <trkpt lon="101.049061" lat="14.402882">
                <ele>83.291382</ele>
                <time>2009-05-30T09:45:10Z</time>
            </trkpt>
            <trkpt lon="101.049216" lat="14.402829">
                <ele>82.810791</ele>
                <time>2009-05-30T09:45:24Z</time>
            </trkpt>
            <trkpt lon="101.049287" lat="14.402827">
                <ele>81.849365</ele>
                <time>2009-05-30T09:45:33Z</time>
            </trkpt>
            <trkpt lon="101.049508" lat="14.402918">
                <ele>77.523438</ele>
                <time>2009-05-30T09:45:47Z</time>
            </trkpt>
            <trkpt lon="101.049517" lat="14.402917">
                <ele>77.523438</ele>
                <time>2009-05-30T09:45:48Z</time>
            </trkpt>
            <trkpt lon="101.049569" lat="14.402917">
                <ele>76.562134</ele>
                <time>2009-05-30T09:45:51Z</time>
            </trkpt>
            <trkpt lon="101.049702" lat="14.402879">
                <ele>75.600830</ele>
                <time>2009-05-30T09:45:58Z</time>
            </trkpt>
            <trkpt lon="101.049847" lat="14.402863">
                <ele>76.081421</ele>
                <time>2009-05-30T09:46:07Z</time>
            </trkpt>
            <trkpt lon="101.049954" lat="14.402894">
                <ele>77.042847</ele>
                <time>2009-05-30T09:46:14Z</time>
            </trkpt>
            <trkpt lon="101.050135" lat="14.402910">
                <ele>79.926636</ele>
                <time>2009-05-30T09:46:26Z</time>
            </trkpt>
            <trkpt lon="101.050166" lat="14.402901">
                <ele>80.407471</ele>
                <time>2009-05-30T09:46:29Z</time>
            </trkpt>
            <trkpt lon="101.050190" lat="14.402877">
                <ele>80.407471</ele>
                <time>2009-05-30T09:46:46Z</time>
            </trkpt>
            <trkpt lon="101.050151" lat="14.402906">
                <ele>79.446045</ele>
                <time>2009-05-30T09:47:00Z</time>
            </trkpt>
            <trkpt lon="101.050115" lat="14.402915">
                <ele>78.965454</ele>
                <time>2009-05-30T09:47:13Z</time>
            </trkpt>
            <trkpt lon="101.050043" lat="14.402909">
                <ele>78.484741</ele>
                <time>2009-05-30T09:47:20Z</time>
            </trkpt>
            <trkpt lon="101.050032" lat="14.402890">
                <ele>77.523438</ele>
                <time>2009-05-30T09:47:26Z</time>
            </trkpt>
            <trkpt lon="101.050176" lat="14.402715">
                <ele>78.004028</ele>
                <time>2009-05-30T09:47:39Z</time>
            </trkpt>
            <trkpt lon="101.050374" lat="14.402518">
                <ele>77.042847</ele>
                <time>2009-05-30T09:47:53Z</time>
            </trkpt>
            <trkpt lon="101.050597" lat="14.402288">
                <ele>76.562134</ele>
                <time>2009-05-30T09:48:06Z</time>
            </trkpt>
            <trkpt lon="101.050711" lat="14.402058">
                <ele>74.639526</ele>
                <time>2009-05-30T09:48:18Z</time>
            </trkpt>
            <trkpt lon="101.050725" lat="14.401937">
                <ele>74.158813</ele>
                <time>2009-05-30T09:48:23Z</time>
            </trkpt>
            <trkpt lon="101.050870" lat="14.401689">
                <ele>73.197632</ele>
                <time>2009-05-30T09:48:34Z</time>
            </trkpt>
            <trkpt lon="101.050909" lat="14.401606">
                <ele>73.197632</ele>
                <time>2009-05-30T09:48:41Z</time>
            </trkpt>
            <trkpt lon="101.051070" lat="14.401473">
                <ele>71.755493</ele>
                <time>2009-05-30T09:48:53Z</time>
            </trkpt>
            <trkpt lon="101.051222" lat="14.401246">
                <ele>72.236206</ele>
                <time>2009-05-30T09:49:06Z</time>
            </trkpt>
            <trkpt lon="101.051360" lat="14.400974">
                <ele>71.274902</ele>
                <time>2009-05-30T09:49:19Z</time>
            </trkpt>
            <trkpt lon="101.051433" lat="14.400699">
                <ele>68.390869</ele>
                <time>2009-05-30T09:49:29Z</time>
            </trkpt>
            <trkpt lon="101.051443" lat="14.400677">
                <ele>67.910278</ele>
                <time>2009-05-30T09:49:30Z</time>
            </trkpt>
            <trkpt lon="101.051410" lat="14.400442">
                <ele>65.987671</ele>
                <time>2009-05-30T09:49:38Z</time>
            </trkpt>
            <trkpt lon="101.051477" lat="14.400149">
                <ele>66.468262</ele>
                <time>2009-05-30T09:49:48Z</time>
            </trkpt>
            <trkpt lon="101.051893" lat="14.399803">
                <ele>65.987671</ele>
                <time>2009-05-30T09:50:05Z</time>
            </trkpt>
            <trkpt lon="101.051882" lat="14.399623">
                <ele>65.507080</ele>
                <time>2009-05-30T09:50:10Z</time>
            </trkpt>
            <trkpt lon="101.051769" lat="14.399166">
                <ele>62.622925</ele>
                <time>2009-05-30T09:50:22Z</time>
            </trkpt>
            <trkpt lon="101.051629" lat="14.398935">
                <ele>59.739136</ele>
                <time>2009-05-30T09:50:30Z</time>
            </trkpt>
            <trkpt lon="101.051617" lat="14.398894">
                <ele>59.739136</ele>
                <time>2009-05-30T09:50:31Z</time>
            </trkpt>
            <trkpt lon="101.051595" lat="14.398432">
                <ele>60.219727</ele>
                <time>2009-05-30T09:50:43Z</time>
            </trkpt>
            <trkpt lon="101.051875" lat="14.398111">
                <ele>57.335815</ele>
                <time>2009-05-30T09:50:56Z</time>
            </trkpt>
            <trkpt lon="101.052305" lat="14.397935">
                <ele>57.816528</ele>
                <time>2009-05-30T09:51:09Z</time>
            </trkpt>
            <trkpt lon="101.052550" lat="14.397823">
                <ele>58.777710</ele>
                <time>2009-05-30T09:51:20Z</time>
            </trkpt>
            <trkpt lon="101.052564" lat="14.397813">
                <ele>59.258423</ele>
                <time>2009-05-30T09:51:27Z</time>
            </trkpt>
            <trkpt lon="101.052676" lat="14.397790">
                <ele>60.700317</ele>
                <time>2009-05-30T09:51:35Z</time>
            </trkpt>
            <trkpt lon="101.053006" lat="14.397702">
                <ele>61.661743</ele>
                <time>2009-05-30T09:51:51Z</time>
            </trkpt>
            <trkpt lon="101.053123" lat="14.397658">
                <ele>62.142334</ele>
                <time>2009-05-30T09:51:56Z</time>
            </trkpt>
            <trkpt lon="101.053254" lat="14.397529">
                <ele>63.103638</ele>
                <time>2009-05-30T09:52:09Z</time>
            </trkpt>
            <trkpt lon="101.053211" lat="14.397407">
                <ele>62.142334</ele>
                <time>2009-05-30T09:52:14Z</time>
            </trkpt>
            <trkpt lon="101.053186" lat="14.397332">
                <ele>61.661743</ele>
                <time>2009-05-30T09:52:17Z</time>
            </trkpt>
            <trkpt lon="101.053157" lat="14.397087">
                <ele>59.258423</ele>
                <time>2009-05-30T09:52:27Z</time>
            </trkpt>
            <trkpt lon="101.053081" lat="14.396726">
                <ele>57.335815</ele>
                <time>2009-05-30T09:52:38Z</time>
            </trkpt>
            <trkpt lon="101.053032" lat="14.396673">
                <ele>57.335815</ele>
                <time>2009-05-30T09:52:41Z</time>
            </trkpt>
            <trkpt lon="101.053061" lat="14.396604">
                <ele>56.855103</ele>
                <time>2009-05-30T09:52:46Z</time>
            </trkpt>
            <trkpt lon="101.053431" lat="14.396453">
                <ele>55.413086</ele>
                <time>2009-05-30T09:53:00Z</time>
            </trkpt>
            <trkpt lon="101.053956" lat="14.396183">
                <ele>58.777710</ele>
                <time>2009-05-30T09:53:16Z</time>
            </trkpt>
            <trkpt lon="101.054383" lat="14.395954">
                <ele>61.181030</ele>
                <time>2009-05-30T09:53:30Z</time>
            </trkpt>
            <trkpt lon="101.054614" lat="14.395832">
                <ele>63.584351</ele>
                <time>2009-05-30T09:53:40Z</time>
            </trkpt>
            <trkpt lon="101.054925" lat="14.395745">
                <ele>67.910278</ele>
                <time>2009-05-30T09:53:56Z</time>
            </trkpt>
            <trkpt lon="101.055158" lat="14.395621">
                <ele>70.313477</ele>
                <time>2009-05-30T09:54:11Z</time>
            </trkpt>
            <trkpt lon="101.055334" lat="14.395405">
                <ele>65.507080</ele>
                <time>2009-05-30T09:54:24Z</time>
            </trkpt>
            <trkpt lon="101.055684" lat="14.395224">
                <ele>64.065063</ele>
                <time>2009-05-30T09:54:37Z</time>
            </trkpt>
            <trkpt lon="101.055785" lat="14.395224">
                <ele>63.103638</ele>
                <time>2009-05-30T09:54:40Z</time>
            </trkpt>
            <trkpt lon="101.056191" lat="14.395349">
                <ele>61.181030</ele>
                <time>2009-05-30T09:54:53Z</time>
            </trkpt>
            <trkpt lon="101.056566" lat="14.395509">
                <ele>62.142334</ele>
                <time>2009-05-30T09:55:06Z</time>
            </trkpt>
            <trkpt lon="101.056983" lat="14.395662">
                <ele>62.622925</ele>
                <time>2009-05-30T09:55:21Z</time>
            </trkpt>
            <trkpt lon="101.057160" lat="14.395692">
                <ele>62.142334</ele>
                <time>2009-05-30T09:55:26Z</time>
            </trkpt>
            <trkpt lon="101.057293" lat="14.395698">
                <ele>62.142334</ele>
                <time>2009-05-30T09:55:29Z</time>
            </trkpt>
            <trkpt lon="101.057806" lat="14.395726">
                <ele>60.700317</ele>
                <time>2009-05-30T09:55:42Z</time>
            </trkpt>
            <trkpt lon="101.058003" lat="14.395558">
                <ele>58.777710</ele>
                <time>2009-05-30T09:55:51Z</time>
            </trkpt>
            <trkpt lon="101.058059" lat="14.395464">
                <ele>57.335815</ele>
                <time>2009-05-30T09:55:54Z</time>
            </trkpt>
            <trkpt lon="101.058313" lat="14.395445">
                <ele>55.893799</ele>
                <time>2009-05-30T09:56:01Z</time>
            </trkpt>
            <trkpt lon="101.058841" lat="14.395749">
                <ele>55.413086</ele>
                <time>2009-05-30T09:56:17Z</time>
            </trkpt>
            <trkpt lon="101.058863" lat="14.395753">
                <ele>54.932373</ele>
                <time>2009-05-30T09:56:25Z</time>
            </trkpt>
            <trkpt lon="101.058823" lat="14.395768">
                <ele>55.413086</ele>
                <time>2009-05-30T09:56:31Z</time>
            </trkpt>
            <trkpt lon="101.058869" lat="14.395852">
                <ele>55.893799</ele>
                <time>2009-05-30T09:56:36Z</time>
            </trkpt>
            <trkpt lon="101.058995" lat="14.396057">
                <ele>55.893799</ele>
                <time>2009-05-30T09:56:46Z</time>
            </trkpt>
            <trkpt lon="101.059021" lat="14.396128">
                <ele>55.413086</ele>
                <time>2009-05-30T09:56:49Z</time>
            </trkpt>
            <trkpt lon="101.059055" lat="14.396225">
                <ele>54.932373</ele>
                <time>2009-05-30T09:56:54Z</time>
            </trkpt>
            <trkpt lon="101.059156" lat="14.396318">
                <ele>56.855103</ele>
                <time>2009-05-30T09:57:00Z</time>
            </trkpt>
            <trkpt lon="101.059235" lat="14.396421">
                <ele>59.739136</ele>
                <time>2009-05-30T09:57:10Z</time>
            </trkpt>
            <trkpt lon="101.059275" lat="14.396520">
                <ele>60.700317</ele>
                <time>2009-05-30T09:57:16Z</time>
            </trkpt>
            <trkpt lon="101.059339" lat="14.396570">
                <ele>59.739136</ele>
                <time>2009-05-30T09:57:20Z</time>
            </trkpt>
            <trkpt lon="101.059444" lat="14.396586">
                <ele>59.258423</ele>
                <time>2009-05-30T09:57:24Z</time>
            </trkpt>
            <trkpt lon="101.059612" lat="14.396776">
                <ele>60.219727</ele>
                <time>2009-05-30T09:57:35Z</time>
            </trkpt>
            <trkpt lon="101.059640" lat="14.396789">
                <ele>60.700317</ele>
                <time>2009-05-30T09:57:37Z</time>
            </trkpt>
            <trkpt lon="101.059921" lat="14.396906">
                <ele>61.661743</ele>
                <time>2009-05-30T09:57:51Z</time>
            </trkpt>
            <trkpt lon="101.060175" lat="14.397004">
                <ele>64.065063</ele>
                <time>2009-05-30T09:58:08Z</time>
            </trkpt>
            <trkpt lon="101.060411" lat="14.397106">
                <ele>66.948975</ele>
                <time>2009-05-30T09:58:26Z</time>
            </trkpt>
            <trkpt lon="101.060525" lat="14.397245">
                <ele>68.390869</ele>
                <time>2009-05-30T09:58:40Z</time>
            </trkpt>
            <trkpt lon="101.060578" lat="14.397296">
                <ele>69.352295</ele>
                <time>2009-05-30T09:58:45Z</time>
            </trkpt>
            <trkpt lon="101.060632" lat="14.397596">
                <ele>69.352295</ele>
                <time>2009-05-30T09:59:03Z</time>
            </trkpt>
            <trkpt lon="101.060651" lat="14.398115">
                <ele>67.910278</ele>
                <time>2009-05-30T09:59:18Z</time>
            </trkpt>
            <trkpt lon="101.060727" lat="14.398611">
                <ele>66.468262</ele>
                <time>2009-05-30T09:59:36Z</time>
            </trkpt>
            <trkpt lon="101.060851" lat="14.398795">
                <ele>69.352295</ele>
                <time>2009-05-30T09:59:50Z</time>
            </trkpt>
            <trkpt lon="101.060956" lat="14.398982">
                <ele>73.678223</ele>
                <time>2009-05-30T10:00:07Z</time>
            </trkpt>
            <trkpt lon="101.061051" lat="14.399100">
                <ele>76.562134</ele>
                <time>2009-05-30T10:00:25Z</time>
            </trkpt>
            <trkpt lon="101.061126" lat="14.399178">
                <ele>78.965454</ele>
                <time>2009-05-30T10:00:38Z</time>
            </trkpt>
            <trkpt lon="101.061218" lat="14.399286">
                <ele>84.252685</ele>
                <time>2009-05-30T10:00:58Z</time>
            </trkpt>
            <trkpt lon="101.061291" lat="14.399355">
                <ele>88.578735</ele>
                <time>2009-05-30T10:01:20Z</time>
            </trkpt>
            <trkpt lon="101.061329" lat="14.399379">
                <ele>87.617188</ele>
                <time>2009-05-30T10:01:37Z</time>
            </trkpt>
            <trkpt lon="101.061375" lat="14.399416">
                <ele>91.462524</ele>
                <time>2009-05-30T10:01:52Z</time>
            </trkpt>
            <trkpt lon="101.061405" lat="14.399451">
                <ele>92.904541</ele>
                <time>2009-05-30T10:02:07Z</time>
            </trkpt>
            <trkpt lon="101.061435" lat="14.399466">
                <ele>91.943237</ele>
                <time>2009-05-30T10:02:23Z</time>
            </trkpt>
            <trkpt lon="101.061443" lat="14.399492">
                <ele>94.346558</ele>
                <time>2009-05-30T10:02:39Z</time>
            </trkpt>
            <trkpt lon="101.061449" lat="14.399515">
                <ele>94.827148</ele>
                <time>2009-05-30T10:02:56Z</time>
            </trkpt>
            <trkpt lon="101.061473" lat="14.399542">
                <ele>96.269287</ele>
                <time>2009-05-30T10:03:12Z</time>
            </trkpt>
            <trkpt lon="101.061493" lat="14.399563">
                <ele>96.269287</ele>
                <time>2009-05-30T10:03:28Z</time>
            </trkpt>
            <trkpt lon="101.061526" lat="14.399586">
                <ele>98.672485</ele>
                <time>2009-05-30T10:03:43Z</time>
            </trkpt>
            <trkpt lon="101.061555" lat="14.399618">
                <ele>97.230469</ele>
                <time>2009-05-30T10:04:01Z</time>
            </trkpt>
            <trkpt lon="101.061573" lat="14.399635">
                <ele>95.307739</ele>
                <time>2009-05-30T10:04:16Z</time>
            </trkpt>
            <trkpt lon="101.061591" lat="14.399653">
                <ele>94.827148</ele>
                <time>2009-05-30T10:04:32Z</time>
            </trkpt>
            <trkpt lon="101.061634" lat="14.399683">
                <ele>100.114502</ele>
                <time>2009-05-30T10:04:47Z</time>
            </trkpt>
            <trkpt lon="101.061661" lat="14.399721">
                <ele>102.037109</ele>
                <time>2009-05-30T10:05:02Z</time>
            </trkpt>
            <trkpt lon="101.061770" lat="14.399802">
                <ele>106.363037</ele>
                <time>2009-05-30T10:05:23Z</time>
            </trkpt>
            <trkpt lon="101.061886" lat="14.399894">
                <ele>108.766235</ele>
                <time>2009-05-30T10:05:44Z</time>
            </trkpt>
            <trkpt lon="101.061948" lat="14.399933">
                <ele>108.766235</ele>
                <time>2009-05-30T10:06:02Z</time>
            </trkpt>
            <trkpt lon="101.062037" lat="14.399983">
                <ele>106.363037</ele>
                <time>2009-05-30T10:06:37Z</time>
            </trkpt>
            <trkpt lon="101.062157" lat="14.400043">
                <ele>102.998291</ele>
                <time>2009-05-30T10:06:50Z</time>
            </trkpt>
            <trkpt lon="101.062167" lat="14.400047">
                <ele>102.517700</ele>
                <time>2009-05-30T10:06:51Z</time>
            </trkpt>
            <trkpt lon="101.062286" lat="14.400076">
                <ele>100.595093</ele>
                <time>2009-05-30T10:07:04Z</time>
            </trkpt>
            <trkpt lon="101.062589" lat="14.399968">
                <ele>93.385132</ele>
                <time>2009-05-30T10:07:18Z</time>
            </trkpt>
            <trkpt lon="101.062623" lat="14.399951">
                <ele>92.423950</ele>
                <time>2009-05-30T10:07:19Z</time>
            </trkpt>
            <trkpt lon="101.062755" lat="14.399905">
                <ele>90.981934</ele>
                <time>2009-05-30T10:07:22Z</time>
            </trkpt>
            <trkpt lon="101.062976" lat="14.399828">
                <ele>89.059326</ele>
                <time>2009-05-30T10:07:27Z</time>
            </trkpt>
            <trkpt lon="101.063417" lat="14.399675">
                <ele>81.368774</ele>
                <time>2009-05-30T10:07:39Z</time>
            </trkpt>
            <trkpt lon="101.063754" lat="14.399574">
                <ele>77.042847</ele>
                <time>2009-05-30T10:07:50Z</time>
            </trkpt>
            <trkpt lon="101.063949" lat="14.399503">
                <ele>76.562134</ele>
                <time>2009-05-30T10:07:58Z</time>
            </trkpt>
            <trkpt lon="101.064005" lat="14.399491">
                <ele>76.562134</ele>
                <time>2009-05-30T10:08:20Z</time>
            </trkpt>
            <trkpt lon="101.064046" lat="14.399472">
                <ele>76.081421</ele>
                <time>2009-05-30T10:08:37Z</time>
            </trkpt>
            <trkpt lon="101.064161" lat="14.399420">
                <ele>75.120239</ele>
                <time>2009-05-30T10:08:48Z</time>
            </trkpt>
            <trkpt lon="101.064708" lat="14.399175">
                <ele>73.197632</ele>
                <time>2009-05-30T10:09:02Z</time>
            </trkpt>
            <trkpt lon="101.064746" lat="14.399150">
                <ele>73.197632</ele>
                <time>2009-05-30T10:09:03Z</time>
            </trkpt>
            <trkpt lon="101.065023" lat="14.398801">
                <ele>71.755493</ele>
                <time>2009-05-30T10:09:16Z</time>
            </trkpt>
            <trkpt lon="101.065188" lat="14.398494">
                <ele>71.755493</ele>
                <time>2009-05-30T10:09:28Z</time>
            </trkpt>
            <trkpt lon="101.065434" lat="14.398339">
                <ele>72.236206</ele>
                <time>2009-05-30T10:09:39Z</time>
            </trkpt>
            <trkpt lon="101.065838" lat="14.398125">
                <ele>72.236206</ele>
                <time>2009-05-30T10:09:51Z</time>
            </trkpt>
            <trkpt lon="101.066020" lat="14.398013">
                <ele>71.755493</ele>
                <time>2009-05-30T10:09:56Z</time>
            </trkpt>
            <trkpt lon="101.066327" lat="14.397880">
                <ele>69.352295</ele>
                <time>2009-05-30T10:10:04Z</time>
            </trkpt>
            <trkpt lon="101.066829" lat="14.397543">
                <ele>68.871582</ele>
                <time>2009-05-30T10:10:17Z</time>
            </trkpt>
            <trkpt lon="101.067166" lat="14.397582">
                <ele>66.468262</ele>
                <time>2009-05-30T10:10:27Z</time>
            </trkpt>
            <trkpt lon="101.067785" lat="14.397372">
                <ele>63.584351</ele>
                <time>2009-05-30T10:10:41Z</time>
            </trkpt>
            <trkpt lon="101.068213" lat="14.396990">
                <ele>61.181030</ele>
                <time>2009-05-30T10:10:53Z</time>
            </trkpt>
            <trkpt lon="101.068595" lat="14.396790">
                <ele>59.739136</ele>
                <time>2009-05-30T10:11:02Z</time>
            </trkpt>
            <trkpt lon="101.069122" lat="14.396472">
                <ele>56.855103</ele>
                <time>2009-05-30T10:11:16Z</time>
            </trkpt>
            <trkpt lon="101.069155" lat="14.396501">
                <ele>56.855103</ele>
                <time>2009-05-30T10:11:20Z</time>
            </trkpt>
            <trkpt lon="101.069176" lat="14.396590">
                <ele>56.374512</ele>
                <time>2009-05-30T10:11:24Z</time>
            </trkpt>
            <trkpt lon="101.069406" lat="14.396578">
                <ele>54.451782</ele>
                <time>2009-05-30T10:11:35Z</time>
            </trkpt>
            <trkpt lon="101.069724" lat="14.396599">
                <ele>54.451782</ele>
                <time>2009-05-30T10:11:48Z</time>
            </trkpt>
            <trkpt lon="101.070139" lat="14.396573">
                <ele>54.451782</ele>
                <time>2009-05-30T10:12:01Z</time>
            </trkpt>
            <trkpt lon="101.070508" lat="14.396454">
                <ele>53.490479</ele>
                <time>2009-05-30T10:12:13Z</time>
            </trkpt>
            <trkpt lon="101.071042" lat="14.396342">
                <ele>51.087158</ele>
                <time>2009-05-30T10:12:28Z</time>
            </trkpt>
            <trkpt lon="101.071534" lat="14.396255">
                <ele>51.567871</ele>
                <time>2009-05-30T10:12:43Z</time>
            </trkpt>
            <trkpt lon="101.072008" lat="14.396150">
                <ele>52.048584</ele>
                <time>2009-05-30T10:12:59Z</time>
            </trkpt>
            <trkpt lon="101.072410" lat="14.396059">
                <ele>53.971191</ele>
                <time>2009-05-30T10:13:13Z</time>
            </trkpt>
            <trkpt lon="101.072942" lat="14.395950">
                <ele>52.529175</ele>
                <time>2009-05-30T10:13:29Z</time>
            </trkpt>
            <trkpt lon="101.073234" lat="14.396061">
                <ele>52.529175</ele>
                <time>2009-05-30T10:13:39Z</time>
            </trkpt>
            <trkpt lon="101.073694" lat="14.396276">
                <ele>52.529175</ele>
                <time>2009-05-30T10:13:53Z</time>
            </trkpt>
            <trkpt lon="101.073971" lat="14.396471">
                <ele>53.490479</ele>
                <time>2009-05-30T10:14:05Z</time>
            </trkpt>
            <trkpt lon="101.074249" lat="14.396738">
                <ele>52.529175</ele>
                <time>2009-05-30T10:14:18Z</time>
            </trkpt>
            <trkpt lon="101.074566" lat="14.397011">
                <ele>51.087158</ele>
                <time>2009-05-30T10:14:32Z</time>
            </trkpt>
            <trkpt lon="101.074831" lat="14.397179">
                <ele>49.645264</ele>
                <time>2009-05-30T10:14:40Z</time>
            </trkpt>
            <trkpt lon="101.074951" lat="14.397528">
                <ele>49.164551</ele>
                <time>2009-05-30T10:14:50Z</time>
            </trkpt>
            <trkpt lon="101.074992" lat="14.397620">
                <ele>49.164551</ele>
                <time>2009-05-30T10:14:53Z</time>
            </trkpt>
            <trkpt lon="101.075126" lat="14.398163">
                <ele>48.683960</ele>
                <time>2009-05-30T10:15:08Z</time>
            </trkpt>
            <trkpt lon="101.075350" lat="14.398447">
                <ele>48.683960</ele>
                <time>2009-05-30T10:15:21Z</time>
            </trkpt>
            <trkpt lon="101.075584" lat="14.398713">
                <ele>51.567871</ele>
                <time>2009-05-30T10:15:36Z</time>
            </trkpt>
            <trkpt lon="101.075811" lat="14.398937">
                <ele>54.451782</ele>
                <time>2009-05-30T10:15:50Z</time>
            </trkpt>
            <trkpt lon="101.075992" lat="14.399185">
                <ele>56.855103</ele>
                <time>2009-05-30T10:16:08Z</time>
            </trkpt>
            <trkpt lon="101.076226" lat="14.399419">
                <ele>58.777710</ele>
                <time>2009-05-30T10:16:24Z</time>
            </trkpt>
            <trkpt lon="101.076475" lat="14.399669">
                <ele>58.777710</ele>
                <time>2009-05-30T10:16:37Z</time>
            </trkpt>
            <trkpt lon="101.076688" lat="14.399997">
                <ele>57.335815</ele>
                <time>2009-05-30T10:16:49Z</time>
            </trkpt>
            <trkpt lon="101.076907" lat="14.400447">
                <ele>54.932373</ele>
                <time>2009-05-30T10:17:01Z</time>
            </trkpt>
            <trkpt lon="101.076988" lat="14.400761">
                <ele>53.490479</ele>
                <time>2009-05-30T10:17:10Z</time>
            </trkpt>
            <trkpt lon="101.077167" lat="14.400986">
                <ele>52.048584</ele>
                <time>2009-05-30T10:17:19Z</time>
            </trkpt>
            <trkpt lon="101.077237" lat="14.401274">
                <ele>50.606567</ele>
                <time>2009-05-30T10:17:29Z</time>
            </trkpt>
            <trkpt lon="101.077389" lat="14.401661">
                <ele>51.567871</ele>
                <time>2009-05-30T10:17:41Z</time>
            </trkpt>
            <trkpt lon="101.077669" lat="14.401857">
                <ele>54.451782</ele>
                <time>2009-05-30T10:17:52Z</time>
            </trkpt>
            <trkpt lon="101.078061" lat="14.401875">
                <ele>55.893799</ele>
                <time>2009-05-30T10:18:04Z</time>
            </trkpt>
            <trkpt lon="101.078498" lat="14.401917">
                <ele>56.855103</ele>
                <time>2009-05-30T10:18:17Z</time>
            </trkpt>
            <trkpt lon="101.078951" lat="14.401950">
                <ele>57.335815</ele>
                <time>2009-05-30T10:18:32Z</time>
            </trkpt>
            <trkpt lon="101.079235" lat="14.402122">
                <ele>55.413086</ele>
                <time>2009-05-30T10:18:43Z</time>
            </trkpt>
            <trkpt lon="101.079400" lat="14.402224">
                <ele>53.971191</ele>
                <time>2009-05-30T10:18:47Z</time>
            </trkpt>
            <trkpt lon="101.079820" lat="14.402440">
                <ele>53.009766</ele>
                <time>2009-05-30T10:18:55Z</time>
            </trkpt>
            <trkpt lon="101.080503" lat="14.402635">
                <ele>54.932373</ele>
                <time>2009-05-30T10:19:10Z</time>
            </trkpt>
            <trkpt lon="101.080753" lat="14.402798">
                <ele>55.893799</ele>
                <time>2009-05-30T10:19:21Z</time>
            </trkpt>
            <trkpt lon="101.081086" lat="14.403105">
                <ele>55.413086</ele>
                <time>2009-05-30T10:19:33Z</time>
            </trkpt>
            <trkpt lon="101.081399" lat="14.403301">
                <ele>53.490479</ele>
                <time>2009-05-30T10:19:45Z</time>
            </trkpt>
            <trkpt lon="101.081453" lat="14.403351">
                <ele>52.529175</ele>
                <time>2009-05-30T10:19:47Z</time>
            </trkpt>
            <trkpt lon="101.081572" lat="14.403511">
                <ele>51.087158</ele>
                <time>2009-05-30T10:19:52Z</time>
            </trkpt>
            <trkpt lon="101.081622" lat="14.403643">
                <ele>49.164551</ele>
                <time>2009-05-30T10:19:55Z</time>
            </trkpt>
            <trkpt lon="101.081834" lat="14.404037">
                <ele>44.838623</ele>
                <time>2009-05-30T10:20:03Z</time>
            </trkpt>
            <trkpt lon="101.082202" lat="14.404572">
                <ele>41.954712</ele>
                <time>2009-05-30T10:20:14Z</time>
            </trkpt>
            <trkpt lon="101.082262" lat="14.404670">
                <ele>41.954712</ele>
                <time>2009-05-30T10:20:16Z</time>
            </trkpt>
            <trkpt lon="101.082332" lat="14.404814">
                <ele>41.473999</ele>
                <time>2009-05-30T10:20:19Z</time>
            </trkpt>
            <trkpt lon="101.082598" lat="14.405232">
                <ele>40.032105</ele>
                <time>2009-05-30T10:20:28Z</time>
            </trkpt>
            <trkpt lon="101.082999" lat="14.405830">
                <ele>39.551269</ele>
                <time>2009-05-30T10:20:40Z</time>
            </trkpt>
            <trkpt lon="101.083315" lat="14.406226">
                <ele>39.070679</ele>
                <time>2009-05-30T10:20:53Z</time>
            </trkpt>
            <trkpt lon="101.083337" lat="14.406278">
                <ele>39.070679</ele>
                <time>2009-05-30T10:21:04Z</time>
            </trkpt>
            <trkpt lon="101.083388" lat="14.406368">
                <ele>39.551269</ele>
                <time>2009-05-30T10:21:19Z</time>
            </trkpt>
            <trkpt lon="101.083531" lat="14.406565">
                <ele>40.512817</ele>
                <time>2009-05-30T10:21:33Z</time>
            </trkpt>
            <trkpt lon="101.083709" lat="14.406790">
                <ele>40.993408</ele>
                <time>2009-05-30T10:21:46Z</time>
            </trkpt>
            <trkpt lon="101.083943" lat="14.407056">
                <ele>40.993408</ele>
                <time>2009-05-30T10:21:58Z</time>
            </trkpt>
            <trkpt lon="101.083991" lat="14.407111">
                <ele>40.993408</ele>
                <time>2009-05-30T10:22:00Z</time>
            </trkpt>
            <trkpt lon="101.084286" lat="14.407471">
                <ele>40.512817</ele>
                <time>2009-05-30T10:22:14Z</time>
            </trkpt>
            <trkpt lon="101.084529" lat="14.407724">
                <ele>39.070679</ele>
                <time>2009-05-30T10:22:28Z</time>
            </trkpt>
            <trkpt lon="101.084556" lat="14.408106">
                <ele>40.032105</ele>
                <time>2009-05-30T10:22:40Z</time>
            </trkpt>
            <trkpt lon="101.084556" lat="14.408148">
                <ele>40.032105</ele>
                <time>2009-05-30T10:22:41Z</time>
            </trkpt>
            <trkpt lon="101.084622" lat="14.408661">
                <ele>41.954712</ele>
                <time>2009-05-30T10:22:55Z</time>
            </trkpt>
            <trkpt lon="101.084822" lat="14.409015">
                <ele>43.877319</ele>
                <time>2009-05-30T10:23:08Z</time>
            </trkpt>
            <trkpt lon="101.085037" lat="14.409365">
                <ele>44.838623</ele>
                <time>2009-05-30T10:23:21Z</time>
            </trkpt>
            <trkpt lon="101.085102" lat="14.409771">
                <ele>44.358032</ele>
                <time>2009-05-30T10:23:30Z</time>
            </trkpt>
            <trkpt lon="101.085155" lat="14.409938">
                <ele>44.358032</ele>
                <time>2009-05-30T10:23:34Z</time>
            </trkpt>
            <trkpt lon="101.085329" lat="14.410222">
                <ele>41.954712</ele>
                <time>2009-05-30T10:23:44Z</time>
            </trkpt>
            <trkpt lon="101.085426" lat="14.410391">
                <ele>40.993408</ele>
                <time>2009-05-30T10:23:49Z</time>
            </trkpt>
            <trkpt lon="101.085518" lat="14.410696">
                <ele>39.070679</ele>
                <time>2009-05-30T10:24:02Z</time>
            </trkpt>
            <trkpt lon="101.085549" lat="14.410732">
                <ele>39.070679</ele>
                <time>2009-05-30T10:24:05Z</time>
            </trkpt>
            <trkpt lon="101.085670" lat="14.410711">
                <ele>39.070679</ele>
                <time>2009-05-30T10:24:10Z</time>
            </trkpt>
            <trkpt lon="101.086037" lat="14.410714">
                <ele>38.590088</ele>
                <time>2009-05-30T10:24:19Z</time>
            </trkpt>
            <trkpt lon="101.086818" lat="14.410885">
                <ele>39.070679</ele>
                <time>2009-05-30T10:24:35Z</time>
            </trkpt>
            <trkpt lon="101.086946" lat="14.410893">
                <ele>39.551269</ele>
                <time>2009-05-30T10:24:38Z</time>
            </trkpt>
            <trkpt lon="101.087555" lat="14.411023">
                <ele>39.070679</ele>
                <time>2009-05-30T10:24:51Z</time>
            </trkpt>
            <trkpt lon="101.088736" lat="14.411279">
                <ele>37.628662</ele>
                <time>2009-05-30T10:25:11Z</time>
            </trkpt>
            <trkpt lon="101.088941" lat="14.411310">
                <ele>37.148071</ele>
                <time>2009-05-30T10:25:14Z</time>
            </trkpt>
            <trkpt lon="101.089634" lat="14.411211">
                <ele>37.628662</ele>
                <time>2009-05-30T10:25:25Z</time>
            </trkpt>
            <trkpt lon="101.089650" lat="14.411224">
                <ele>37.628662</ele>
                <time>2009-05-30T10:25:33Z</time>
            </trkpt>
            <trkpt lon="101.089603" lat="14.411381">
                <ele>36.667481</ele>
                <time>2009-05-30T10:25:39Z</time>
            </trkpt>
            <trkpt lon="101.089596" lat="14.411841">
                <ele>37.148071</ele>
                <time>2009-05-30T10:25:53Z</time>
            </trkpt>
            <trkpt lon="101.089525" lat="14.412217">
                <ele>38.109375</ele>
                <time>2009-05-30T10:26:04Z</time>
            </trkpt>
            <trkpt lon="101.089475" lat="14.412363">
                <ele>38.590088</ele>
                <time>2009-05-30T10:26:14Z</time>
            </trkpt>
            <trkpt lon="101.089436" lat="14.412377">
                <ele>38.109375</ele>
                <time>2009-05-30T10:26:29Z</time>
            </trkpt>
            <trkpt lon="101.089374" lat="14.412385">
                <ele>38.109375</ele>
                <time>2009-05-30T10:26:34Z</time>
            </trkpt>
            <trkpt lon="101.089306" lat="14.412388">
                <ele>38.109375</ele>
                <time>2009-05-30T10:26:39Z</time>
            </trkpt>
            <trkpt lon="101.089165" lat="14.412358">
                <ele>38.109375</ele>
                <time>2009-05-30T10:26:52Z</time>
            </trkpt>
            <trkpt lon="101.089224" lat="14.412355">
                <ele>38.109375</ele>
                <time>2009-05-30T10:26:57Z</time>
            </trkpt>
            <trkpt lon="101.089302" lat="14.412361">
                <ele>38.109375</ele>
                <time>2009-05-30T10:27:03Z</time>
            </trkpt>
            <trkpt lon="101.089390" lat="14.412296">
                <ele>37.148071</ele>
                <time>2009-05-30T10:27:12Z</time>
            </trkpt>
            <trkpt lon="101.089452" lat="14.412276">
                <ele>37.628662</ele>
                <time>2009-05-30T10:27:17Z</time>
            </trkpt>
            <trkpt lon="101.089475" lat="14.412307">
                <ele>38.590088</ele>
                <time>2009-05-30T10:27:30Z</time>
            </trkpt>
            <trkpt lon="101.089483" lat="14.412364">
                <ele>38.109375</ele>
                <time>2009-05-30T10:27:38Z</time>
            </trkpt>
            <trkpt lon="101.089534" lat="14.412400">
                <ele>37.148071</ele>
                <time>2009-05-30T10:27:55Z</time>
            </trkpt>
            <trkpt lon="101.089550" lat="14.412408">
                <ele>36.186768</ele>
                <time>2009-05-30T10:28:09Z</time>
            </trkpt>
            <trkpt lon="101.089554" lat="14.412410">
                <ele>36.186768</ele>
                <time>2009-05-30T10:28:23Z</time>
            </trkpt>
            <trkpt lon="101.089588" lat="14.412423">
                <ele>34.744873</ele>
                <time>2009-05-30T10:28:41Z</time>
            </trkpt>
            <trkpt lon="101.089620" lat="14.412422">
                <ele>36.186768</ele>
                <time>2009-05-30T10:28:55Z</time>
            </trkpt>
            <trkpt lon="101.089674" lat="14.412440">
                <ele>36.186768</ele>
                <time>2009-05-30T10:29:04Z</time>
            </trkpt>
            <trkpt lon="101.089721" lat="14.412447">
                <ele>35.706055</ele>
                <time>2009-05-30T10:29:11Z</time>
            </trkpt>
            <trkpt lon="101.089765" lat="14.412492">
                <ele>36.186768</ele>
                <time>2009-05-30T10:29:15Z</time>
            </trkpt>
            <trkpt lon="101.089967" lat="14.412820">
                <ele>36.667481</ele>
                <time>2009-05-30T10:29:30Z</time>
            </trkpt>
            <trkpt lon="101.090123" lat="14.413123">
                <ele>37.148071</ele>
                <time>2009-05-30T10:29:42Z</time>
            </trkpt>
            <trkpt lon="101.090313" lat="14.413448">
                <ele>37.628662</ele>
                <time>2009-05-30T10:29:55Z</time>
            </trkpt>
            <trkpt lon="101.090518" lat="14.413742">
                <ele>38.109375</ele>
                <time>2009-05-30T10:30:09Z</time>
            </trkpt>
            <trkpt lon="101.090562" lat="14.413779">
                <ele>38.109375</ele>
                <time>2009-05-30T10:30:12Z</time>
            </trkpt>
            <trkpt lon="101.090620" lat="14.413893">
                <ele>38.109375</ele>
                <time>2009-05-30T10:30:19Z</time>
            </trkpt>
            <trkpt lon="101.090888" lat="14.414104">
                <ele>38.109375</ele>
                <time>2009-05-30T10:30:35Z</time>
            </trkpt>
            <trkpt lon="101.091352" lat="14.414115">
                <ele>37.628662</ele>
                <time>2009-05-30T10:30:49Z</time>
            </trkpt>
            <trkpt lon="101.091437" lat="14.414114">
                <ele>37.628662</ele>
                <time>2009-05-30T10:30:51Z</time>
            </trkpt>
            <trkpt lon="101.092121" lat="14.414146">
                <ele>38.109375</ele>
                <time>2009-05-30T10:31:07Z</time>
            </trkpt>
            <trkpt lon="101.092659" lat="14.414209">
                <ele>39.551269</ele>
                <time>2009-05-30T10:31:22Z</time>
            </trkpt>
            <trkpt lon="101.092489" lat="14.414468">
                <ele>39.551269</ele>
                <time>2009-05-30T10:31:32Z</time>
            </trkpt>
            <trkpt lon="101.092157" lat="14.414911">
                <ele>39.551269</ele>
                <time>2009-05-30T10:31:44Z</time>
            </trkpt>
            <trkpt lon="101.091881" lat="14.415620">
                <ele>42.435425</ele>
                <time>2009-05-30T10:32:01Z</time>
            </trkpt>
            <trkpt lon="101.091708" lat="14.416534">
                <ele>43.396606</ele>
                <time>2009-05-30T10:32:22Z</time>
            </trkpt>
            <trkpt lon="101.091518" lat="14.417381">
                <ele>43.396606</ele>
                <time>2009-05-30T10:32:38Z</time>
            </trkpt>
            <trkpt lon="101.091542" lat="14.418373">
                <ele>41.954712</ele>
                <time>2009-05-30T10:32:52Z</time>
            </trkpt>
            <trkpt lon="101.091808" lat="14.419170">
                <ele>40.993408</ele>
                <time>2009-05-30T10:33:04Z</time>
            </trkpt>
            <trkpt lon="101.091822" lat="14.419220">
                <ele>40.993408</ele>
                <time>2009-05-30T10:33:05Z</time>
            </trkpt>
            <trkpt lon="101.091667" lat="14.419459">
                <ele>40.032105</ele>
                <time>2009-05-30T10:33:12Z</time>
            </trkpt>
            <trkpt lon="101.091619" lat="14.419474">
                <ele>39.551269</ele>
                <time>2009-05-30T10:33:13Z</time>
            </trkpt>
            <trkpt lon="101.091161" lat="14.419550">
                <ele>39.070679</ele>
                <time>2009-05-30T10:33:25Z</time>
            </trkpt>
            <trkpt lon="101.091052" lat="14.419599">
                <ele>40.032105</ele>
                <time>2009-05-30T10:33:29Z</time>
            </trkpt>
            <trkpt lon="101.091067" lat="14.419829">
                <ele>40.512817</ele>
                <time>2009-05-30T10:33:36Z</time>
            </trkpt>
            <trkpt lon="101.091286" lat="14.420322">
                <ele>40.032105</ele>
                <time>2009-05-30T10:33:49Z</time>
            </trkpt>
            <trkpt lon="101.091470" lat="14.420976">
                <ele>41.473999</ele>
                <time>2009-05-30T10:34:04Z</time>
            </trkpt>
            <trkpt lon="101.091880" lat="14.421306">
                <ele>42.435425</ele>
                <time>2009-05-30T10:34:16Z</time>
            </trkpt>
            <trkpt lon="101.092477" lat="14.421933">
                <ele>44.358032</ele>
                <time>2009-05-30T10:34:35Z</time>
            </trkpt>
            <trkpt lon="101.092573" lat="14.422074">
                <ele>44.358032</ele>
                <time>2009-05-30T10:34:39Z</time>
            </trkpt>
            <trkpt lon="101.092727" lat="14.422554">
                <ele>43.396606</ele>
                <time>2009-05-30T10:34:53Z</time>
            </trkpt>
            <trkpt lon="101.092574" lat="14.422995">
                <ele>42.916016</ele>
                <time>2009-05-30T10:35:07Z</time>
            </trkpt>
            <trkpt lon="101.092522" lat="14.423154">
                <ele>42.916016</ele>
                <time>2009-05-30T10:35:11Z</time>
            </trkpt>
            <trkpt lon="101.092516" lat="14.423566">
                <ele>43.396606</ele>
                <time>2009-05-30T10:35:23Z</time>
            </trkpt>
            <trkpt lon="101.092502" lat="14.424172">
                <ele>44.838623</ele>
                <time>2009-05-30T10:35:40Z</time>
            </trkpt>
            <trkpt lon="101.092490" lat="14.424608">
                <ele>45.319214</ele>
                <time>2009-05-30T10:35:55Z</time>
            </trkpt>
            <trkpt lon="101.092321" lat="14.424946">
                <ele>46.761231</ele>
                <time>2009-05-30T10:36:10Z</time>
            </trkpt>
            <trkpt lon="101.092133" lat="14.425390">
                <ele>48.683960</ele>
                <time>2009-05-30T10:36:30Z</time>
            </trkpt>
            <trkpt lon="101.092123" lat="14.425429">
                <ele>49.164551</ele>
                <time>2009-05-30T10:36:32Z</time>
            </trkpt>
            <trkpt lon="101.092172" lat="14.425575">
                <ele>49.164551</ele>
                <time>2009-05-30T10:36:42Z</time>
            </trkpt>
            <trkpt lon="101.092171" lat="14.425656">
                <ele>49.164551</ele>
                <time>2009-05-30T10:36:47Z</time>
            </trkpt>
            <trkpt lon="101.091987" lat="14.425927">
                <ele>49.645264</ele>
                <time>2009-05-30T10:37:03Z</time>
            </trkpt>
            <trkpt lon="101.091709" lat="14.426261">
                <ele>50.125977</ele>
                <time>2009-05-30T10:37:17Z</time>
            </trkpt>
            <trkpt lon="101.091826" lat="14.426586">
                <ele>49.164551</ele>
                <time>2009-05-30T10:37:26Z</time>
            </trkpt>
            <trkpt lon="101.092190" lat="14.427346">
                <ele>46.761231</ele>
                <time>2009-05-30T10:37:43Z</time>
            </trkpt>
            <trkpt lon="101.092502" lat="14.427929">
                <ele>44.358032</ele>
                <time>2009-05-30T10:37:56Z</time>
            </trkpt>
            <trkpt lon="101.092833" lat="14.428891">
                <ele>45.319214</ele>
                <time>2009-05-30T10:38:13Z</time>
            </trkpt>
            <trkpt lon="101.093097" lat="14.429942">
                <ele>44.358032</ele>
                <time>2009-05-30T10:38:29Z</time>
            </trkpt>
            <trkpt lon="101.093144" lat="14.431194">
                <ele>46.280640</ele>
                <time>2009-05-30T10:38:49Z</time>
            </trkpt>
            <trkpt lon="101.093322" lat="14.432277">
                <ele>48.683960</ele>
                <time>2009-05-30T10:39:08Z</time>
            </trkpt>
            <trkpt lon="101.093668" lat="14.433270">
                <ele>51.087158</ele>
                <time>2009-05-30T10:39:28Z</time>
            </trkpt>
            <trkpt lon="101.093994" lat="14.434250">
                <ele>53.490479</ele>
                <time>2009-05-30T10:39:49Z</time>
            </trkpt>
            <trkpt lon="101.094287" lat="14.435101">
                <ele>55.893799</ele>
                <time>2009-05-30T10:40:09Z</time>
            </trkpt>
            <trkpt lon="101.094602" lat="14.435919">
                <ele>58.297119</ele>
                <time>2009-05-30T10:40:29Z</time>
            </trkpt>
            <trkpt lon="101.094660" lat="14.436084">
                <ele>58.777710</ele>
                <time>2009-05-30T10:40:33Z</time>
            </trkpt>
            <trkpt lon="101.094913" lat="14.437003">
                <ele>59.739136</ele>
                <time>2009-05-30T10:40:54Z</time>
            </trkpt>
            <trkpt lon="101.095155" lat="14.437885">
                <ele>61.661743</ele>
                <time>2009-05-30T10:41:14Z</time>
            </trkpt>
            <trkpt lon="101.095415" lat="14.438749">
                <ele>63.584351</ele>
                <time>2009-05-30T10:41:34Z</time>
            </trkpt>
            <trkpt lon="101.095709" lat="14.439811">
                <ele>65.987671</ele>
                <time>2009-05-30T10:41:58Z</time>
            </trkpt>
            <trkpt lon="101.095871" lat="14.440656">
                <ele>64.545654</ele>
                <time>2009-05-30T10:42:15Z</time>
            </trkpt>
            <trkpt lon="101.095957" lat="14.441261">
                <ele>63.584351</ele>
                <time>2009-05-30T10:42:25Z</time>
            </trkpt>
            <trkpt lon="101.096181" lat="14.442098">
                <ele>64.065063</ele>
                <time>2009-05-30T10:42:43Z</time>
            </trkpt>
            <trkpt lon="101.096365" lat="14.442651">
                <ele>65.507080</ele>
                <time>2009-05-30T10:42:57Z</time>
            </trkpt>
            <trkpt lon="101.096800" lat="14.443269">
                <ele>67.910278</ele>
                <time>2009-05-30T10:43:16Z</time>
            </trkpt>
            <trkpt lon="101.096871" lat="14.443624">
                <ele>69.352295</ele>
                <time>2009-05-30T10:43:31Z</time>
            </trkpt>
            <trkpt lon="101.096846" lat="14.443922">
                <ele>71.755493</ele>
                <time>2009-05-30T10:43:47Z</time>
            </trkpt>
            <trkpt lon="101.096815" lat="14.444282">
                <ele>74.639526</ele>
                <time>2009-05-30T10:44:10Z</time>
            </trkpt>
            <trkpt lon="101.096786" lat="14.444621">
                <ele>78.484741</ele>
                <time>2009-05-30T10:44:31Z</time>
            </trkpt>
            <trkpt lon="101.096757" lat="14.444965">
                <ele>83.291382</ele>
                <time>2009-05-30T10:44:52Z</time>
            </trkpt>
            <trkpt lon="101.096731" lat="14.445268">
                <ele>85.694580</ele>
                <time>2009-05-30T10:45:11Z</time>
            </trkpt>
            <trkpt lon="101.096708" lat="14.445544">
                <ele>86.656006</ele>
                <time>2009-05-30T10:45:29Z</time>
            </trkpt>
            <trkpt lon="101.096706" lat="14.445606">
                <ele>86.656006</ele>
                <time>2009-05-30T10:45:33Z</time>
            </trkpt>
            <trkpt lon="101.097124" lat="14.445800">
                <ele>91.462524</ele>
                <time>2009-05-30T10:45:53Z</time>
            </trkpt>
            <trkpt lon="101.097591" lat="14.445635">
                <ele>92.904541</ele>
                <time>2009-05-30T10:46:08Z</time>
            </trkpt>
            <trkpt lon="101.098043" lat="14.445409">
                <ele>92.904541</ele>
                <time>2009-05-30T10:46:20Z</time>
            </trkpt>
            <trkpt lon="101.098326" lat="14.445567">
                <ele>93.385132</ele>
                <time>2009-05-30T10:46:27Z</time>
            </trkpt>
            <trkpt lon="101.099085" lat="14.446493">
                <ele>97.711182</ele>
                <time>2009-05-30T10:46:53Z</time>
            </trkpt>
            <trkpt lon="101.099143" lat="14.446564">
                <ele>98.191895</ele>
                <time>2009-05-30T10:46:55Z</time>
            </trkpt>
            <trkpt lon="101.099645" lat="14.447176">
                <ele>100.595093</ele>
                <time>2009-05-30T10:47:12Z</time>
            </trkpt>
            <trkpt lon="101.099791" lat="14.447354">
                <ele>100.595093</ele>
                <time>2009-05-30T10:47:17Z</time>
            </trkpt>
            <trkpt lon="101.100348" lat="14.447859">
                <ele>100.114502</ele>
                <time>2009-05-30T10:47:33Z</time>
            </trkpt>
            <trkpt lon="101.100410" lat="14.448222">
                <ele>100.114502</ele>
                <time>2009-05-30T10:47:41Z</time>
            </trkpt>
            <trkpt lon="101.100385" lat="14.448266">
                <ele>100.114502</ele>
                <time>2009-05-30T10:47:42Z</time>
            </trkpt>
            <trkpt lon="101.099919" lat="14.449066">
                <ele>101.075684</ele>
                <time>2009-05-30T10:48:01Z</time>
            </trkpt>
            <trkpt lon="101.099910" lat="14.449111">
                <ele>101.556397</ele>
                <time>2009-05-30T10:48:02Z</time>
            </trkpt>
            <trkpt lon="101.099958" lat="14.449784">
                <ele>103.479004</ele>
                <time>2009-05-30T10:48:17Z</time>
            </trkpt>
            <trkpt lon="101.099628" lat="14.450204">
                <ele>102.998291</ele>
                <time>2009-05-30T10:48:27Z</time>
            </trkpt>
            <trkpt lon="101.098732" lat="14.450888">
                <ele>98.191895</ele>
                <time>2009-05-30T10:48:42Z</time>
            </trkpt>
            <trkpt lon="101.097664" lat="14.451372">
                <ele>96.269287</ele>
                <time>2009-05-30T10:48:56Z</time>
            </trkpt>
            <trkpt lon="101.096919" lat="14.451694">
                <ele>94.346558</ele>
                <time>2009-05-30T10:49:05Z</time>
            </trkpt>
            <trkpt lon="101.096428" lat="14.452228">
                <ele>91.462524</ele>
                <time>2009-05-30T10:49:13Z</time>
            </trkpt>
            <trkpt lon="101.095243" lat="14.452881">
                <ele>86.656006</ele>
                <time>2009-05-30T10:49:28Z</time>
            </trkpt>
            <trkpt lon="101.094234" lat="14.453411">
                <ele>82.330078</ele>
                <time>2009-05-30T10:49:41Z</time>
            </trkpt>
            <trkpt lon="101.093938" lat="14.453828">
                <ele>80.888184</ele>
                <time>2009-05-30T10:49:47Z</time>
            </trkpt>
            <trkpt lon="101.093814" lat="14.454055">
                <ele>80.407471</ele>
                <time>2009-05-30T10:49:50Z</time>
            </trkpt>
            <trkpt lon="101.093034" lat="14.455200">
                <ele>80.888184</ele>
                <time>2009-05-30T10:50:07Z</time>
            </trkpt>
            <trkpt lon="101.092350" lat="14.456011">
                <ele>78.965454</ele>
                <time>2009-05-30T10:50:22Z</time>
            </trkpt>
            <trkpt lon="101.091458" lat="14.456954">
                <ele>78.484741</ele>
                <time>2009-05-30T10:50:38Z</time>
            </trkpt>
            <trkpt lon="101.090770" lat="14.457876">
                <ele>77.042847</ele>
                <time>2009-05-30T10:50:55Z</time>
            </trkpt>
            <trkpt lon="101.090477" lat="14.458269">
                <ele>76.562134</ele>
                <time>2009-05-30T10:51:06Z</time>
            </trkpt>
            <trkpt lon="101.090433" lat="14.458328">
                <ele>76.081421</ele>
                <time>2009-05-30T10:51:15Z</time>
            </trkpt>
            <trkpt lon="101.090433" lat="14.458328">
                <ele>76.562134</ele>
                <time>2009-05-30T10:51:59Z</time>
            </trkpt>
            <trkpt lon="101.090433" lat="14.458328">
                <ele>78.004028</ele>
                <time>2009-05-30T10:52:34Z</time>
            </trkpt>
            <trkpt lon="101.090433" lat="14.458328">
                <ele>78.484741</ele>
                <time>2009-05-30T10:52:40Z</time>
            </trkpt>
            <trkpt lon="101.090503" lat="14.458234">
                <ele>78.965454</ele>
                <time>2009-05-30T10:52:52Z</time>
            </trkpt>
            <trkpt lon="101.090503" lat="14.458234">
                <ele>77.523438</ele>
                <time>2009-05-30T10:53:24Z</time>
            </trkpt>
            <trkpt lon="101.090503" lat="14.458234">
                <ele>77.042847</ele>
                <time>2009-05-30T10:53:32Z</time>
            </trkpt>
            <trkpt lon="101.090684" lat="14.457990">
                <ele>76.562134</ele>
                <time>2009-05-30T10:53:44Z</time>
            </trkpt>
            <trkpt lon="101.090985" lat="14.457588">
                <ele>76.562134</ele>
                <time>2009-05-30T10:53:57Z</time>
            </trkpt>
            <trkpt lon="101.091504" lat="14.456892">
                <ele>77.042847</ele>
                <time>2009-05-30T10:54:16Z</time>
            </trkpt>
            <trkpt lon="101.091686" lat="14.456648">
                <ele>77.042847</ele>
                <time>2009-05-30T10:54:22Z</time>
            </trkpt>
            <trkpt lon="101.092378" lat="14.455979">
                <ele>78.004028</ele>
                <time>2009-05-30T10:54:42Z</time>
            </trkpt>
            <trkpt lon="101.092615" lat="14.455719">
                <ele>78.965454</ele>
                <time>2009-05-30T10:54:50Z</time>
            </trkpt>
            <trkpt lon="101.093214" lat="14.454965">
                <ele>78.484741</ele>
                <time>2009-05-30T10:55:11Z</time>
            </trkpt>
            <trkpt lon="101.093275" lat="14.454886">
                <ele>78.484741</ele>
                <time>2009-05-30T10:55:13Z</time>
            </trkpt>
            <trkpt lon="101.093778" lat="14.454117">
                <ele>79.446045</ele>
                <time>2009-05-30T10:55:32Z</time>
            </trkpt>
            <trkpt lon="101.093788" lat="14.454102">
                <ele>79.926636</ele>
                <time>2009-05-30T10:55:41Z</time>
            </trkpt>
            <trkpt lon="101.093788" lat="14.454102">
                <ele>85.694580</ele>
                <time>2009-05-30T10:56:31Z</time>
            </trkpt>
            <trkpt lon="101.093372" lat="14.453942">
                <ele>83.291382</ele>
                <time>2009-05-30T10:56:41Z</time>
            </trkpt>
            <trkpt lon="101.092384" lat="14.453634">
                <ele>79.926636</ele>
                <time>2009-05-30T10:56:58Z</time>
            </trkpt>
            <trkpt lon="101.091564" lat="14.453461">
                <ele>78.965454</ele>
                <time>2009-05-30T10:57:13Z</time>
            </trkpt>
            <trkpt lon="101.090974" lat="14.453247">
                <ele>80.407471</ele>
                <time>2009-05-30T10:57:27Z</time>
            </trkpt>
            <trkpt lon="101.090394" lat="14.453256">
                <ele>82.330078</ele>
                <time>2009-05-30T10:57:44Z</time>
            </trkpt>
            <trkpt lon="101.089811" lat="14.453332">
                <ele>86.175293</ele>
                <time>2009-05-30T10:58:05Z</time>
            </trkpt>
            <trkpt lon="101.089320" lat="14.453338">
                <ele>89.059326</ele>
                <time>2009-05-30T10:58:22Z</time>
            </trkpt>
            <trkpt lon="101.089080" lat="14.453249">
                <ele>88.578735</ele>
                <time>2009-05-30T10:58:30Z</time>
            </trkpt>
            <trkpt lon="101.088741" lat="14.453158">
                <ele>86.656006</ele>
                <time>2009-05-30T10:58:37Z</time>
            </trkpt>
            <trkpt lon="101.088633" lat="14.453158">
                <ele>85.694580</ele>
                <time>2009-05-30T10:58:39Z</time>
            </trkpt>
            <trkpt lon="101.088446" lat="14.453158">
                <ele>83.771973</ele>
                <time>2009-05-30T10:58:42Z</time>
            </trkpt>
            <trkpt lon="101.088213" lat="14.453158">
                <ele>80.407471</ele>
                <time>2009-05-30T10:58:45Z</time>
            </trkpt>
            <trkpt lon="101.087808" lat="14.453158">
                <ele>74.158813</ele>
                <time>2009-05-30T10:58:49Z</time>
            </trkpt>
            <trkpt lon="101.086319" lat="14.452763">
                <ele>64.545654</ele>
                <time>2009-05-30T10:59:03Z</time>
            </trkpt>
            <trkpt lon="101.085853" lat="14.452588">
                <ele>66.948975</ele>
                <time>2009-05-30T10:59:10Z</time>
            </trkpt>
            <trkpt lon="101.085596" lat="14.452558">
                <ele>64.065063</ele>
                <time>2009-05-30T10:59:14Z</time>
            </trkpt>
            <trkpt lon="101.085421" lat="14.452558">
                <ele>62.622925</ele>
                <time>2009-05-30T10:59:16Z</time>
            </trkpt>
            <trkpt lon="101.085057" lat="14.452546">
                <ele>60.219727</ele>
                <time>2009-05-30T10:59:20Z</time>
            </trkpt>
            <trkpt lon="101.084184" lat="14.452493">
                <ele>60.700317</ele>
                <time>2009-05-30T10:59:32Z</time>
            </trkpt>
            <trkpt lon="101.083979" lat="14.452481">
                <ele>62.142334</ele>
                <time>2009-05-30T10:59:36Z</time>
            </trkpt>
            <trkpt lon="101.083352" lat="14.452438">
                <ele>65.026367</ele>
                <time>2009-05-30T10:59:49Z</time>
            </trkpt>
            <trkpt lon="101.082671" lat="14.452371">
                <ele>65.507080</ele>
                <time>2009-05-30T11:00:03Z</time>
            </trkpt>
            <trkpt lon="101.081893" lat="14.452025">
                <ele>64.065063</ele>
                <time>2009-05-30T11:00:18Z</time>
            </trkpt>
            <trkpt lon="101.081684" lat="14.451896">
                <ele>63.103638</ele>
                <time>2009-05-30T11:00:22Z</time>
            </trkpt>
            <trkpt lon="101.081468" lat="14.451886">
                <ele>61.661743</ele>
                <time>2009-05-30T11:00:26Z</time>
            </trkpt>
            <trkpt lon="101.081366" lat="14.451903">
                <ele>60.700317</ele>
                <time>2009-05-30T11:00:28Z</time>
            </trkpt>
            <trkpt lon="101.081253" lat="14.451922">
                <ele>59.739136</ele>
                <time>2009-05-30T11:00:30Z</time>
            </trkpt>
            <trkpt lon="101.080723" lat="14.452010">
                <ele>56.855103</ele>
                <time>2009-05-30T11:00:38Z</time>
            </trkpt>
            <trkpt lon="101.080537" lat="14.451807">
                <ele>56.855103</ele>
                <time>2009-05-30T11:00:44Z</time>
            </trkpt>
            <trkpt lon="101.080581" lat="14.450726">
                <ele>58.297119</ele>
                <time>2009-05-30T11:01:04Z</time>
            </trkpt>
            <trkpt lon="101.080613" lat="14.449846">
                <ele>59.258423</ele>
                <time>2009-05-30T11:01:22Z</time>
            </trkpt>
            <trkpt lon="101.080634" lat="14.449590">
                <ele>59.739136</ele>
                <time>2009-05-30T11:01:30Z</time>
            </trkpt>
            <trkpt lon="101.080341" lat="14.449569">
                <ele>58.297119</ele>
                <time>2009-05-30T11:01:37Z</time>
            </trkpt>
            <trkpt lon="101.079281" lat="14.448917">
                <ele>56.374512</ele>
                <time>2009-05-30T11:01:55Z</time>
            </trkpt>
            <trkpt lon="101.078288" lat="14.448247">
                <ele>58.297119</ele>
                <time>2009-05-30T11:02:12Z</time>
            </trkpt>
            <trkpt lon="101.077767" lat="14.447954">
                <ele>61.661743</ele>
                <time>2009-05-30T11:02:25Z</time>
            </trkpt>
            <trkpt lon="101.077457" lat="14.447821">
                <ele>64.065063</ele>
                <time>2009-05-30T11:02:33Z</time>
            </trkpt>
            <trkpt lon="101.076781" lat="14.447481">
                <ele>67.910278</ele>
                <time>2009-05-30T11:02:51Z</time>
            </trkpt>
            <trkpt lon="101.076221" lat="14.447015">
                <ele>65.507080</ele>
                <time>2009-05-30T11:03:05Z</time>
            </trkpt>
            <trkpt lon="101.075648" lat="14.446821">
                <ele>61.181030</ele>
                <time>2009-05-30T11:03:13Z</time>
            </trkpt>
            <trkpt lon="101.074369" lat="14.446669">
                <ele>55.413086</ele>
                <time>2009-05-30T11:03:28Z</time>
            </trkpt>
            <trkpt lon="101.072604" lat="14.446636">
                <ele>54.932373</ele>
                <time>2009-05-30T11:03:50Z</time>
            </trkpt>
            <trkpt lon="101.071040" lat="14.446707">
                <ele>54.932373</ele>
                <time>2009-05-30T11:04:11Z</time>
            </trkpt>
            <trkpt lon="101.069581" lat="14.446773">
                <ele>54.932373</ele>
                <time>2009-05-30T11:04:32Z</time>
            </trkpt>
            <trkpt lon="101.068362" lat="14.446827">
                <ele>54.932373</ele>
                <time>2009-05-30T11:04:50Z</time>
            </trkpt>
            <trkpt lon="101.067240" lat="14.446876">
                <ele>55.413086</ele>
                <time>2009-05-30T11:05:08Z</time>
            </trkpt>
            <trkpt lon="101.065945" lat="14.446931">
                <ele>55.413086</ele>
                <time>2009-05-30T11:05:29Z</time>
            </trkpt>
            <trkpt lon="101.064830" lat="14.446979">
                <ele>55.413086</ele>
                <time>2009-05-30T11:05:47Z</time>
            </trkpt>
            <trkpt lon="101.063720" lat="14.447026">
                <ele>55.413086</ele>
                <time>2009-05-30T11:06:05Z</time>
            </trkpt>
            <trkpt lon="101.062547" lat="14.447088">
                <ele>55.893799</ele>
                <time>2009-05-30T11:06:24Z</time>
            </trkpt>
            <trkpt lon="101.062219" lat="14.447117">
                <ele>56.374512</ele>
                <time>2009-05-30T11:06:31Z</time>
            </trkpt>
            <trkpt lon="101.062092" lat="14.446711">
                <ele>55.413086</ele>
                <time>2009-05-30T11:06:45Z</time>
            </trkpt>
            <trkpt lon="101.062084" lat="14.446698">
                <ele>55.893799</ele>
                <time>2009-05-30T11:06:52Z</time>
            </trkpt>
            <trkpt lon="101.062169" lat="14.446878">
                <ele>54.451782</ele>
                <time>2009-05-30T11:07:02Z</time>
            </trkpt>
            <trkpt lon="101.062183" lat="14.447022">
                <ele>54.451782</ele>
                <time>2009-05-30T11:07:09Z</time>
            </trkpt>
            <trkpt lon="101.061801" lat="14.447155">
                <ele>54.451782</ele>
                <time>2009-05-30T11:07:19Z</time>
            </trkpt>
            <trkpt lon="101.060760" lat="14.447270">
                <ele>54.932373</ele>
                <time>2009-05-30T11:07:38Z</time>
            </trkpt>
            <trkpt lon="101.059810" lat="14.447482">
                <ele>55.893799</ele>
                <time>2009-05-30T11:07:56Z</time>
            </trkpt>
            <trkpt lon="101.059673" lat="14.447260">
                <ele>55.893799</ele>
                <time>2009-05-30T11:08:04Z</time>
            </trkpt>
            <trkpt lon="101.059628" lat="14.447136">
                <ele>55.893799</ele>
                <time>2009-05-30T11:08:07Z</time>
            </trkpt>
            <trkpt lon="101.059558" lat="14.446937">
                <ele>55.893799</ele>
                <time>2009-05-30T11:08:12Z</time>
            </trkpt>
            <trkpt lon="101.059437" lat="14.446848">
                <ele>55.893799</ele>
                <time>2009-05-30T11:08:20Z</time>
            </trkpt>
            <trkpt lon="101.059446" lat="14.446860">
                <ele>55.893799</ele>
                <time>2009-05-30T11:08:21Z</time>
            </trkpt>
            <trkpt lon="101.059680" lat="14.447281">
                <ele>54.451782</ele>
                <time>2009-05-30T11:08:33Z</time>
            </trkpt>
            <trkpt lon="101.059552" lat="14.447539">
                <ele>54.932373</ele>
                <time>2009-05-30T11:08:40Z</time>
            </trkpt>
            <trkpt lon="101.058751" lat="14.447717">
                <ele>54.451782</ele>
                <time>2009-05-30T11:08:57Z</time>
            </trkpt>
            <trkpt lon="101.057722" lat="14.447984">
                <ele>55.413086</ele>
                <time>2009-05-30T11:09:17Z</time>
            </trkpt>
            <trkpt lon="101.057518" lat="14.448045">
                <ele>55.413086</ele>
                <time>2009-05-30T11:09:22Z</time>
            </trkpt>
            <trkpt lon="101.057381" lat="14.447892">
                <ele>55.413086</ele>
                <time>2009-05-30T11:09:26Z</time>
            </trkpt>
            <trkpt lon="101.057074" lat="14.447253">
                <ele>52.048584</ele>
                <time>2009-05-30T11:09:41Z</time>
            </trkpt>
            <trkpt lon="101.056704" lat="14.446668">
                <ele>51.567871</ele>
                <time>2009-05-30T11:09:55Z</time>
            </trkpt>
            <trkpt lon="101.056297" lat="14.446532">
                <ele>54.451782</ele>
                <time>2009-05-30T11:10:04Z</time>
            </trkpt>
            <trkpt lon="101.056111" lat="14.446503">
                <ele>54.451782</ele>
                <time>2009-05-30T11:10:08Z</time>
            </trkpt>
            <trkpt lon="101.056011" lat="14.446505">
                <ele>54.451782</ele>
                <time>2009-05-30T11:10:10Z</time>
            </trkpt>
            <trkpt lon="101.055686" lat="14.446607">
                <ele>53.009766</ele>
                <time>2009-05-30T11:10:17Z</time>
            </trkpt>
            <trkpt lon="101.055386" lat="14.446460">
                <ele>52.048584</ele>
                <time>2009-05-30T11:10:25Z</time>
            </trkpt>
            <trkpt lon="101.055251" lat="14.446198">
                <ele>52.529175</ele>
                <time>2009-05-30T11:10:31Z</time>
            </trkpt>
            <trkpt lon="101.054911" lat="14.445971">
                <ele>53.971191</ele>
                <time>2009-05-30T11:10:41Z</time>
            </trkpt>
            <trkpt lon="101.054883" lat="14.445959">
                <ele>54.451782</ele>
                <time>2009-05-30T11:10:42Z</time>
            </trkpt>
            <trkpt lon="101.054819" lat="14.445988">
                <ele>55.413086</ele>
                <time>2009-05-30T11:10:52Z</time>
            </trkpt>
            <trkpt lon="101.054838" lat="14.445990">
                <ele>56.855103</ele>
                <time>2009-05-30T11:11:00Z</time>
            </trkpt>
        </trkseg>
    </trk>
</gpx>